GFSNW_sfc_temp_000.txt.gz
Temp
58 58 58 59 59 58 57 57 56 65 63 58 54 50 51 51 54 58 55 56 54 53 51 50 50 51 54 59 59 54 57 55 50 53 55 57 57 57 58 51 45 50 47 50
58 58 58 58 58 57 58 55 56 64 61 53 51 52 52 53 54 53 55 53 55 55 52 50 52 52 58 58 58 56 58 52 49 49 52 54 53 54 55 54 53 48 45 51
58 58 58 58 58 57 59 56 54 59 57 52 53 52 50 50 54 53 54 53 55 54 52 53 50 51 55 55 57 52 57 53 51 50 51 55 50 51 54 55 49 50 51 55
58 58 57 57 57 57 60 55 49 50 51 52 51 52 50 49 49 53 54 53 53 53 49 50 50 52 55 56 54 56 56 49 52 54 55 54 52 53 54 51 53 48 53 55
58 58 57 57 57 57 58 55 54 52 50 49 52 47 49 50 50 53 50 52 52 53 52 53 50 53 53 53 55 55 52 50 50 48 54 52 48 52 53 53 54 54 55 54
58 57 57 56 57 57 57 56 56 57 46 48 50 52 51 50 52 51 54 53 54 52 52 55 57 58 57 55 54 53 51 51 48 44 47 47 44 52 52 54 57 56 50 59
57 57 57 57 57 56 58 57 58 55 48 49 50 49 49 49 49 50 50 54 53 54 58 57 56 55 54 54 54 56 52 48 47 43 46 35 51 57 56 53 57 60 58 59
57 57 57 57 56 56 55 53 54 53 49 50 48 47 49 49 50 50 50 52 55 58 56 50 47 49 48 49 49 50 53 50 44 39 42 48 51 57 52 49 54 58 56 53
56 56 56 56 56 56 55 53 54 50 47 48 52 49 50 49 48 47 47 51 54 55 51 46 36 39 43 44 45 47 47 51 46 38 33 34 50 57 58 57 46 58 55 53
56 56 56 56 56 55 55 53 55 51 44 50 51 46 47 49 45 44 43 44 45 49 43 38 36 38 43 41 41 40 38 39 38 39 36 45 55 59 57 43 50 53 54 54
56 56 55 55 55 55 54 53 54 51 46 48 50 52 46 46 47 45 43 44 43 41 38 38 40 37 42 41 45 42 42 37 37 40 35 33 57 54 47 56 55 55 55 54
55 55 55 55 55 55 54 50 54 53 47 48 54 56 58 55 54 49 46 49 46 45 41 41 41 36 38 42 38 49 42 51 49 46 45 57 57 56 57 57 55 54 53 53
55 55 55 55 56 56 54 51 50 49 46 47 47 50 57 59 60 63 46 49 52 46 49 43 41 36 41 36 41 47 51 54 46 50 55 56 59 54 56 54 54 52 51 50
55 55 56 55 55 55 54 51 52 51 47 42 49 55 54 59 57 56 59 53 52 53 48 44 40 36 45 39 47 45 52 51 51 51 56 58 60 59 56 50 48 45 44 44
55 55 55 54 54 54 54 53 53 55 49 42 45 53 54 54 57 54 56 55 52 46 41 40 38 41 41 41 40 38 48 50 48 46 57 54 55 58 48 46 43 44 43 41
54 54 54 54 54 54 51 46 52 53 52 45 37 50 49 51 52 52 51 52 50 47 42 40 42 45 42 36 35 46 51 54 56 52 57 55 46 45 44 44 41 40 39 38
54 54 53 53 53 51 47 47 49 51 52 44 37 39 47 47 47 47 48 49 46 45 42 40 41 40 42 38 35 48 54 56 55 54 49 43 41 42 39 38 36 37 35 39
53 53 53 53 52 49 46 46 48 50 46 44 34 35 40 47 42 43 47 44 44 43 42 42 40 41 40 34 45 51 53 53 52 49 46 43 41 38 35 34 32 34 36 36
53 52 51 49 45 43 43 48 48 47 45 37 35 34 35 44 42 43 42 44 37 43 38 39 39 38 33 41 47 48 50 47 46 37 36 35 33 32 31 31 34 33 33 34
51 50 46 38 42 48 48 44 41 38 39 37 34 41 37 42 40 38 38 37 34 32 36 39 34 36 45 47 48 48 48 45 37 32 30 31 31 31 29 31 34 33 33 33
45 42 38 42 47 44 40 35 35 35 33 36 36 38 37 41 36 36 39 33 34 30 34 32 32 33 40 39 38 37 39 40 39 37 36 35 38 34 34 33 33 33 33 33
46 43 43 42 38 35 33 32 31 31 32 35 34 35 39 37 39 36 34 33 32 28 34 30 28 37 37 36 35 35 39 39 37 35 35 37 36 36 34 34 34 34 34 34
44 39 34 35 33 29 29 26 28 27 31 30 32 32 36 35 37 35 33 28 29 35 28 28 35 39 37 35 34 33 35 35 35 35 36 35 34 34 34 34 34 33 32 33
37 34 31 30 29 31 33 33 34 34 30 31 35 32 33 35 32 33 29 33 31 25 22 25 37 39 38 35 34 33 33 35 35 34 34 34 34 33 33 33 33 32 31 32
35 34 30 31 34 30 27 28 31 31 33 34 32 32 34 30 30 32 30 25 23 26 27 34 39 38 35 33 33 34 34 34 33 33 33 33 33 32 32 32 32 31 30 30
34 33 32 30 29 28 26 28 30 32 34 34 34 30 28 28 29 27 25 24 22 30 32 37 33 34 34 33 33 34 35 34 33 33 32 32 31 31 32 31 30 29 28 26
33 32 36 34 31 34 33 32 33 37 35 31 31 26 27 29 26 24 27 24 31 35 37 35 32 32 33 33 33 33 32 32 32 32 31 31 31 30 27 26 28 27 27 27

GFSNW_sfc_temp_003.txt.gz
Temp
58 58 58 59 59 58 61 65 61 72 70 63 64 56 58 54 57 61 58 60 58 57 56 55 55 54 56 61 61 57 60 60 53 55 59 61 62 61 61 54 50 54 50 52
58 58 58 58 58 58 62 63 63 73 70 57 55 57 55 57 57 56 58 56 59 60 55 51 55 56 60 60 60 57 61 56 51 49 54 57 55 59 60 61 56 50 47 53
58 58 58 57 57 57 61 64 59 66 66 63 60 57 55 53 57 56 59 57 61 59 55 58 53 54 56 58 59 53 58 56 52 49 51 57 52 54 57 56 50 51 53 56
58 58 57 57 57 57 60 62 54 55 57 57 58 59 57 55 53 58 60 57 58 58 53 55 53 56 57 59 55 59 59 52 56 56 57 56 55 54 56 53 54 50 55 56
58 58 57 57 57 56 64 61 60 62 58 57 59 54 55 55 55 56 55 55 56 60 56 57 53 57 57 56 58 58 57 52 53 50 57 56 51 53 54 55 56 56 57 56
58 57 57 57 57 57 64 63 63 64 51 56 57 56 56 55 57 55 57 58 58 56 56 60 62 63 61 60 58 56 54 54 51 45 54 51 45 53 54 55 59 59 53 62
57 57 57 57 57 58 66 63 64 61 53 58 57 55 56 54 55 55 56 59 57 56 63 62 61 60 60 60 59 61 54 52 50 44 48 35 54 62 60 58 60 63 62 64
57 57 57 57 57 57 61 63 62 60 55 59 54 54 55 55 55 55 55 56 57 63 59 54 50 52 51 52 53 55 57 53 47 41 44 51 55 60 58 54 54 64 62 64
56 56 56 56 56 56 62 59 59 55 55 54 57 55 56 55 53 49 49 51 55 57 56 51 41 45 48 48 46 51 52 54 49 44 35 36 54 59 61 60 47 62 63 60
56 56 56 56 56 55 61 60 61 58 50 55 56 53 53 55 52 48 46 49 47 53 49 43 39 42 46 44 44 44 44 45 43 43 40 47 60 63 62 44 51 57 60 59
56 56 55 55 55 55 56 57 60 57 53 55 53 55 52 47 48 50 48 46 49 48 47 47 42 44 48 45 50 47 45 42 41 44 39 34 62 60 49 60 61 58 58 58
55 55 55 55 55 54 55 51 55 54 49 53 57 60 60 56 56 50 46 48 50 53 45 42 43 39 39 43 37 54 44 53 50 47 47 60 64 61 65 64 61 61 58 58
55 55 55 55 55 55 55 51 51 50 46 47 48 53 61 64 61 63 50 53 57 54 57 47 43 38 43 40 43 48 54 59 52 52 58 61 64 67 66 62 59 59 54 54
55 55 55 55 55 55 54 51 53 51 48 44 52 60 56 60 61 60 60 56 54 54 51 45 41 39 47 43 49 46 52 54 51 52 57 61 63 63 56 54 50 49 48 48
55 55 55 55 54 54 54 53 53 54 49 43 49 56 60 59 60 58 59 58 54 48 42 41 39 43 42 43 42 41 53 51 49 48 58 56 56 58 57 54 50 49 47 40
54 54 54 54 54 54 52 48 52 53 52 45 39 56 53 54 55 55 55 54 52 48 44 42 43 47 45 38 36 50 56 58 57 53 58 58 58 50 50 50 49 46 44 40
54 53 53 53 53 52 47 47 49 51 53 45 40 43 50 51 52 50 49 50 46 45 43 40 42 42 43 39 37 50 56 57 58 59 57 52 54 47 45 43 40 38 35 35
53 53 53 53 51 49 47 46 49 51 47 46 36 39 44 49 44 45 50 45 45 43 42 43 41 42 40 34 46 51 54 56 56 56 56 45 42 40 36 34 33 31 31 37
53 51 51 50 47 45 44 48 49 48 47 39 37 35 35 47 44 46 46 47 39 46 40 40 42 40 33 41 47 50 53 52 51 40 39 37 36 33 32 31 30 31 36 36
51 51 47 41 42 47 48 46 43 39 40 38 36 44 40 46 45 41 41 39 36 32 38 42 35 37 47 49 51 52 52 46 44 34 33 33 32 31 31 32 36 38 37 36
47 45 40 42 47 46 43 36 37 38 34 38 38 40 37 44 38 37 39 34 35 30 37 34 34 34 43 50 47 44 42 43 44 45 44 40 38 35 35 37 37 37 36 36
47 44 44 43 40 36 34 34 33 32 34 38 35 37 40 38 40 37 34 33 33 29 37 32 29 40 46 44 44 43 43 43 42 42 39 36 38 38 39 38 37 37 37 37
46 42 35 38 35 31 30 29 31 32 35 33 34 33 38 36 37 36 34 31 31 38 30 29 36 43 44 44 41 39 39 41 39 38 38 38 38 39 38 36 37 37 36 37
39 35 31 31 30 32 35 37 36 35 34 33 37 34 35 37 33 35 30 36 34 28 25 27 43 46 44 42 40 38 36 37 37 37 37 37 36 36 37 36 37 36 34 35
35 35 31 31 37 35 32 32 33 33 36 36 35 34 37 32 31 33 33 28 26 30 30 40 46 45 42 40 38 39 38 38 39 39 38 37 37 36 36 36 36 35 34 33
35 34 32 33 32 33 30 30 33 35 38 38 37 32 30 30 32 29 28 28 26 33 37 42 42 40 41 40 39 39 40 40 39 39 38 37 36 35 35 36 34 33 32 29
34 33 38 38 35 37 36 36 37 39 37 33 34 29 29 34 28 27 33 29 37 39 41 42 40 38 39 40 40 39 38 38 38 38 37 36 36 35 32 30 32 31 31 30

GFSNW_sfc_temp_006.txt.gz
Temp
58 58 58 58 59 58 60 58 54 67 68 57 56 50 56 56 57 61 58 58 58 55 56 54 52 51 53 59 59 53 53 51 44 46 52 55 52 51 53 42 41 43 39 41
58 58 58 58 58 58 54 57 58 69 66 50 49 55 54 56 56 55 58 55 58 59 53 49 53 52 58 59 55 51 55 50 42 40 46 50 48 52 53 51 48 41 37 42
58 58 57 57 57 57 56 57 53 59 60 60 56 54 53 51 56 56 59 56 59 57 53 55 50 51 54 56 56 52 55 50 46 41 45 50 45 49 50 48 41 42 45 48
58 57 57 57 57 57 56 57 51 55 50 52 55 56 56 52 51 57 59 55 57 55 50 51 50 52 53 56 54 55 54 47 49 50 52 51 50 50 51 47 49 42 50 51
58 57 57 57 56 56 58 53 54 55 54 56 55 51 51 52 53 53 53 53 56 57 51 53 50 54 52 51 52 52 52 44 46 44 52 50 47 51 52 51 52 51 52 51
58 57 57 57 57 56 58 59 60 56 49 53 52 49 51 51 54 54 56 56 55 51 51 55 56 57 57 54 51 50 49 45 43 38 47 45 40 48 49 51 53 52 46 54
57 57 57 57 57 56 59 58 57 54 49 53 53 54 55 53 52 51 54 56 53 53 58 57 53 52 53 53 51 54 47 45 43 37 40 28 47 55 55 51 54 55 55 56
57 57 57 57 57 57 58 58 56 52 49 54 53 53 53 53 52 51 53 52 53 57 53 47 45 44 44 48 49 48 50 45 39 34 35 43 49 53 51 46 48 55 53 55
56 56 56 56 56 57 58 56 56 53 51 49 57 52 52 49 47 45 47 50 51 53 51 47 35 37 42 40 41 46 48 47 40 31 29 29 46 52 56 53 39 52 54 53
56 56 55 56 56 56 56 56 58 55 51 53 53 50 49 52 48 46 43 46 47 50 43 38 34 37 41 37 38 36 38 38 35 35 32 40 52 53 55 37 41 51 52 52
55 55 55 55 55 55 55 54 57 53 50 51 53 54 49 48 48 46 45 44 45 42 39 40 39 37 41 37 42 39 39 34 34 37 32 29 54 52 44 50 52 53 53 51
54 55 55 55 55 55 55 52 55 56 49 49 54 56 58 57 55 50 47 47 48 49 43 42 40 37 39 41 37 44 37 45 41 41 39 51 53 52 55 55 56 55 54 53
54 54 55 55 55 55 54 50 51 50 47 47 47 51 57 60 57 60 48 48 53 50 51 45 42 38 41 37 39 45 45 51 45 45 48 50 55 58 51 51 50 50 50 49
54 55 55 55 55 55 54 51 51 51 47 43 48 58 55 57 58 58 58 53 53 51 49 43 41 39 46 40 43 40 45 47 44 44 49 52 53 53 50 47 46 46 46 47
54 54 54 54 54 54 54 53 52 53 48 42 45 52 56 57 57 55 56 54 51 46 42 41 39 42 41 41 41 39 46 44 40 40 49 48 49 51 47 46 45 45 43 38
54 53 53 53 53 53 51 46 51 52 52 45 37 52 49 51 51 53 53 52 49 47 43 41 42 46 43 37 36 43 49 50 51 48 50 49 50 50 47 43 43 42 40 40
54 53 53 53 53 51 47 45 47 49 52 44 38 41 47 48 50 48 47 48 45 45 42 40 41 41 43 39 36 45 49 50 50 51 49 46 44 38 39 39 37 36 35 35
53 53 53 52 51 49 46 46 48 50 47 45 34 37 40 45 42 41 46 42 43 42 42 42 40 41 41 34 42 45 47 48 47 46 43 40 38 35 35 35 34 31 32 34
53 52 51 49 46 44 44 48 49 48 46 38 36 34 34 43 43 43 43 44 37 43 39 40 41 38 33 39 42 43 45 43 40 35 34 34 34 34 32 32 32 32 30 33
51 49 46 39 42 47 47 46 42 39 40 39 36 41 37 41 42 38 37 38 35 32 36 40 34 35 43 44 45 44 43 38 38 34 33 33 33 32 31 31 31 32 34 34
46 42 38 42 47 43 42 35 36 37 34 37 37 38 37 41 36 35 36 34 34 29 33 33 32 31 37 43 42 40 38 38 38 38 37 36 34 32 33 33 36 35 33 31
46 42 44 42 39 36 33 33 33 33 33 36 35 35 38 37 39 36 34 33 33 28 33 29 28 32 41 40 39 38 37 37 38 37 35 34 36 38 37 36 33 32 32 32
45 39 35 35 34 29 26 26 30 31 33 32 34 33 36 36 37 34 33 31 29 33 28 28 30 35 38 38 37 35 34 35 34 32 33 35 36 36 34 32 33 32 31 31
37 34 29 29 27 29 31 32 33 32 32 33 35 33 34 34 33 33 29 32 30 26 23 23 31 35 37 36 36 34 31 32 32 32 32 31 32 31 32 32 32 30 29 29
34 34 27 30 32 32 29 31 31 31 34 34 33 33 34 31 31 32 31 28 24 27 24 28 32 35 35 34 33 33 32 31 31 32 31 31 31 30 29 30 30 29 28 28
34 33 32 29 30 31 27 29 31 32 35 33 33 31 29 29 30 28 27 26 23 27 28 30 28 33 34 33 33 32 33 32 32 31 32 31 29 29 29 30 29 28 27 22
32 32 34 31 29 32 31 32 32 36 33 27 32 27 24 27 27 26 27 25 29 31 28 29 29 28 29 32 33 32 32 32 31 30 31 30 30 29 26 23 22 21 26 22

GFSNW_sfc_temp_009.txt.gz
Temp
58 58 58 58 59 58 54 48 47 61 64 51 47 43 51 54 54 58 57 56 53 50 50 50 47 46 50 56 54 49 51 46 40 43 49 52 49 49 47 40 39 38 35 39
58 58 58 58 58 57 47 46 49 64 61 42 41 48 52 53 52 53 55 54 55 56 52 47 49 48 55 56 53 50 52 46 37 40 45 48 45 48 49 47 43 39 36 40
58 57 57 57 57 57 48 46 46 51 50 50 47 48 50 49 54 54 56 55 57 54 50 52 48 48 52 55 55 52 54 48 44 38 41 46 43 46 48 46 38 39 41 44
58 57 57 57 57 57 49 46 44 47 42 47 48 49 49 47 49 54 56 53 55 52 47 48 47 49 51 55 54 53 51 44 45 47 49 49 48 48 48 45 45 42 46 47
58 57 56 56 56 56 49 45 45 47 45 49 48 46 45 47 48 50 51 50 51 51 45 49 48 50 50 50 52 50 50 43 45 42 48 47 46 48 48 48 49 45 46 48
57 57 56 56 56 54 46 48 49 48 46 46 44 43 45 48 50 52 53 52 50 47 48 52 52 53 52 52 50 47 46 43 40 36 43 44 41 46 47 46 48 48 43 51
57 57 56 56 56 54 48 48 47 45 42 45 46 49 49 48 48 48 50 51 48 50 55 53 52 51 52 51 48 50 44 42 40 33 37 28 45 50 53 49 50 50 51 52
56 56 56 56 56 56 49 48 46 44 41 45 47 48 47 47 45 46 46 47 48 50 49 44 41 40 42 43 44 44 46 41 36 32 32 39 45 47 47 45 45 49 48 49
56 56 56 56 56 56 51 48 49 45 43 43 50 46 46 41 38 40 43 46 47 47 46 42 32 31 38 36 38 45 45 42 38 27 26 26 42 47 52 50 39 50 50 48
55 55 55 55 56 55 52 50 51 47 42 45 47 43 44 46 41 38 39 41 44 47 42 38 34 35 38 34 35 34 35 35 32 31 29 36 47 50 51 36 39 50 51 50
55 55 55 55 55 55 53 51 52 48 44 45 49 49 44 43 43 40 42 43 44 43 41 36 34 34 37 35 38 37 35 30 31 32 28 27 49 48 41 45 47 50 52 52
54 55 55 55 55 55 55 49 51 52 47 46 49 51 52 51 50 45 43 44 44 45 38 37 36 34 34 35 33 41 36 41 37 38 37 48 49 48 48 49 47 45 44 47
54 54 55 55 55 55 54 50 50 49 46 46 46 47 54 57 57 58 45 46 49 46 48 44 41 39 38 33 35 36 40 46 40 42 44 45 47 46 47 48 46 45 45 46
54 55 55 54 55 55 55 50 51 51 47 42 46 55 50 55 57 56 56 52 51 50 48 42 40 40 45 38 38 37 42 41 40 40 46 46 46 46 45 45 44 43 42 41
54 54 54 54 54 54 54 52 51 52 48 42 43 50 53 55 55 54 55 53 49 45 42 40 37 41 42 41 37 33 41 41 37 36 44 43 43 47 45 43 43 43 41 37
53 53 53 53 53 54 51 46 49 52 52 45 36 48 47 50 52 51 51 51 48 46 42 39 42 45 43 35 36 41 42 45 47 43 44 46 46 42 41 40 39 38 37 37
53 53 53 53 53 50 46 45 47 50 52 44 37 39 45 48 49 47 46 47 45 44 42 40 41 41 42 38 33 41 43 44 45 43 43 40 38 38 36 37 36 37 37 38
53 53 53 52 51 49 46 46 49 50 47 45 34 36 40 46 41 41 45 42 43 42 41 41 40 40 40 35 39 40 42 43 42 38 39 40 36 34 35 35 35 31 30 31
52 52 51 49 46 43 43 48 49 48 46 37 35 34 34 44 42 42 42 43 36 42 39 39 41 38 34 38 39 42 42 42 41 34 34 33 33 34 33 33 32 29 30 32
51 48 44 38 42 47 48 44 41 39 40 39 36 40 35 41 40 37 37 37 34 32 36 40 35 35 41 42 43 42 41 39 37 32 31 33 33 34 34 29 34 35 33 33
45 40 37 42 47 43 39 35 35 37 34 37 37 38 34 39 36 34 37 33 34 29 33 34 31 29 35 41 39 36 34 37 36 35 34 35 34 33 35 34 35 32 32 30
45 42 43 42 37 35 32 32 33 33 32 35 35 35 38 36 37 35 34 32 32 27 34 30 27 31 39 38 36 35 36 35 36 35 34 33 34 33 33 32 31 31 31 30
44 38 34 32 33 28 27 25 29 30 32 33 34 33 35 35 37 34 33 30 28 31 28 26 28 34 37 36 36 35 34 35 35 34 34 34 33 34 33 31 31 30 29 29
36 33 29 26 24 26 24 25 27 30 30 32 34 31 33 32 33 32 28 32 29 24 23 23 30 33 35 35 35 35 32 32 31 31 31 30 30 30 30 30 30 29 28 28
33 32 23 25 27 28 22 24 26 27 30 32 30 32 31 31 30 32 29 25 24 24 23 27 29 33 33 33 33 33 32 31 30 30 29 29 29 29 28 28 28 28 27 27
33 32 29 30 29 28 24 25 23 29 28 27 28 30 28 28 30 27 26 26 21 25 26 26 22 32 33 32 32 32 31 30 30 29 29 29 28 27 27 28 27 26 26 22
32 31 30 25 28 29 28 28 27 32 29 23 27 23 21 24 26 22 24 23 26 26 25 24 26 28 30 31 32 31 31 30 29 28 29 29 29 27 25 24 21 19 25 21

GFSNW_sfc_temp_012.txt.gz
Temp
58 58 58 58 58 57 52 47 46 56 59 47 45 44 49 50 49 53 52 55 52 49 50 48 45 44 47 54 55 49 48 42 36 41 47 50 47 47 45 39 37 35 34 39
58 58 58 58 58 56 46 44 46 58 56 45 41 49 50 49 49 52 53 50 54 54 50 45 47 48 54 54 52 50 52 43 35 37 42 46 44 47 47 45 41 37 35 40
58 57 57 57 57 57 47 45 45 49 48 47 46 47 47 48 54 53 55 53 55 52 48 50 46 47 52 53 53 52 53 45 42 39 41 45 42 46 46 45 37 38 38 40
58 57 57 56 56 56 48 44 44 46 45 48 46 49 49 47 48 53 54 52 53 51 45 47 45 47 49 53 53 51 51 43 43 46 46 46 46 46 46 43 42 41 41 44
58 57 56 56 56 56 46 44 44 45 44 46 44 43 43 46 48 50 50 47 49 50 46 47 46 49 48 48 52 49 50 43 45 42 46 46 44 46 46 46 46 45 44 47
57 57 56 56 56 54 44 45 47 46 44 43 42 42 45 47 50 50 51 50 49 47 48 51 52 53 52 51 50 48 47 45 42 37 42 44 40 43 44 42 44 46 41 47
57 56 56 56 56 53 46 45 45 44 41 43 44 47 47 47 47 47 47 50 48 48 50 51 52 50 49 49 46 48 44 41 38 35 36 29 42 47 50 46 46 47 48 49
56 56 56 56 56 56 47 46 45 43 39 43 44 46 45 45 45 44 45 45 45 46 47 42 40 40 41 43 43 44 44 40 35 33 32 38 43 46 46 45 42 46 47 47
56 55 55 56 56 56 49 46 47 43 42 42 48 44 43 39 38 39 42 45 46 46 44 41 32 31 37 36 37 43 42 41 38 28 27 28 40 47 49 47 36 46 47 46
55 55 55 55 55 55 51 48 48 46 41 43 44 42 43 42 39 37 38 41 43 45 40 35 31 34 38 34 34 34 34 33 31 31 28 34 44 48 48 36 36 44 45 45
55 55 55 55 55 55 53 48 49 47 42 43 46 47 43 42 41 40 41 42 42 40 38 36 37 34 36 34 36 35 34 29 29 30 27 26 46 45 40 43 44 45 46 46
54 55 55 55 55 55 55 49 50 50 46 45 47 48 49 48 48 43 40 42 41 43 40 38 36 33 32 33 32 37 35 39 35 36 35 45 44 46 47 48 46 44 43 45
54 54 55 55 55 55 54 47 47 47 44 44 46 46 51 55 53 53 43 43 47 46 46 39 38 37 36 32 32 34 38 42 39 41 41 43 45 44 45 45 45 46 44 43
54 55 55 55 55 55 55 50 50 49 45 40 45 53 49 54 54 54 54 51 51 50 47 42 41 40 41 35 38 36 40 41 39 38 42 42 42 44 44 44 43 41 41 40
55 54 54 54 54 54 53 51 51 51 46 41 43 48 51 52 55 54 54 53 49 46 42 41 39 41 41 36 35 35 38 39 37 36 42 42 41 42 44 42 41 43 42 36
53 53 53 53 53 54 51 46 50 51 51 44 35 46 45 50 52 51 50 50 47 45 43 40 41 44 39 34 35 40 40 42 45 42 43 43 41 41 39 40 38 37 37 35
53 53 53 53 52 49 46 44 46 50 51 43 36 39 45 47 48 46 46 47 45 45 42 40 40 41 42 35 33 39 41 42 42 41 42 39 38 38 37 37 38 39 38 39
53 52 52 51 51 49 46 46 49 50 47 45 34 36 39 46 41 41 45 42 43 43 41 41 40 40 40 34 37 38 41 40 40 39 39 39 35 34 36 36 36 33 31 30
52 52 52 49 46 43 43 48 49 48 46 37 36 34 33 44 41 42 42 43 37 42 39 39 40 36 34 37 37 38 40 40 39 35 35 34 30 34 35 34 34 31 29 30
51 49 44 38 42 47 48 44 41 39 40 39 36 40 36 41 40 37 37 37 34 33 36 40 35 35 39 40 41 41 41 40 37 31 29 31 27 32 34 34 34 31 31 30
45 40 37 41 47 43 38 34 34 36 34 38 38 39 36 41 35 34 37 33 33 27 30 33 31 29 34 39 38 36 33 36 36 35 34 34 34 34 33 35 32 32 31 30
45 42 43 42 38 35 33 32 32 33 28 35 35 36 37 36 38 34 34 32 32 27 35 31 27 31 38 38 35 34 34 35 35 35 33 33 34 33 32 32 31 30 31 30
43 38 34 34 33 28 27 24 27 28 32 33 34 33 35 36 37 34 33 30 28 33 28 24 27 33 35 34 34 33 31 32 31 31 31 32 32 32 31 31 30 30 28 28
36 33 29 28 26 27 26 24 25 29 31 34 34 33 33 34 33 33 30 31 31 25 23 21 30 34 34 33 33 33 31 32 32 31 31 31 30 30 30 30 29 27 26 27
33 32 27 25 24 27 22 23 27 29 34 34 32 30 31 30 30 31 30 26 24 24 23 26 29 33 33 32 32 32 32 31 30 30 29 29 29 28 27 28 27 27 27 27
33 31 25 28 31 27 20 17 29 30 32 28 27 30 27 27 27 27 24 23 21 26 25 25 21 31 33 34 34 33 32 30 30 29 29 29 28 27 27 27 25 26 26 21
32 29 29 25 26 28 26 26 25 33 27 23 24 18 19 28 23 18 23 24 28 27 25 24 26 29 32 34 33 32 31 30 29 29 29 28 29 26 25 23 21 18 24 20

GFSNW_sfc_temp_015.txt.gz
Temp
58 58 58 58 58 57 51 44 43 53 57 47 47 44 48 49 49 52 50 53 50 48 47 45 44 43 47 52 53 47 46 43 37 39 44 47 44 45 43 37 35 33 32 37
58 58 57 58 57 55 45 42 45 53 52 44 44 46 47 49 48 51 52 51 53 53 49 43 44 47 50 53 52 51 50 40 33 35 41 43 41 44 44 42 40 34 33 38
58 58 57 57 57 56 46 42 43 44 45 46 49 45 45 45 52 51 53 51 53 49 46 48 43 45 51 53 52 53 53 43 39 37 39 43 39 43 43 43 36 36 36 39
58 58 57 56 56 56 47 42 43 44 41 45 48 49 48 46 47 51 52 49 49 50 45 45 44 47 49 53 53 50 50 42 43 42 44 43 44 44 44 42 41 40 40 42
58 57 57 56 56 55 45 42 42 43 41 45 45 46 45 46 47 49 46 46 49 50 46 46 45 48 47 48 48 47 48 41 42 39 43 43 41 44 44 43 42 42 43 43
57 57 56 56 56 53 43 43 45 45 43 42 41 43 46 48 49 49 50 50 48 45 46 50 50 50 50 50 49 46 46 42 39 35 39 40 38 42 43 42 44 45 41 46
57 56 56 57 56 52 45 44 44 43 41 41 43 45 46 46 47 46 47 49 49 49 52 52 53 52 50 48 46 47 44 41 40 35 37 30 43 48 48 46 45 48 48 48
57 56 56 56 56 55 46 45 44 42 39 41 43 43 42 44 45 44 45 45 45 46 47 44 41 40 44 44 43 44 45 41 36 34 33 38 42 46 44 44 41 46 47 47
56 55 55 56 56 55 47 45 45 42 41 42 45 43 41 40 39 40 42 44 45 46 43 41 33 32 37 35 37 43 43 43 40 30 30 30 41 47 49 48 36 45 45 44
55 55 55 55 55 55 50 46 47 45 40 41 42 42 42 42 40 38 37 40 42 44 39 34 31 34 38 34 35 34 36 36 34 33 32 36 45 47 48 36 37 43 44 43
55 55 55 55 55 55 51 47 48 46 41 41 45 46 42 41 40 39 40 42 42 38 37 35 34 34 37 35 36 36 35 30 31 31 29 30 44 43 40 42 42 45 44 44
55 54 55 55 55 55 54 47 49 48 45 44 46 47 48 47 46 41 39 41 40 42 37 35 34 33 32 34 32 36 35 39 36 36 35 43 43 45 45 46 45 44 42 43
54 55 55 55 55 55 54 49 49 47 43 44 44 44 50 52 50 51 42 41 45 43 44 39 37 36 35 32 33 33 37 40 38 39 39 41 43 43 44 44 44 43 43 42
54 55 55 55 55 55 54 48 48 48 44 40 44 51 47 51 51 51 50 48 47 46 44 41 38 38 38 34 37 36 39 40 38 38 39 40 41 42 43 43 42 41 41 39
54 55 54 54 54 54 51 50 50 50 47 42 43 47 48 49 51 50 51 49 46 42 40 40 40 41 41 37 36 35 38 39 37 36 42 41 40 42 43 41 41 40 40 36
54 54 53 53 54 54 50 44 49 50 50 44 35 46 45 47 49 48 47 46 44 42 41 40 41 44 41 33 29 39 39 41 43 41 41 42 42 41 38 39 38 36 36 36
53 53 53 53 52 49 45 42 45 50 51 43 37 39 45 47 48 46 46 47 44 44 42 40 41 41 41 35 33 39 40 41 41 40 42 39 39 37 35 36 35 38 34 35
53 53 52 52 51 49 45 46 49 50 47 43 34 36 38 46 41 41 45 42 43 42 41 41 40 40 39 31 36 36 39 40 39 38 37 37 34 33 33 34 35 35 33 33
52 51 52 49 46 43 44 49 50 48 44 37 35 34 33 43 41 42 42 42 37 42 39 39 39 37 32 35 36 37 39 39 38 34 34 34 31 31 34 35 34 33 32 29
51 49 43 38 42 48 48 44 42 38 40 40 36 38 35 41 40 37 37 36 35 33 36 40 36 35 39 37 39 40 40 40 36 31 30 29 31 28 30 33 35 35 32 30
45 40 37 41 47 43 39 34 35 36 34 38 38 38 35 40 35 34 36 33 32 29 33 34 31 26 30 35 34 35 34 37 36 36 34 33 32 32 32 32 35 32 30 29
45 42 43 42 37 34 33 33 32 33 29 34 35 36 38 36 38 34 34 31 31 27 33 31 24 27 34 35 32 33 34 35 35 34 34 32 33 33 32 32 31 30 30 29
43 39 36 35 33 28 28 25 28 28 30 34 34 33 36 36 37 34 33 29 29 31 29 26 26 30 34 33 33 32 32 34 33 32 32 33 32 32 31 31 30 29 28 28
35 32 28 29 27 27 27 23 26 28 33 35 35 32 34 34 33 34 30 29 31 23 14 19 27 31 32 32 33 34 33 32 32 32 32 31 30 30 30 30 29 28 26 27
32 32 28 27 22 24 22 25 31 31 36 35 32 32 31 31 30 30 29 26 24 25 19 23 28 32 32 33 33 33 31 31 30 29 29 29 29 28 28 28 27 26 27 26
32 30 24 28 23 27 27 26 30 32 34 32 30 27 27 27 28 27 27 23 18 22 24 24 20 30 32 33 33 33 32 30 30 29 29 29 28 27 27 26 25 25 25 21
31 30 30 22 18 26 29 30 32 35 36 28 25 20 21 28 24 21 22 21 25 24 22 22 26 28 30 32 34 33 32 31 29 28 29 28 28 26 24 23 21 19 23 20

GFSNW_sfc_temp_018.txt.gz
Temp
58 58 58 58 58 57 50 43 41 53 55 44 46 44 46 48 49 51 49 49 49 43 43 44 44 42 47 55 54 48 46 40 38 39 44 47 43 43 42 36 32 30 30 36
58 58 58 58 57 56 44 41 42 54 52 42 42 47 47 49 48 49 49 49 52 51 44 40 45 47 52 54 53 49 48 38 32 34 39 41 40 41 42 40 37 31 32 37
58 58 58 57 57 56 45 41 39 46 47 47 46 44 45 45 50 49 52 52 54 48 44 48 44 45 50 53 53 52 52 40 38 35 37 42 38 41 41 41 33 34 34 38
58 58 58 57 56 56 46 40 41 42 42 45 47 48 47 46 45 51 52 50 49 47 41 44 43 44 48 51 51 50 51 40 39 41 44 42 42 42 41 40 40 39 40 41
58 57 57 57 56 55 44 40 40 42 45 47 47 45 45 45 46 47 47 48 49 50 47 46 42 45 45 44 47 49 49 41 42 39 42 41 40 42 41 40 40 39 40 41
57 57 56 56 56 53 43 42 43 47 45 45 45 44 45 47 49 47 48 49 48 45 47 49 49 49 49 50 49 46 46 43 39 33 38 38 37 41 40 40 41 43 39 44
57 56 56 56 56 53 47 43 43 42 42 44 44 46 47 46 47 44 45 47 48 49 52 51 53 52 49 47 45 47 43 41 38 33 34 27 40 42 45 43 43 44 45 46
56 56 56 56 56 55 46 44 43 42 38 40 41 43 44 45 43 43 45 46 47 51 49 43 42 42 45 43 42 43 45 42 36 34 33 38 40 42 43 43 39 44 46 46
56 56 56 55 56 55 47 44 44 42 41 40 43 41 42 42 40 41 41 43 45 47 45 42 35 33 38 38 37 43 43 43 41 32 31 32 40 46 49 49 36 46 47 44
55 55 55 55 55 55 49 45 46 43 39 41 41 41 42 43 41 39 39 41 42 44 39 35 34 34 38 35 36 35 35 34 33 33 31 35 44 46 47 37 38 44 45 44
55 55 55 55 55 55 51 46 46 45 40 41 44 44 41 41 41 42 42 43 42 39 38 35 34 34 36 34 35 35 35 30 31 31 28 30 44 44 41 42 42 45 44 44
55 55 55 55 55 55 54 46 48 47 43 43 46 46 46 45 46 42 40 41 40 42 37 36 35 34 33 34 33 36 36 40 37 37 36 43 41 43 44 46 44 43 43 43
54 55 55 55 55 55 54 50 48 45 43 43 43 43 49 51 48 49 43 40 43 42 42 37 36 36 34 32 33 33 36 39 38 39 39 41 43 44 45 45 45 44 43 43
55 55 55 55 55 55 54 50 50 49 45 40 43 49 45 50 49 49 48 47 45 44 42 40 38 38 37 34 37 36 38 39 37 37 37 40 41 42 44 44 43 41 40 39
55 55 55 55 54 54 52 50 50 50 48 42 43 48 48 48 49 48 49 47 44 40 39 42 39 40 39 34 34 34 37 38 37 36 41 41 40 43 43 42 40 40 39 35
53 54 54 54 54 53 50 44 49 49 49 44 36 46 46 49 50 48 46 44 42 40 39 36 38 41 38 32 30 38 38 40 42 41 40 40 40 40 38 38 36 35 36 35
53 53 53 53 52 48 43 42 45 49 49 43 37 38 45 47 48 46 46 47 44 43 41 38 38 40 40 34 29 39 38 40 40 40 41 38 36 37 35 36 35 38 34 34
53 53 52 52 51 49 43 46 50 49 46 43 33 35 40 46 41 41 44 42 44 42 41 41 39 40 40 34 36 35 38 38 37 36 36 37 34 33 33 34 36 35 35 35
52 51 51 49 45 43 44 49 50 45 44 36 35 33 31 44 41 42 41 42 37 42 39 39 40 37 33 37 37 37 38 39 36 33 34 33 31 33 34 35 34 33 34 34
51 48 44 38 42 48 48 43 40 39 39 40 35 36 36 39 39 36 37 37 35 33 37 40 36 34 39 37 38 40 39 38 34 31 28 31 31 32 31 30 31 31 32 33
45 40 37 42 47 43 36 34 36 35 33 38 37 36 35 40 35 34 35 32 32 28 32 34 29 28 31 34 34 35 34 36 35 35 34 35 35 32 32 31 31 32 34 31
44 42 43 42 37 35 29 28 31 33 32 35 36 36 37 36 38 34 32 31 25 27 34 32 22 27 33 33 30 30 33 35 35 34 35 33 34 33 32 32 31 31 30 29
43 39 35 36 33 27 29 27 28 26 29 34 34 33 36 36 37 32 30 29 28 32 29 30 27 27 32 31 31 31 32 34 34 33 33 33 33 32 31 31 30 29 28 28
35 32 28 31 27 29 30 25 26 27 33 35 36 33 34 35 33 33 29 30 31 25 22 20 23 29 31 31 31 32 33 33 33 33 32 30 30 30 29 30 29 28 27 27
32 32 29 28 23 25 22 25 31 32 37 35 33 32 33 30 30 29 24 26 24 27 19 24 26 30 31 31 31 32 32 31 30 29 29 29 29 28 28 28 27 26 26 26
32 30 26 27 24 25 27 29 31 33 36 33 33 29 27 26 27 26 20 18 16 21 22 22 23 29 31 32 32 32 32 31 30 29 29 29 28 28 27 26 25 25 25 21
31 29 30 22 17 22 29 31 33 35 35 27 26 25 26 28 25 25 22 20 23 22 21 24 27 29 30 31 33 33 32 31 30 28 29 28 28 26 24 23 20 17 22 19

GFSNW_sfc_temp_021.txt.gz
Temp
59 58 58 58 58 56 50 42 38 53 55 43 42 39 42 46 46 47 44 48 44 39 42 40 42 40 45 51 52 43 47 43 37 43 46 50 48 45 45 39 35 34 36 40
58 58 58 58 58 56 43 39 45 53 51 39 39 43 44 47 46 46 46 47 50 47 44 38 41 43 52 52 50 45 47 39 33 36 42 43 44 44 44 42 40 34 36 41
58 57 58 57 57 55 45 39 39 46 47 46 43 44 44 44 49 48 50 49 49 44 44 45 41 43 48 51 53 53 52 41 39 34 37 43 40 42 42 46 37 37 38 43
58 57 57 57 56 55 46 39 39 43 38 42 43 45 45 44 44 48 51 48 47 45 39 42 41 44 46 51 53 51 50 41 41 41 44 44 43 43 42 42 45 43 45 41
58 57 57 57 56 55 44 39 38 39 43 46 45 43 43 44 45 46 47 47 49 46 42 44 41 44 47 47 48 48 47 40 42 38 41 42 41 43 44 44 41 43 43 43
57 57 56 56 55 53 42 41 41 42 45 45 43 45 44 45 47 47 47 49 47 43 45 48 48 51 50 51 47 44 45 41 39 35 39 41 38 41 41 43 42 47 41 50
57 56 56 56 55 54 48 42 42 39 41 44 45 47 45 46 45 45 45 47 47 47 50 51 54 52 49 52 45 48 44 43 41 35 36 29 42 44 46 45 43 45 45 46
57 56 56 56 56 54 48 43 43 40 41 44 44 45 43 44 44 42 43 44 45 49 48 47 43 42 43 43 43 43 44 44 38 35 33 38 40 43 42 43 41 46 44 44
56 56 56 56 56 55 49 44 44 42 42 43 46 43 44 39 38 41 39 43 46 47 45 42 35 34 37 37 40 44 43 45 42 32 32 32 42 46 49 48 38 46 46 45
56 55 55 55 55 54 50 45 46 43 41 42 40 40 43 44 39 37 41 43 43 45 42 37 35 35 39 35 35 37 37 35 35 35 34 37 46 47 49 38 41 45 46 45
56 55 55 55 55 54 51 47 46 45 41 40 42 43 41 43 43 40 41 45 43 41 41 38 36 37 37 36 38 37 37 33 33 32 31 33 46 45 43 44 43 45 45 46
55 55 55 55 55 54 53 47 47 46 43 43 44 45 45 45 46 42 39 41 40 42 37 35 35 33 33 35 34 37 37 41 38 38 37 42 42 44 44 46 44 44 45 45
55 55 55 55 55 55 54 50 46 44 42 44 43 42 47 50 47 48 43 41 43 41 41 37 35 36 35 33 33 34 36 40 37 39 40 40 42 44 45 46 45 45 45 45
55 55 55 55 55 55 53 49 50 47 43 41 43 49 45 49 48 48 48 46 44 43 42 38 37 36 36 34 36 36 38 40 37 35 37 41 42 42 44 42 43 42 41 42
55 55 55 55 54 54 52 50 50 50 48 42 43 48 48 47 48 47 48 46 44 40 40 38 37 37 36 34 34 34 37 38 37 37 42 41 42 43 43 42 41 41 39 37
54 54 54 54 54 53 50 46 49 49 49 44 37 46 45 48 48 46 45 43 41 40 38 35 38 43 39 31 31 38 38 39 42 41 40 39 39 40 40 39 38 38 39 38
53 53 53 53 53 49 45 42 45 50 49 43 36 38 45 47 47 45 46 46 44 42 39 37 37 38 40 36 29 39 38 39 38 39 41 38 37 38 37 37 36 38 34 35
53 53 53 52 51 50 45 48 50 49 45 43 33 35 40 46 41 41 44 42 43 42 41 41 40 40 40 34 38 36 37 37 37 36 35 39 35 33 33 34 37 35 35 37
52 52 51 49 46 43 45 50 49 47 46 35 35 33 32 44 41 42 41 42 37 41 39 39 40 37 31 37 35 35 35 38 35 33 33 33 33 32 33 34 35 32 31 33
51 48 44 39 42 49 48 43 41 38 39 40 34 36 36 40 39 36 37 37 35 33 37 40 36 35 39 39 40 41 39 37 35 33 32 33 32 33 33 31 31 32 31 33
45 40 37 42 47 43 37 34 31 35 30 38 37 36 35 39 35 34 36 32 32 30 33 34 31 30 32 34 35 36 35 37 37 38 36 36 36 31 31 31 31 31 31 34
44 42 43 42 37 33 29 26 33 32 28 36 36 35 36 36 34 34 33 27 22 19 34 32 27 28 32 32 31 33 35 35 35 35 34 34 34 33 33 32 31 31 31 31
44 40 35 35 32 28 24 26 28 29 32 34 34 33 36 35 32 27 26 20 20 30 28 29 28 28 31 30 30 30 33 34 33 32 32 33 32 32 31 31 31 30 29 29
35 32 30 31 28 29 27 26 27 29 33 35 35 33 34 34 28 32 29 27 30 24 21 19 24 28 30 29 30 30 30 32 32 32 32 32 31 31 30 31 30 29 28 28
32 33 29 28 25 26 21 24 31 33 38 35 33 29 32 30 30 32 29 26 24 27 20 23 25 29 30 30 31 32 31 31 31 29 30 30 30 29 29 28 27 27 27 26
32 30 26 27 24 25 27 27 32 33 37 33 31 24 22 24 26 26 18 21 20 22 23 23 24 30 31 31 32 32 31 31 30 29 29 30 29 29 28 26 25 25 25 21
31 28 29 23 17 24 29 29 33 36 34 28 25 24 24 25 20 24 21 20 24 24 24 25 27 31 31 32 32 32 31 30 29 28 28 28 28 26 25 23 20 17 22 18

GFSNW_sfc_temp_024.txt.gz
Temp
59 59 59 59 59 56 52 51 43 53 54 40 41 36 41 44 45 47 43 46 47 46 47 45 45 45 50 58 56 44 50 54 45 41 50 57 58 52 53 46 43 49 50 54
59 58 58 58 58 56 49 51 48 53 52 39 37 42 42 44 42 44 42 41 51 52 48 43 45 50 57 56 55 52 54 50 42 42 47 49 48 52 57 56 53 49 47 53
58 58 57 58 57 56 51 50 42 46 46 47 43 40 39 39 47 45 45 46 53 50 48 52 46 47 53 56 57 54 55 52 51 44 49 53 46 49 53 54 49 51 52 57
58 57 57 57 57 55 50 50 48 49 39 42 43 43 45 40 41 47 48 44 48 50 45 47 46 51 52 53 54 54 54 49 52 55 54 54 53 50 52 50 54 51 56 54
58 57 56 56 56 55 48 49 47 48 50 50 48 42 43 44 44 46 45 45 49 54 47 48 47 50 51 49 54 54 55 50 51 48 50 53 51 54 54 53 56 57 57 56
58 57 56 56 56 54 47 48 51 51 50 50 45 44 45 46 47 46 49 54 53 52 54 57 61 61 60 58 53 51 53 52 49 46 48 48 44 52 53 55 58 58 52 61
56 56 56 56 55 54 52 49 54 49 47 50 45 47 45 45 46 45 48 56 55 54 59 60 61 59 58 59 56 58 53 52 50 45 47 33 54 54 60 56 59 60 60 58
54 56 56 56 56 54 51 47 52 50 47 52 44 46 44 43 43 42 44 44 48 55 55 51 44 41 42 43 49 47 52 50 42 42 43 50 50 50 51 51 54 57 58 57
55 56 56 56 56 55 50 48 53 52 47 50 49 44 49 45 40 40 40 45 48 52 52 48 37 34 37 35 41 47 46 46 44 40 38 38 52 53 58 58 49 56 57 55
56 55 55 55 55 54 51 49 54 52 47 50 48 50 49 52 45 38 39 41 44 47 45 42 40 38 46 37 36 38 40 41 38 38 37 48 52 54 57 46 51 55 57 56
54 55 55 55 55 54 52 49 53 53 48 49 48 50 49 49 49 41 42 42 42 41 40 41 41 44 45 44 48 45 43 40 41 40 37 39 55 52 52 53 55 55 55 55
53 55 55 55 55 54 53 48 52 52 50 48 50 51 52 50 51 48 44 49 46 46 41 44 44 43 43 47 42 46 44 52 50 50 49 49 51 52 53 58 55 54 54 54
52 55 56 55 55 55 54 49 49 50 49 49 49 49 54 54 52 55 52 49 51 49 51 47 44 44 47 44 45 45 46 48 49 47 47 48 50 51 54 56 54 54 54 53
53 56 56 55 55 55 54 50 50 52 50 46 46 54 51 54 53 53 54 53 52 52 53 49 47 46 45 46 47 48 49 49 47 43 45 48 50 53 53 51 52 51 51 52
53 55 55 55 55 54 53 51 51 51 51 45 45 51 52 54 54 52 53 53 52 52 50 49 47 45 45 42 46 46 49 50 50 51 53 54 53 53 52 51 50 51 48 46
54 54 54 54 54 53 50 46 49 50 50 47 40 49 48 52 53 52 51 50 49 48 48 44 46 47 47 43 45 50 51 51 52 54 56 50 55 53 53 51 49 49 50 49
54 54 53 53 53 50 46 46 48 50 50 44 37 40 47 49 50 50 51 51 48 49 45 45 46 46 48 45 45 51 50 51 49 51 50 46 50 48 49 48 46 45 44 45
54 53 53 52 52 50 47 50 51 51 46 44 34 37 41 48 44 44 48 47 49 46 45 46 46 44 46 39 49 47 48 47 47 46 46 52 47 45 43 43 42 40 41 42
53 52 51 49 47 44 46 50 50 50 48 37 37 35 35 45 42 43 43 44 39 43 42 44 45 43 37 46 48 46 45 47 44 40 40 41 39 35 35 37 39 39 39 40
51 50 45 40 44 49 49 48 47 40 41 42 39 42 37 41 40 37 39 38 36 34 38 42 37 39 47 46 48 50 47 44 42 36 33 34 33 34 36 38 41 42 41 39
46 41 39 43 47 45 41 37 39 38 35 41 41 42 38 43 37 36 38 35 35 33 36 36 35 35 41 43 43 44 42 43 45 47 46 45 43 40 39 39 40 40 40 39
45 43 44 43 39 37 35 34 34 34 33 37 37 39 41 38 40 37 35 33 33 30 39 34 32 39 38 40 40 41 42 43 43 45 44 44 44 43 42 41 39 39 40 39
45 41 37 38 34 30 30 28 30 32 35 35 35 34 38 38 40 33 35 31 31 37 32 32 37 36 37 37 38 38 42 41 41 40 40 41 39 40 41 40 40 40 39 38
36 33 32 33 30 33 32 34 34 36 35 36 37 34 36 37 36 36 31 32 33 28 25 28 36 36 36 36 36 39 38 39 38 38 39 39 39 38 39 39 39 38 37 36
33 34 31 32 29 28 28 31 34 35 39 37 35 35 37 33 32 36 31 28 27 30 29 34 36 36 36 35 36 38 37 37 38 39 39 38 38 38 37 37 36 37 36 35
32 31 28 29 29 27 30 32 33 35 39 37 37 31 30 28 32 28 26 27 26 32 34 35 35 36 37 37 38 38 38 39 38 38 37 37 37 37 36 34 34 34 34 32
32 29 32 29 29 29 31 34 35 38 38 33 33 32 30 31 27 27 29 28 33 33 32 34 36 36 36 37 37 37 37 37 37 36 36 35 34 33 33 33 29 29 30 28

GFSNW_sfc_temp_027.txt.gz
Temp
55 59 59 59 59 58 53 47 40 55 53 40 41 37 41 43 42 45 43 43 41 41 48 47 48 45 52 59 57 43 47 46 35 38 49 56 57 51 56 50 47 53 54 52
55 57 59 59 59 56 50 44 47 52 51 36 37 43 41 42 42 43 42 39 44 50 51 45 50 52 59 59 55 48 53 50 36 36 46 51 49 55 56 58 56 51 50 53
54 55 58 58 57 56 52 46 41 46 46 47 43 40 39 38 45 43 45 42 49 49 51 55 49 51 56 58 58 54 55 52 51 46 49 51 48 52 56 55 50 53 55 57
54 54 58 57 57 56 50 44 46 51 39 41 42 43 42 40 37 43 45 42 45 49 47 49 49 53 54 57 56 54 54 49 54 56 58 56 54 52 53 53 55 52 58 58
54 54 57 57 57 55 48 42 46 53 48 48 45 42 41 40 41 43 40 41 45 54 50 52 49 53 54 51 56 55 55 50 54 52 55 56 53 55 55 55 56 57 59 60
53 53 56 56 56 54 48 47 50 52 52 53 50 47 44 45 46 46 49 45 48 52 56 61 63 62 62 60 54 52 51 50 49 47 53 52 46 55 56 57 60 59 53 62
52 53 55 56 56 56 53 50 50 45 46 54 54 50 47 45 45 44 49 52 51 60 59 57 56 62 60 61 58 59 51 50 49 45 50 36 56 60 62 60 62 64 63 66
52 53 53 56 56 55 52 49 48 48 48 55 55 47 45 43 43 43 50 52 54 64 54 48 45 43 45 46 53 57 59 54 46 42 44 52 56 55 56 56 56 65 63 66
51 52 53 56 56 55 52 49 50 47 50 53 54 45 49 41 40 42 45 51 55 57 53 44 36 34 38 36 40 47 53 56 48 45 38 37 54 57 62 63 50 67 67 64
51 52 55 55 55 55 52 49 51 48 49 56 53 46 46 51 43 39 42 47 50 53 49 42 40 38 43 35 36 38 37 41 41 40 40 48 57 59 62 47 51 60 64 64
51 51 52 55 55 55 52 49 50 50 53 54 53 53 53 52 49 42 41 43 45 44 43 44 47 45 47 46 46 45 38 35 35 38 35 36 59 55 52 55 58 60 62 61
51 51 52 55 55 54 54 48 51 56 52 51 54 55 56 53 50 44 42 43 45 46 42 45 49 47 48 50 42 54 45 52 48 48 48 53 60 56 58 61 59 59 59 58
50 52 53 55 55 55 54 49 49 50 49 51 51 51 56 58 55 54 44 45 48 45 48 45 46 46 53 46 49 51 52 53 54 52 53 53 55 55 58 61 59 60 59 57
51 52 53 55 55 55 54 49 49 52 55 48 49 57 54 58 57 55 57 52 56 52 49 46 45 46 49 49 51 53 53 52 52 50 49 51 53 57 58 57 57 55 56 57
51 52 52 55 55 55 54 51 50 53 52 48 47 54 55 57 57 55 56 58 56 54 49 50 48 48 48 48 49 50 53 53 50 52 58 57 56 57 57 54 53 54 52 51
51 52 54 54 54 53 51 46 49 51 53 51 41 51 51 55 57 56 54 53 54 54 53 49 50 50 51 46 46 56 57 58 56 56 60 58 57 56 57 54 53 54 53 52
51 52 53 53 53 52 47 45 48 51 51 46 40 42 48 52 54 53 54 55 50 53 50 49 50 49 50 48 46 55 56 57 55 56 56 53 54 52 56 54 52 52 52 51
51 53 53 52 52 50 47 50 51 50 46 44 34 38 43 50 46 45 50 49 51 48 48 48 49 47 49 41 52 55 55 54 53 53 53 57 55 53 50 49 47 45 46 46
53 52 52 50 48 45 46 50 51 50 46 37 38 36 36 47 43 45 45 48 43 47 46 47 47 48 38 45 51 52 52 51 49 46 47 47 44 40 41 43 45 45 44 45
51 51 45 40 44 50 50 49 48 44 41 43 42 48 38 43 41 38 40 39 38 35 40 45 40 41 51 51 53 56 53 52 44 37 34 35 35 35 37 43 46 47 44 43
46 41 39 43 48 47 44 37 41 40 37 43 43 48 39 44 38 37 39 36 36 34 38 38 38 39 45 49 49 52 51 48 49 52 48 47 44 42 43 43 44 44 44 42
45 44 45 44 40 37 35 36 36 34 36 40 40 42 45 41 42 38 37 34 36 31 42 36 34 43 43 44 46 48 48 48 48 50 49 49 47 47 45 44 42 43 42 41
45 42 36 39 35 32 31 29 32 33 37 36 37 36 40 41 41 36 37 32 34 41 33 33 40 39 42 43 43 44 45 45 46 45 46 46 43 45 44 42 43 43 42 41
36 33 32 34 31 35 36 39 38 40 37 37 38 36 37 41 38 39 32 35 36 30 28 31 41 41 41 42 42 42 41 42 41 41 41 40 41 41 43 42 43 42 40 37
33 35 32 32 32 31 33 36 36 38 41 39 38 38 39 35 33 38 32 29 28 32 32 38 40 40 40 39 40 39 38 39 40 42 41 40 41 40 39 39 40 40 38 37
32 33 31 31 31 29 31 33 34 38 42 40 41 34 33 30 34 30 29 30 29 35 38 37 39 39 40 40 40 39 39 40 41 41 41 40 40 39 37 37 37 36 36 34
32 31 37 34 34 33 33 37 36 43 41 36 37 33 32 34 29 30 35 32 37 37 37 40 40 38 39 40 38 37 39 40 39 39 39 37 37 37 36 33 30 31 33 30

GFSNW_sfc_temp_030.txt.gz
Temp
54 53 54 56 59 58 54 47 40 52 53 40 40 36 41 46 42 44 41 41 39 38 40 38 42 42 49 56 48 40 43 39 34 36 45 51 50 48 47 40 40 43 42 40
53 54 54 55 58 57 50 44 45 52 51 35 36 41 42 43 40 40 39 39 41 43 40 37 45 48 56 56 50 44 45 39 33 34 41 48 44 49 50 50 48 42 38 40
53 54 54 55 57 57 51 44 40 44 45 45 42 39 40 40 44 41 42 41 43 41 40 47 46 48 54 55 55 52 50 43 37 34 40 45 44 46 50 47 40 42 43 44
53 52 53 53 56 56 50 44 43 47 37 39 41 43 42 39 36 42 43 39 40 41 40 43 47 50 52 54 54 52 46 42 45 48 49 49 49 49 49 46 48 42 47 50
53 52 52 52 56 55 48 41 42 47 47 46 42 41 40 40 41 40 39 39 41 45 42 48 46 50 50 47 52 49 49 42 48 48 51 52 48 50 50 50 51 50 50 50
52 52 52 52 54 54 48 47 49 48 47 46 43 43 43 43 45 44 46 43 44 42 48 56 57 57 57 55 49 46 44 44 44 38 48 47 40 48 49 50 53 52 47 54
52 52 52 53 55 55 52 49 48 43 39 45 47 51 50 46 45 43 45 47 45 52 59 57 58 56 55 56 53 54 46 43 44 37 41 28 46 52 55 54 56 56 57 58
52 52 51 52 53 55 52 49 48 45 40 46 46 51 46 44 44 43 46 48 54 57 51 44 40 42 44 45 46 49 51 47 38 34 36 45 48 50 49 49 51 57 55 58
52 51 51 52 55 55 52 49 51 46 42 42 52 47 45 41 41 42 44 50 52 52 47 43 33 33 38 36 40 47 48 50 43 35 32 30 44 51 57 55 41 52 57 56
52 51 51 52 52 55 52 50 52 47 42 49 50 45 44 46 43 39 42 46 47 49 44 39 36 37 42 35 36 36 40 41 37 38 34 39 49 51 54 39 42 52 55 55
52 51 51 52 53 55 53 49 51 48 45 48 51 50 46 47 45 42 43 44 45 43 42 41 42 39 40 40 42 40 38 35 34 37 34 31 52 50 45 48 50 52 52 52
52 51 51 52 53 55 54 48 50 51 46 48 52 54 55 53 50 45 42 43 44 46 41 41 44 42 42 42 37 49 39 43 38 40 41 50 51 48 51 54 52 51 49 49
52 51 51 53 53 55 54 49 49 48 46 48 48 49 55 56 54 53 44 43 47 46 45 44 43 41 44 39 40 45 47 51 45 44 47 49 51 49 50 53 52 51 51 50
52 52 51 52 52 55 53 49 50 50 48 44 46 56 51 56 54 52 50 48 50 47 47 44 43 42 45 43 44 45 46 48 45 44 45 47 47 49 51 50 50 50 50 50
51 51 51 52 52 55 53 51 50 51 48 44 45 52 53 55 55 52 51 48 50 48 44 44 42 44 44 43 44 43 47 47 45 44 51 50 47 51 51 49 48 48 49 46
50 50 51 52 52 54 51 46 50 51 51 47 39 50 49 51 54 52 52 51 50 49 47 45 46 47 44 38 39 51 51 52 52 50 51 51 50 50 51 49 48 47 46 46
49 50 50 51 53 52 47 45 48 52 51 45 38 40 47 50 50 49 49 51 47 46 45 44 44 43 44 42 39 49 50 50 50 52 51 46 47 46 49 48 48 48 45 44
49 50 51 53 52 51 47 49 51 51 46 44 34 37 41 48 44 42 46 45 46 44 43 44 43 42 43 37 46 49 49 48 48 46 48 49 48 46 43 43 43 41 40 40
50 50 52 50 48 45 46 50 50 49 46 37 36 35 35 46 42 44 43 43 40 44 44 44 42 41 35 42 46 47 46 45 43 41 42 42 40 38 38 39 40 39 38 38
50 50 45 40 44 49 49 46 43 40 41 41 38 44 37 42 41 38 40 39 37 33 38 40 38 38 45 47 47 48 46 42 40 36 35 36 35 36 37 39 39 40 38 37
46 42 39 44 50 46 42 37 38 38 34 40 41 43 38 43 37 36 37 34 34 33 35 36 35 36 40 43 44 44 42 42 41 42 39 40 38 38 40 38 39 39 38 36
45 43 45 43 40 37 35 34 34 35 32 39 38 40 41 37 40 35 35 33 33 31 37 34 33 35 39 41 41 42 43 43 44 43 42 41 42 41 40 38 37 36 36 36
44 41 37 37 34 32 30 28 30 32 36 36 36 35 37 36 37 32 31 30 30 35 33 32 33 33 37 37 39 38 42 44 45 44 44 42 39 39 39 36 37 37 35 35
36 33 31 34 31 31 32 32 33 34 36 36 36 35 35 35 32 31 24 30 31 27 25 24 31 33 35 40 37 37 38 41 40 39 38 38 38 36 37 36 37 35 33 32
32 34 32 32 32 31 32 34 35 36 40 37 35 34 34 31 28 31 30 28 23 27 26 29 32 34 34 35 36 38 38 39 39 38 37 36 35 35 33 34 33 33 31 31
32 32 30 31 31 29 32 33 34 37 40 36 34 31 28 29 29 26 21 22 22 27 28 28 29 33 35 37 37 38 39 39 38 38 36 35 34 33 31 31 30 30 29 29
32 30 34 33 33 31 33 35 35 43 39 33 32 27 25 32 29 22 26 26 28 26 26 28 31 32 35 37 37 37 37 37 37 34 33 32 32 31 28 25 25 26 27 26

GFSNW_sfc_temp_033.txt.gz
Temp
53 53 53 54 55 57 54 47 41 51 52 40 39 36 39 46 44 45 42 40 38 37 38 36 35 37 43 50 48 40 43 38 32 36 44 47 44 42 44 37 37 37 35 37
53 52 53 53 54 54 49 45 44 51 50 35 35 40 41 44 43 42 39 37 40 41 38 35 38 42 51 51 47 42 43 36 31 35 40 43 39 45 46 44 43 39 34 37
53 53 53 53 53 53 51 45 39 44 45 45 40 38 39 38 46 44 41 39 41 39 38 41 38 41 49 50 49 51 49 42 35 33 36 44 40 44 45 44 38 38 38 40
53 52 53 52 53 53 50 45 42 45 37 39 41 41 40 38 38 42 42 37 39 39 37 37 37 43 48 51 50 47 45 36 39 39 41 42 46 45 44 44 44 40 41 44
54 53 53 52 52 54 49 41 42 45 42 44 40 40 39 39 42 39 37 36 39 40 38 41 39 44 45 44 46 43 44 39 42 41 46 47 45 48 47 46 49 47 46 45
54 52 53 52 52 51 48 47 47 47 45 43 40 39 39 41 45 46 44 41 40 39 42 47 50 53 51 51 48 44 44 41 39 37 43 45 40 46 47 47 47 49 42 50
54 52 53 52 52 52 50 49 47 42 40 43 43 45 44 43 45 42 46 44 42 50 52 50 52 49 53 53 50 50 41 42 42 37 40 29 45 49 52 49 50 50 52 56
53 52 53 51 52 53 49 49 48 44 40 45 45 44 43 44 45 44 45 46 51 50 47 40 39 41 42 41 45 43 46 43 37 33 32 40 45 48 47 46 46 52 53 54
53 52 53 51 52 52 51 49 50 47 42 41 47 43 44 41 40 41 43 49 50 49 43 38 30 32 34 33 39 46 46 45 42 35 29 29 44 49 52 50 39 49 50 50
53 52 53 51 51 52 51 49 52 47 42 47 47 42 42 45 43 40 41 45 46 48 39 35 33 34 39 34 35 37 39 40 37 36 34 36 49 51 52 39 41 48 49 50
52 52 52 51 51 53 52 48 51 49 44 47 50 49 44 45 44 41 42 43 45 43 39 39 37 38 40 37 39 39 36 36 36 37 33 32 49 47 43 46 46 46 45 45
52 52 52 51 52 53 53 47 51 51 47 46 51 52 52 51 49 45 42 42 43 45 42 42 41 40 38 37 35 41 37 42 38 41 42 47 46 46 49 52 49 45 44 45
52 52 52 51 52 53 54 48 49 49 45 46 46 45 53 54 51 52 44 44 47 45 44 43 41 40 41 36 38 39 43 46 42 42 46 47 48 48 49 50 48 47 48 46
51 52 52 51 51 52 53 49 50 50 47 42 44 53 49 54 52 51 50 48 49 48 45 43 42 40 42 39 42 42 45 46 44 42 43 44 46 47 48 47 48 46 46 46
51 51 51 50 51 52 53 51 50 52 48 43 43 49 50 52 51 50 49 48 46 46 44 44 41 44 43 42 41 41 46 45 42 42 49 48 47 48 48 48 46 46 45 43
51 50 50 50 51 51 51 45 50 51 50 45 38 49 47 49 50 48 46 47 46 47 46 44 45 47 45 39 39 49 50 49 51 50 49 48 47 48 48 47 46 46 45 45
50 50 50 50 50 50 47 45 48 52 51 44 37 39 46 50 50 47 47 49 46 46 44 42 43 43 44 41 37 49 48 48 47 48 50 45 45 43 46 46 45 45 42 42
49 49 50 50 51 50 47 49 51 52 47 44 34 37 41 48 43 40 43 43 44 43 42 42 41 42 42 36 44 45 46 45 45 45 46 47 45 44 42 43 43 40 39 39
48 49 50 49 48 45 46 50 50 49 46 38 36 35 34 46 41 43 41 41 39 41 41 41 41 40 34 42 44 44 44 44 40 40 42 43 41 39 39 39 38 37 36 36
50 47 45 40 45 49 50 46 43 41 41 41 38 43 37 42 40 37 37 38 36 33 38 40 38 38 44 43 46 47 45 41 41 38 35 36 36 37 37 37 38 39 38 38
46 42 39 45 49 46 42 37 37 38 35 39 41 42 38 43 37 36 37 33 34 33 34 36 34 35 39 42 41 41 41 41 41 41 39 40 41 40 38 36 37 37 36 35
45 44 45 44 40 37 35 34 34 34 33 37 38 39 40 39 40 36 34 32 32 30 35 33 31 36 38 38 37 37 39 40 39 40 39 40 40 40 39 37 36 34 34 34
45 41 37 37 34 32 30 29 29 31 35 34 35 34 36 36 34 30 30 28 27 33 32 30 32 34 36 36 36 37 39 40 41 40 41 41 39 40 38 34 34 34 33 32
35 32 31 33 30 32 33 29 29 32 35 36 36 33 31 32 31 30 21 32 29 23 24 23 29 32 34 38 35 36 36 40 40 39 39 38 38 35 35 34 34 34 32 30
32 32 31 32 31 31 32 32 35 35 38 37 34 32 31 25 25 28 30 27 24 25 25 28 29 31 34 35 34 37 37 38 38 39 37 36 35 34 31 32 32 32 31 30
32 30 29 31 30 29 32 33 34 35 38 34 32 30 25 26 23 24 17 20 20 26 28 25 27 31 32 32 34 35 38 38 37 37 35 34 33 32 29 29 30 29 29 27
31 28 32 31 28 29 32 34 34 40 33 29 30 22 23 28 21 17 21 21 26 26 23 25 29 31 32 34 37 37 37 36 35 34 32 31 30 30 29 25 24 25 26 25

GFSNW_sfc_temp_036.txt.gz
Temp
56 55 53 53 54 54 53 48 36 50 53 39 38 35 41 45 42 45 42 42 39 37 38 36 36 34 40 47 46 36 41 37 31 35 46 48 43 40 38 32 31 33 35 38
55 55 53 53 53 53 46 44 44 50 51 33 34 40 40 44 42 41 41 39 41 41 37 34 37 38 46 47 46 41 43 35 29 32 38 42 38 41 40 37 37 35 34 37
55 55 54 53 53 53 48 45 37 43 45 44 39 37 38 38 45 44 44 40 41 38 37 39 37 37 45 47 48 50 49 39 34 30 35 37 35 37 37 33 35 36 36 37
55 55 54 53 52 52 49 45 40 43 36 37 41 42 42 38 38 44 45 37 38 37 35 36 36 38 42 47 49 47 45 36 39 37 36 38 38 39 42 41 44 39 39 44
55 55 53 53 52 52 48 42 42 45 43 44 41 41 39 39 42 41 38 37 38 38 36 39 36 39 42 43 45 43 44 37 38 34 41 42 41 45 45 45 47 46 46 45
54 54 54 53 51 51 47 46 47 46 42 42 39 39 40 40 43 45 46 41 38 37 39 45 45 45 45 47 45 42 41 39 37 33 41 43 38 42 44 44 46 47 43 45
54 53 54 53 51 51 46 47 47 43 39 41 41 43 43 42 43 40 46 45 40 46 52 48 46 46 45 48 48 47 40 39 40 35 38 30 47 49 49 49 49 48 50 49
54 53 53 53 52 52 47 48 46 43 39 44 44 44 43 44 45 43 44 46 49 53 47 38 37 40 42 40 45 46 46 40 37 33 31 38 43 45 44 45 47 48 50 50
53 53 53 53 52 52 49 48 49 47 42 41 49 43 44 40 40 40 43 47 49 50 41 36 29 31 32 33 36 41 42 42 39 34 27 27 41 47 49 48 38 47 47 47
53 53 53 53 52 51 49 49 50 47 43 47 47 42 42 45 42 39 41 43 45 48 40 32 28 33 36 32 34 36 35 37 32 34 34 35 45 49 49 37 40 45 46 47
52 52 52 53 52 51 49 49 50 49 44 47 50 48 45 44 44 39 42 43 42 41 38 34 37 34 36 34 36 39 38 32 31 34 33 29 46 47 41 46 43 43 42 42
52 52 52 53 52 51 51 47 51 52 47 46 51 51 52 51 50 44 43 41 41 43 39 38 39 38 35 35 30 40 36 39 35 38 37 46 44 45 47 49 46 42 41 42
51 52 52 53 52 51 50 48 49 49 46 46 45 47 52 53 51 51 43 44 46 45 45 43 42 40 38 35 34 34 39 43 39 41 45 44 44 45 46 48 45 45 44 44
52 52 52 52 51 51 51 49 50 49 47 41 45 52 48 53 51 50 50 48 49 48 46 43 42 41 41 39 40 39 43 45 43 40 44 42 44 46 47 45 46 44 44 44
51 51 52 51 50 50 49 50 50 52 48 42 43 49 50 51 50 49 49 48 47 46 44 42 40 43 41 40 39 38 45 45 43 43 50 48 47 47 46 45 43 43 42 40
51 51 51 51 50 49 47 45 50 51 51 44 37 48 48 47 48 47 46 47 46 45 45 44 43 45 42 37 37 48 49 50 53 50 48 46 46 46 46 45 44 44 43 43
50 50 50 50 50 47 46 45 47 52 51 44 37 39 46 49 49 46 46 47 46 45 44 43 43 43 45 40 36 47 47 49 47 48 48 45 44 44 44 45 44 44 42 42
49 49 49 50 50 49 46 49 52 52 47 45 34 37 41 48 43 41 44 43 44 43 42 42 41 41 41 35 43 44 44 45 44 43 45 46 44 43 41 43 43 40 38 38
49 49 50 47 45 45 46 50 50 49 47 38 36 35 34 45 41 43 41 42 39 42 40 41 40 38 35 42 44 43 43 44 40 39 41 42 40 38 39 40 39 38 36 36
50 47 43 40 45 50 50 47 43 41 41 41 38 42 38 42 40 37 38 38 36 33 38 40 37 37 42 43 43 44 44 41 40 38 35 36 36 37 37 38 38 39 38 36
45 42 39 45 50 47 42 37 37 38 35 40 41 42 38 43 37 35 36 34 34 32 33 36 34 34 37 39 40 41 42 41 39 41 41 42 41 39 36 36 36 36 36 38
45 44 45 44 40 37 35 34 34 34 33 38 38 39 41 39 40 37 34 33 33 31 34 33 31 35 35 36 36 36 38 39 39 39 40 40 40 40 38 37 36 35 36 36
45 41 38 38 34 32 32 30 30 31 34 35 36 35 38 37 37 30 30 27 30 33 31 30 32 32 34 34 35 35 37 38 37 37 38 39 38 39 38 35 36 37 35 32
35 32 32 33 30 33 33 31 30 32 34 35 37 34 35 35 33 31 25 30 30 22 20 26 29 31 33 34 34 36 35 37 38 38 38 38 37 36 37 37 36 35 31 29
32 32 31 32 31 31 32 30 34 35 38 36 34 33 31 25 25 28 30 27 25 25 26 28 28 31 33 32 33 34 35 36 38 39 36 35 35 33 31 32 32 32 30 30
32 31 30 31 31 30 32 33 33 35 37 31 31 28 22 22 24 22 19 21 21 27 27 23 23 30 34 33 33 35 37 38 37 37 36 35 34 32 29 29 29 28 29 27
31 28 32 31 30 30 32 33 34 38 34 29 27 24 25 24 20 20 21 22 26 24 23 23 27 29 30 32 33 34 35 35 35 34 31 30 30 30 28 24 22 25 25 25

GFSNW_sfc_temp_039.txt.gz
Temp
55 55 55 55 53 53 50 45 35 50 52 37 38 35 40 45 42 43 40 41 39 37 38 36 35 35 38 44 42 35 38 34 25 32 44 45 44 37 36 29 29 32 30 32
55 55 55 55 53 53 46 41 43 50 49 31 33 39 39 43 40 40 40 38 41 42 38 34 37 39 45 47 41 37 40 34 26 30 37 42 37 39 40 37 36 31 29 34
55 55 55 54 54 52 47 40 34 42 44 43 38 37 37 37 44 42 44 41 42 39 37 39 35 38 43 45 45 49 47 37 32 29 35 38 33 36 38 34 31 34 34 40
54 54 54 54 53 53 47 43 38 40 33 38 41 39 40 38 37 43 45 39 40 38 33 35 36 38 41 44 47 46 43 34 38 39 41 38 34 34 35 33 36 33 39 41
54 54 54 53 53 52 45 42 41 44 41 43 41 40 37 38 40 42 39 37 39 40 35 37 36 39 40 39 41 42 42 36 37 34 40 36 34 38 36 35 36 36 38 44
54 54 53 53 53 50 42 46 46 45 42 41 39 39 40 40 45 44 45 43 41 37 39 42 46 45 41 40 39 39 40 38 36 31 37 37 35 37 42 42 45 46 42 45
53 54 53 53 53 51 45 45 44 43 38 41 40 42 43 42 43 40 45 45 41 44 48 47 45 43 42 42 42 46 40 40 38 32 35 28 44 48 49 46 47 49 50 51
53 53 53 53 53 53 46 47 45 43 39 42 42 43 43 44 45 42 43 46 49 49 45 38 34 36 36 39 42 44 47 41 35 32 32 38 42 46 44 42 43 47 50 49
52 53 53 53 53 53 48 47 49 45 39 40 47 43 43 40 40 41 43 47 49 48 42 37 28 29 32 32 35 41 43 45 38 31 30 26 39 44 47 46 39 48 47 47
52 52 52 53 53 52 48 47 50 46 42 45 47 41 42 45 42 39 41 43 43 47 38 31 28 32 35 32 34 35 36 37 34 34 32 34 43 46 48 36 39 45 46 46
52 52 52 53 53 52 48 46 49 47 44 45 49 48 44 44 43 39 41 41 42 41 37 32 32 32 34 33 35 36 34 31 30 34 30 27 46 47 41 45 43 42 42 42
51 52 52 53 53 52 51 46 51 51 47 46 50 52 52 51 49 45 43 41 41 40 39 35 36 34 33 33 30 36 34 37 34 35 35 44 43 43 45 46 45 41 39 40
51 52 53 52 53 52 50 46 49 49 46 46 45 46 52 53 52 53 42 44 46 44 42 39 38 38 36 31 33 32 37 41 38 40 41 43 45 44 44 45 42 41 42 41
51 52 52 52 52 52 50 46 50 49 47 40 43 51 48 52 51 50 50 47 49 47 45 42 42 39 40 36 38 37 39 41 40 39 42 42 44 45 44 43 43 43 43 42
51 51 51 51 51 50 48 47 50 51 47 42 43 48 50 50 49 48 48 48 47 46 44 43 41 43 41 38 38 36 41 41 40 40 47 47 45 46 45 44 43 43 42 40
50 50 51 51 51 50 45 45 50 51 51 44 37 48 47 47 48 47 46 46 46 45 45 43 44 44 43 36 35 47 46 46 49 48 48 45 44 44 45 43 43 42 41 41
50 50 50 50 50 46 43 44 46 52 51 44 37 39 46 49 47 46 45 46 45 45 44 43 43 42 42 38 34 46 45 47 45 45 46 43 44 43 44 44 43 43 40 40
50 50 50 50 50 48 45 49 51 51 47 45 34 37 41 47 43 42 44 44 44 43 43 43 42 42 42 36 42 42 42 42 43 42 43 46 43 42 40 42 42 39 37 37
49 49 50 47 45 43 46 50 51 49 47 38 36 34 34 45 42 43 42 42 39 42 40 40 40 38 35 42 44 42 42 43 41 39 40 41 40 39 39 39 38 37 35 35
49 47 42 39 45 50 49 47 44 41 42 40 38 42 38 42 40 38 38 38 36 33 37 38 37 37 41 42 41 42 44 41 40 38 34 36 35 36 37 37 37 39 37 36
45 41 40 45 50 46 42 37 38 38 35 40 41 42 38 42 37 36 37 34 34 32 32 36 33 32 36 38 40 40 41 41 41 42 41 41 41 38 36 35 36 37 36 36
43 43 45 44 40 37 36 34 34 35 33 38 38 39 41 39 40 37 35 33 33 31 33 34 31 33 35 36 36 36 39 40 40 39 39 39 39 39 37 37 36 35 35 36
45 40 38 37 34 33 33 30 32 32 32 36 36 34 38 37 38 33 32 28 32 32 30 29 31 31 34 34 34 34 36 38 38 38 39 39 37 39 38 35 36 36 34 34
35 32 32 33 32 33 33 32 29 32 34 36 37 34 35 35 34 32 26 31 30 26 19 23 28 30 32 33 33 34 33 35 34 35 37 37 37 35 36 36 37 36 33 31
32 32 31 32 31 32 32 32 34 35 37 33 35 33 35 31 30 28 30 28 25 25 26 25 26 30 31 31 31 32 33 34 34 35 34 34 35 33 32 34 33 33 31 30
32 31 27 31 31 31 32 33 33 35 36 34 35 31 31 30 25 23 21 21 22 28 27 22 20 29 30 30 31 32 33 34 34 35 35 35 33 32 29 30 30 29 29 27
30 24 29 27 30 30 32 33 34 39 35 33 26 25 27 24 22 20 22 23 27 23 22 22 25 29 29 30 31 32 33 34 34 34 31 31 31 32 30 25 24 25 25 24

GFSNW_sfc_temp_042.txt.gz
Temp
54 55 55 56 55 53 49 44 36 50 52 37 33 34 39 44 40 43 41 41 37 35 36 35 37 34 36 42 40 35 41 35 27 30 41 43 41 37 36 28 26 31 30 30
54 54 55 55 55 54 45 41 42 50 48 31 33 39 39 42 39 39 39 38 40 40 37 32 38 40 46 45 40 35 40 33 22 26 33 40 36 40 40 37 34 29 26 32
54 54 54 55 54 54 46 40 36 38 43 42 38 37 37 35 42 41 42 39 41 38 37 40 36 37 44 44 43 47 45 36 29 24 30 37 32 35 38 34 29 31 32 35
53 54 54 54 54 53 46 41 37 39 32 35 40 41 40 36 36 41 43 38 39 39 34 36 35 38 39 44 44 45 41 31 34 36 39 40 36 35 36 33 34 30 37 37
53 53 54 54 53 52 44 40 40 42 40 40 39 40 36 38 38 38 38 36 41 41 36 38 36 39 38 37 39 38 39 33 37 35 40 37 33 36 36 36 36 36 37 36
53 53 53 54 53 50 41 43 45 44 41 40 37 37 39 40 44 43 44 43 41 38 41 44 45 45 43 41 40 37 36 34 35 30 38 34 32 38 41 37 37 37 34 40
53 53 53 53 53 52 45 44 43 42 36 40 40 42 43 41 41 40 45 45 42 45 48 45 44 42 43 41 39 42 36 35 37 32 34 28 40 45 45 43 46 42 45 47
52 52 53 53 53 53 46 46 44 43 38 43 42 42 42 43 44 43 44 46 48 48 44 37 34 35 36 37 41 40 41 39 34 31 32 36 42 44 43 41 43 48 48 47
52 52 53 52 53 53 47 46 48 45 41 40 46 42 44 40 40 41 43 47 48 46 41 36 30 28 31 31 35 39 40 42 36 33 29 26 39 44 45 46 37 47 48 47
52 52 52 52 53 53 48 46 48 45 41 44 46 42 41 45 42 39 41 42 42 46 38 31 30 33 35 31 33 34 34 37 34 32 32 33 42 45 46 34 39 44 44 46
52 51 52 52 53 53 48 46 48 46 41 43 46 47 43 43 43 38 41 39 41 40 37 34 31 31 35 33 35 35 33 32 29 31 32 26 44 46 41 45 45 44 44 44
51 52 52 53 52 53 51 44 50 51 45 44 49 50 51 52 50 45 42 41 41 43 38 34 34 32 32 32 30 35 33 37 33 35 35 44 43 44 45 46 45 42 40 39
51 51 52 52 52 53 50 45 47 48 46 44 44 45 50 53 51 52 42 44 45 43 41 37 37 36 35 31 32 33 36 40 37 38 40 42 43 44 43 43 41 40 40 39
51 52 51 51 52 52 51 44 47 46 46 39 42 51 48 51 51 50 50 47 48 47 43 39 37 36 39 36 36 35 38 39 38 37 42 42 44 44 42 40 41 40 40 39
51 51 51 51 51 51 48 46 47 49 46 42 43 48 49 50 49 48 48 47 46 46 43 40 38 40 41 40 40 34 39 39 38 38 46 46 45 45 43 42 40 40 40 38
50 51 51 51 51 51 45 43 49 51 50 44 37 47 46 46 47 46 46 46 46 45 43 42 44 45 43 37 33 43 42 44 46 46 45 45 43 44 43 42 41 41 41 40
49 50 50 50 51 46 41 43 46 50 51 44 37 38 46 48 46 45 45 46 45 45 44 43 42 43 43 39 32 45 44 45 45 44 45 43 43 42 42 43 42 42 40 40
49 49 50 50 50 48 43 47 50 50 47 45 34 37 40 47 43 42 44 43 44 43 43 42 42 42 40 34 41 42 42 42 42 41 43 44 42 41 39 40 41 38 37 37
49 50 50 47 44 42 46 51 51 50 47 38 36 34 33 45 42 42 42 42 39 42 40 41 41 39 35 41 42 41 42 41 41 39 40 40 39 38 38 39 38 37 35 35
50 46 42 39 44 50 49 47 45 42 42 41 38 42 37 40 40 38 38 38 36 33 38 39 37 37 41 42 43 42 42 40 39 38 33 35 35 36 37 38 38 38 36 35
45 41 40 45 49 46 42 37 38 38 35 40 39 41 38 41 37 36 37 34 34 32 33 34 32 32 35 37 38 39 40 39 39 41 42 41 42 39 37 35 36 36 36 35
42 42 44 45 40 37 36 34 35 36 34 38 39 39 41 39 41 36 35 34 34 30 32 33 30 33 34 35 35 37 38 40 40 39 40 39 39 39 37 36 35 34 35 35
45 40 37 37 35 33 32 31 32 32 31 35 36 35 38 38 38 34 33 31 31 31 30 29 30 31 34 33 34 34 36 37 37 36 37 38 37 38 38 35 36 36 34 34
35 32 32 33 32 33 33 29 28 30 33 35 37 34 35 36 34 33 30 30 31 27 22 23 28 30 32 32 33 34 33 34 34 34 36 36 36 35 36 36 37 36 33 33
32 32 30 32 32 32 32 33 33 34 37 35 35 34 36 32 31 29 30 28 26 26 25 25 26 29 30 30 31 32 32 32 32 33 33 33 34 33 33 35 35 34 32 31
32 31 27 30 29 30 32 32 33 35 36 34 35 32 31 30 30 23 23 20 22 28 26 23 18 28 29 29 31 31 31 31 32 33 33 34 33 32 30 30 32 32 30 28
28 23 30 27 27 28 30 33 34 39 35 33 32 31 32 25 23 21 21 25 29 23 21 21 24 26 28 29 30 30 31 31 32 32 31 30 32 32 31 26 23 25 26 25

GFSNW_sfc_temp_045.txt.gz
Temp
54 54 54 55 55 55 49 41 35 50 51 37 35 33 37 43 40 43 41 40 37 35 36 34 34 34 37 43 41 36 41 35 29 32 39 43 40 36 36 27 26 30 30 30
54 54 54 55 55 55 45 37 40 50 48 31 33 38 37 42 40 39 40 38 40 39 36 32 39 40 45 43 40 35 40 34 25 26 34 38 36 38 40 38 35 28 25 32
54 53 53 54 54 54 46 37 33 38 43 41 37 36 36 36 43 41 42 39 40 37 36 40 36 39 44 45 43 46 45 35 28 24 30 36 31 35 38 34 29 32 32 35
54 53 53 54 54 53 45 41 37 39 32 36 38 40 38 36 37 41 41 37 38 36 32 36 36 40 41 43 44 45 40 32 34 36 37 37 36 36 36 32 34 30 37 38
54 53 53 53 54 53 42 36 38 41 39 41 39 38 37 36 37 38 36 35 40 39 35 37 36 39 38 39 40 40 41 33 35 33 40 40 33 37 37 37 37 35 35 35
53 53 53 53 53 51 41 42 43 41 39 38 37 37 37 38 40 40 42 40 38 37 41 45 46 45 44 43 39 35 37 35 33 29 38 36 32 37 39 39 39 38 34 40
53 53 53 53 53 52 45 43 41 38 36 38 38 40 41 40 41 39 42 43 40 44 48 46 44 43 42 43 41 43 38 34 36 32 34 28 41 45 44 42 45 42 42 44
53 52 53 53 53 53 46 45 42 41 37 41 42 41 42 43 43 42 44 45 47 48 44 37 34 34 35 37 39 39 41 37 34 31 31 37 42 41 42 41 42 45 45 47
53 52 52 52 53 53 47 45 47 43 40 39 45 40 44 40 39 41 43 46 48 46 40 35 29 25 30 30 33 38 37 40 35 33 29 27 41 45 47 44 38 48 47 48
53 52 52 52 53 53 48 45 48 43 39 42 45 40 41 45 42 40 41 42 41 45 36 33 31 31 34 29 31 33 33 34 32 33 32 34 44 47 45 36 40 48 48 48
52 52 52 52 53 53 49 44 48 44 43 43 46 46 43 44 44 39 40 39 39 39 34 34 33 30 32 33 35 34 33 32 32 33 30 27 43 45 41 46 46 46 46 46
51 51 52 52 52 52 52 42 48 49 45 43 47 48 50 50 51 45 42 41 40 41 37 34 35 32 33 34 30 36 32 36 32 34 35 44 43 45 47 47 45 44 42 44
51 51 52 52 51 52 51 44 45 45 45 42 43 44 48 52 52 53 42 43 46 43 42 39 37 36 36 31 31 33 36 39 36 38 42 42 45 46 45 43 42 42 41 41
51 51 51 52 52 52 51 44 46 44 44 38 41 50 47 51 51 50 50 48 48 47 45 40 38 36 38 34 35 34 37 39 38 37 42 42 45 44 44 41 41 40 40 40
51 51 51 51 51 51 49 46 46 47 43 41 43 48 49 49 49 48 48 47 45 44 43 41 37 38 38 37 39 33 38 39 37 39 45 45 45 43 43 42 40 41 40 38
50 50 50 50 51 51 45 41 47 48 49 44 37 47 46 46 48 47 46 46 46 45 44 43 43 43 41 38 37 42 41 42 46 46 45 45 43 44 44 42 41 41 40 40
49 49 50 50 50 45 40 42 45 49 47 44 38 39 46 47 46 45 45 46 45 45 44 43 40 41 42 38 33 44 43 44 45 44 45 43 43 43 43 42 42 41 40 40
49 49 50 50 51 48 43 47 49 49 47 45 34 37 40 46 42 42 44 43 44 44 43 43 41 41 39 36 41 42 41 41 41 42 43 43 41 41 39 40 40 38 37 37
50 50 50 47 44 41 44 51 51 50 46 38 36 34 34 44 42 42 42 42 39 42 40 41 41 39 35 40 41 41 41 41 41 39 40 40 40 38 38 39 38 37 36 36
50 46 42 38 43 50 50 48 44 42 42 42 38 41 36 40 40 38 38 38 36 33 38 40 37 37 41 41 41 40 41 40 39 38 34 36 35 37 37 38 39 39 37 36
44 41 39 45 49 47 42 37 38 39 35 40 41 38 38 40 37 36 37 34 34 32 34 34 34 32 35 37 38 39 40 40 40 40 42 41 41 39 37 36 36 37 36 35
42 41 44 44 41 37 36 34 35 35 34 38 39 39 41 38 40 33 35 34 33 29 32 33 30 34 36 35 35 36 38 39 38 38 39 38 39 38 37 36 35 34 34 34
44 40 36 37 35 33 32 30 32 32 35 35 36 35 38 38 39 34 34 32 31 34 30 30 30 33 35 33 34 34 35 37 36 36 37 37 37 38 37 35 36 36 35 34
35 32 32 33 32 33 33 29 28 30 33 35 37 34 35 36 34 33 32 32 32 27 25 22 29 30 32 32 32 34 33 35 35 35 36 36 36 35 36 36 37 35 33 33
33 32 29 32 32 32 32 33 33 34 37 35 35 34 36 33 32 31 30 27 26 26 25 26 27 29 30 31 32 32 32 32 32 33 34 34 34 34 33 35 36 35 33 32
32 27 26 28 30 31 32 32 33 35 37 34 34 32 31 30 27 24 25 22 23 28 26 24 19 27 29 30 31 31 31 31 31 32 32 33 33 32 30 32 32 32 31 30
30 27 31 27 29 30 31 32 34 39 35 33 33 30 28 26 24 21 23 26 31 24 21 21 23 25 28 29 30 30 30 30 30 31 30 29 30 31 30 27 25 26 27 26

GFSNW_sfc_temp_048.txt.gz
Temp
54 54 54 55 55 55 50 41 33 52 54 36 38 35 36 42 44 47 45 46 43 41 43 40 41 40 44 50 48 40 45 38 33 37 49 51 48 43 42 31 31 35 34 35
54 54 54 55 55 55 45 38 36 49 50 32 35 38 36 43 44 44 45 43 46 47 42 36 42 44 50 49 47 44 45 35 31 34 38 44 40 44 45 43 40 31 28 38
54 54 54 54 54 54 46 38 33 39 42 43 40 37 35 38 46 45 46 43 47 45 42 44 41 42 45 48 48 48 48 39 37 35 38 41 33 40 44 38 30 35 37 40
54 54 53 53 54 54 46 39 34 40 33 39 43 43 39 40 39 45 47 43 45 44 37 40 40 44 43 45 47 46 42 34 39 41 42 43 39 38 40 33 36 31 41 42
54 53 53 53 53 53 43 36 35 40 41 44 43 40 40 42 41 43 41 42 45 46 42 44 40 44 43 40 43 41 42 35 39 36 43 42 36 41 40 37 36 35 36 35
54 54 53 53 53 51 41 42 43 38 41 41 38 38 41 42 45 44 46 47 45 43 46 50 51 49 45 47 43 39 38 35 35 32 42 40 33 37 38 39 41 39 36 44
53 54 53 53 53 52 45 44 42 36 36 40 40 42 45 43 45 43 47 49 46 48 54 52 50 46 44 43 43 44 37 39 39 34 39 29 41 47 44 41 45 49 48 51
53 53 53 53 53 53 47 46 41 38 36 42 42 45 46 47 47 46 46 49 53 54 46 38 35 35 35 38 41 40 41 39 35 33 34 40 43 42 42 41 45 51 50 53
53 52 52 53 53 53 49 45 46 43 39 40 48 46 48 42 42 41 46 50 54 49 40 35 32 30 37 32 36 43 42 42 36 34 30 31 47 51 53 45 38 52 52 50
52 52 52 52 53 52 50 45 47 43 40 48 50 46 45 48 45 41 43 43 43 47 37 34 34 37 43 34 35 34 34 35 31 32 31 42 53 52 52 41 42 49 51 53
51 51 52 52 52 52 50 45 48 43 40 47 50 52 49 48 48 42 42 41 40 40 34 35 38 40 42 42 45 39 36 34 34 35 32 32 54 52 47 52 54 53 54 49
51 51 52 53 52 52 52 43 49 48 42 47 52 53 55 54 55 48 43 42 41 42 37 37 42 40 42 44 38 46 38 45 43 43 43 55 55 55 57 56 53 52 48 51
52 52 52 52 52 52 51 45 46 46 44 49 49 50 54 56 56 56 43 43 46 43 48 44 45 42 47 41 42 44 46 49 46 44 54 52 55 55 54 52 51 49 47 47
52 52 52 51 52 52 51 45 46 44 41 41 47 54 51 53 52 51 51 48 48 47 46 43 44 42 47 44 44 44 49 47 48 48 53 56 57 54 54 49 48 46 45 45
51 51 51 51 51 51 51 48 47 47 42 40 44 50 51 50 50 49 49 48 46 44 43 42 42 46 45 46 45 43 48 49 47 49 55 54 54 52 51 49 46 45 44 43
50 50 50 50 50 50 47 43 46 48 46 43 38 48 47 48 48 47 47 47 46 45 46 46 47 49 48 43 42 53 53 54 57 56 55 53 51 51 50 47 45 46 44 43
49 49 50 50 50 48 42 42 45 49 47 44 38 40 47 49 46 45 45 46 45 45 45 43 45 45 45 44 41 54 53 54 55 54 53 51 50 50 48 47 45 44 43 44
50 50 50 50 50 50 43 47 50 50 45 45 35 38 42 48 43 42 45 44 44 45 44 44 44 44 43 38 48 52 51 51 51 52 52 50 48 46 44 44 43 41 39 41
51 51 51 48 46 42 45 51 50 50 46 39 38 36 36 47 44 43 43 43 39 43 41 42 41 40 37 45 49 50 50 49 49 46 46 46 45 42 41 42 42 40 39 40
50 48 42 39 45 50 49 47 44 45 43 43 41 45 40 44 43 40 40 39 37 34 39 41 37 39 48 47 47 47 47 48 46 42 38 39 38 39 39 43 45 42 41 40
44 41 39 44 49 46 43 38 39 39 38 43 43 43 41 44 40 39 39 36 35 33 37 37 37 39 43 43 43 44 45 46 47 47 48 47 47 43 42 41 42 41 41 39
42 41 44 44 41 38 36 36 36 36 36 41 40 41 42 40 43 39 37 35 35 32 37 35 33 42 42 41 41 42 44 45 46 45 46 47 46 46 44 42 41 41 39 39
45 41 37 38 35 33 32 31 33 34 36 37 37 37 40 40 41 35 36 33 33 38 33 33 38 40 40 40 39 40 41 43 43 42 43 44 43 43 42 40 40 40 39 40
37 33 33 33 32 35 33 33 34 34 35 36 38 36 36 37 35 35 33 33 33 30 28 32 41 39 38 38 38 39 39 41 41 40 41 41 41 40 41 41 41 40 38 37
33 33 31 32 33 34 34 35 35 37 38 36 36 35 37 35 34 33 33 30 29 31 34 39 38 36 36 37 37 38 38 39 39 40 40 39 39 39 38 40 41 39 37 37
33 32 31 33 33 33 33 33 34 36 38 35 35 34 33 33 34 31 30 30 31 37 37 37 32 34 36 36 36 36 37 37 37 38 38 38 38 37 36 37 38 37 35 34
32 30 33 32 32 33 34 35 35 39 35 33 34 32 33 31 28 28 31 32 37 35 35 32 31 32 35 35 35 35 36 36 36 36 36 35 36 36 35 31 32 33 34 33

GFSNW_sfc_temp_051.txt.gz
Temp
55 55 55 55 55 55 50 42 34 49 52 36 39 37 40 41 44 48 47 49 47 44 45 41 42 42 47 55 54 43 48 43 35 37 51 53 47 42 42 32 33 38 36 35
55 55 55 55 55 54 45 38 36 46 52 33 36 41 39 41 41 43 47 45 49 51 46 40 46 47 52 53 52 47 47 40 33 37 44 48 43 46 45 43 41 32 29 38
55 55 54 54 54 54 47 38 33 38 43 42 43 41 36 37 46 46 49 48 51 49 46 49 44 43 48 52 52 49 50 42 39 37 40 42 35 42 46 41 32 36 37 41
54 54 54 54 54 54 47 38 35 41 34 39 44 46 40 39 39 48 50 47 49 47 42 45 44 46 46 49 48 48 46 36 42 43 45 45 42 40 41 37 40 33 40 42
54 54 54 53 53 53 43 37 35 38 42 48 46 43 42 39 44 46 45 46 50 51 46 48 44 48 46 44 47 44 45 38 41 38 44 43 38 43 43 43 42 40 39 37
54 53 53 53 53 53 43 44 43 38 43 44 43 43 46 42 49 47 49 51 48 48 49 53 55 55 54 51 46 42 38 36 36 32 45 43 35 42 41 41 40 38 34 43
54 53 53 53 53 53 47 45 42 37 37 41 43 46 49 47 48 46 50 52 50 50 57 56 54 51 49 48 47 49 38 39 38 33 41 29 44 51 45 42 44 47 45 50
53 53 53 53 53 53 48 48 41 38 35 45 45 47 48 49 50 48 49 52 56 57 49 39 36 37 37 39 42 42 45 39 36 33 35 44 46 47 43 41 45 50 52 55
52 52 52 52 53 53 51 47 46 42 37 43 50 48 49 45 45 45 49 53 57 52 42 37 34 33 39 33 36 42 41 42 36 34 30 30 47 54 56 50 38 52 53 54
52 52 52 52 52 52 51 47 47 42 37 48 52 46 47 51 49 46 46 45 45 50 38 34 34 37 47 37 36 33 34 35 31 36 31 41 56 56 55 39 44 52 50 55
52 52 52 52 52 52 51 46 48 42 39 45 51 54 52 51 51 43 45 43 42 41 35 35 37 41 45 45 47 40 36 34 34 35 32 32 58 53 47 53 58 56 54 50
52 52 52 52 52 53 52 44 49 49 40 44 52 55 59 58 57 51 47 45 44 43 38 38 42 43 47 46 37 51 39 47 44 43 44 58 59 57 61 61 56 56 53 55
52 52 52 52 52 52 51 46 47 45 43 49 52 52 57 59 58 60 45 45 48 44 51 43 45 41 50 42 45 47 51 55 47 46 55 56 59 62 60 59 55 53 51 50
52 51 51 52 52 52 51 46 47 45 41 41 50 57 54 57 55 55 54 51 48 47 45 42 42 41 51 48 49 49 52 51 48 49 55 58 60 58 56 54 52 50 49 50
51 50 50 51 51 51 51 51 50 48 41 39 45 53 54 54 51 50 50 48 47 44 41 41 40 49 48 51 50 47 52 51 48 50 58 57 56 56 55 53 50 49 48 47
50 49 50 50 50 50 47 42 47 48 46 42 39 49 50 49 50 48 46 47 46 45 43 45 50 53 50 45 44 55 59 59 60 57 59 58 56 55 54 51 49 49 48 47
50 49 49 50 50 49 42 42 45 49 47 43 39 41 47 49 47 46 46 47 46 45 45 44 45 49 49 46 42 55 57 58 59 61 58 55 54 54 52 49 48 48 47 47
50 51 51 50 50 50 45 48 50 50 44 45 35 40 45 47 43 42 46 43 44 44 44 44 44 47 47 40 51 55 57 56 56 58 58 55 53 50 47 47 46 43 42 43
51 51 51 50 47 43 46 50 50 50 46 40 39 37 37 49 46 44 43 43 39 44 41 42 43 41 37 47 51 54 54 52 52 51 51 51 50 46 44 44 44 40 41 43
50 50 43 40 47 50 49 47 44 43 44 43 40 48 42 47 46 41 40 40 38 33 39 41 38 40 51 53 51 51 52 51 50 46 41 43 41 42 43 44 44 46 44 43
45 41 40 45 48 46 43 39 40 42 38 45 44 44 43 46 41 41 39 36 36 33 37 37 37 40 47 48 48 49 50 50 50 51 50 50 49 45 43 44 44 44 43 42
42 41 44 43 42 39 36 36 37 36 36 42 41 41 43 43 44 40 39 35 37 32 41 36 34 46 46 45 45 45 47 49 49 49 49 49 51 49 46 45 43 43 42 41
45 41 37 39 37 33 32 32 34 35 38 37 37 38 41 43 42 37 37 33 34 41 34 35 42 44 44 43 43 43 45 46 46 45 46 49 48 49 47 44 44 42 42 42
38 34 33 34 33 35 34 36 35 36 37 37 38 37 36 39 36 36 33 35 34 31 30 34 45 42 41 42 42 42 42 43 44 43 44 44 44 44 45 44 43 43 41 40
34 33 32 33 36 37 36 38 37 38 39 38 37 36 38 36 35 34 34 32 30 34 37 40 40 39 40 40 40 41 42 42 42 43 43 43 43 42 42 43 44 42 39 39
34 33 32 36 34 34 35 35 36 38 40 38 36 34 34 34 36 32 31 33 34 36 37 37 37 37 39 39 39 39 40 41 41 42 42 42 42 41 41 42 41 40 38 35
32 32 36 35 35 36 36 38 37 40 36 34 34 32 33 33 32 31 36 34 34 34 35 36 36 34 35 36 38 38 38 39 40 40 40 40 40 41 39 36 35 35 36 35

GFSNW_sfc_temp_054.txt.gz
Temp
55 55 55 55 55 55 50 41 33 47 52 35 36 34 41 42 40 46 47 49 47 42 42 40 41 41 46 54 53 43 46 43 31 34 46 47 44 39 38 27 23 27 23 27
55 55 55 55 55 55 45 37 36 48 48 31 34 39 38 40 39 43 47 46 49 50 44 37 44 45 51 54 50 45 46 36 30 34 40 46 41 43 43 40 36 24 23 30
55 55 55 54 54 54 46 38 32 39 41 40 37 38 35 36 44 45 49 48 51 47 43 47 41 42 48 50 50 51 49 42 33 28 36 39 32 40 42 38 26 29 31 36
54 54 54 54 54 54 46 39 35 39 32 36 38 43 39 37 37 46 50 47 48 46 41 44 41 44 44 48 48 48 43 34 38 40 42 43 41 38 39 34 37 31 36 38
55 54 54 54 53 54 44 37 35 38 39 43 42 42 38 37 41 43 45 44 49 49 44 47 42 44 44 41 43 44 44 35 40 36 42 41 36 40 40 40 40 40 39 38
54 53 53 53 53 53 43 44 43 38 40 43 40 41 43 41 45 46 49 50 47 45 47 50 51 51 52 50 43 41 37 36 35 28 41 39 30 39 41 42 45 43 36 43
53 53 53 53 53 52 46 45 42 37 36 42 43 46 48 43 46 45 50 51 48 49 55 53 51 48 47 46 47 48 39 36 37 27 33 23 41 47 46 42 44 46 45 45
53 53 53 53 53 53 47 47 42 38 34 39 45 46 46 48 49 46 48 50 52 53 47 40 36 36 37 39 44 43 44 39 34 26 27 37 43 45 42 40 43 49 46 49
53 52 52 52 53 53 49 46 46 41 36 40 44 46 48 42 43 44 47 52 53 49 41 38 32 31 35 31 35 42 42 41 34 31 26 27 41 52 52 47 36 50 49 50
53 52 52 52 52 53 49 46 47 41 36 41 48 44 44 49 47 43 45 45 44 47 39 34 33 35 42 31 32 32 34 34 30 29 30 34 49 52 50 36 39 49 49 50
52 52 52 52 52 52 49 46 47 42 37 40 49 52 49 48 47 42 43 41 42 40 36 35 34 35 40 37 40 34 33 30 30 32 29 25 51 48 41 47 50 52 51 49
52 52 52 52 53 52 52 43 49 48 40 41 49 53 55 54 53 47 46 44 42 43 38 37 38 38 40 39 34 42 33 39 35 36 35 48 53 50 54 53 50 49 47 47
52 53 52 52 52 52 50 44 46 44 41 44 46 49 55 57 55 55 43 44 48 43 47 42 40 38 40 36 37 39 44 47 39 42 46 50 53 53 52 51 46 47 46 45
52 52 52 51 51 51 51 44 47 44 40 38 46 56 51 54 54 53 52 50 49 48 45 41 40 39 44 39 42 41 45 46 43 41 48 52 49 49 48 48 48 46 45 45
51 51 50 50 51 51 49 47 48 48 40 38 42 50 52 52 51 50 50 49 46 44 41 40 38 43 44 43 41 39 44 43 40 41 51 49 46 48 50 47 45 45 44 43
51 50 49 50 50 50 45 40 47 48 46 40 38 48 48 47 49 48 47 46 46 44 42 41 45 49 46 38 36 48 50 51 53 49 50 50 49 49 48 46 45 45 44 43
48 48 49 50 50 46 41 40 44 49 46 41 38 40 46 48 47 46 45 46 44 44 43 42 43 43 45 40 35 48 49 51 52 52 51 47 48 46 46 45 44 45 43 43
50 51 51 50 50 49 43 47 50 49 43 43 35 38 42 47 42 41 44 43 43 43 43 44 41 43 44 35 43 48 49 50 49 50 50 48 46 45 43 42 42 41 39 40
49 51 51 47 44 41 44 50 50 48 44 39 38 35 34 46 44 43 43 43 38 43 40 41 42 41 36 41 45 46 47 46 46 45 46 45 43 41 40 40 40 38 39 40
49 48 42 39 45 50 48 45 42 40 43 43 39 45 38 43 43 39 39 40 37 32 38 40 37 38 45 44 44 45 46 45 44 40 37 37 36 39 39 40 41 42 41 40
44 41 39 44 48 45 43 38 38 40 37 42 42 42 39 44 38 38 39 35 34 32 34 35 35 36 40 43 43 43 44 44 44 44 43 43 44 41 42 42 43 43 41 38
42 41 43 43 41 38 36 34 36 36 34 40 39 40 41 41 42 38 37 33 34 31 37 34 32 38 40 40 40 41 41 42 43 43 45 45 47 45 44 42 42 41 41 40
44 40 36 38 36 33 32 31 33 34 36 35 36 36 39 41 40 35 34 32 32 37 33 32 34 36 39 39 39 39 40 42 42 41 43 46 45 45 44 41 42 41 39 40
37 34 33 33 32 34 34 34 34 35 36 36 37 36 36 38 35 35 32 33 33 30 28 27 32 33 35 37 38 39 39 40 40 41 42 42 42 41 42 41 41 40 38 37
34 33 31 32 34 35 34 34 36 36 37 37 35 35 36 34 33 33 32 31 30 30 29 30 31 32 34 35 36 36 37 38 38 40 39 39 40 39 38 40 40 39 38 36
33 32 32 33 33 32 34 33 34 37 38 36 35 33 31 32 33 31 31 30 25 28 28 29 30 31 32 33 34 35 36 36 37 38 38 39 38 37 37 38 37 37 35 33
32 32 34 34 33 33 34 35 35 38 35 33 33 31 30 30 31 30 29 25 26 26 27 28 31 31 31 32 33 35 35 35 35 36 35 36 36 36 35 31 29 32 33 32

GFSNW_sfc_temp_057.txt.gz
Temp
55 55 55 55 55 55 50 42 33 47 49 35 35 30 38 43 39 39 41 42 43 38 40 38 38 36 42 48 47 40 43 39 29 33 43 45 40 35 35 21 19 21 19 25
55 54 55 55 55 55 45 37 37 48 47 27 30 37 37 41 36 38 44 43 46 45 42 35 42 41 50 50 48 41 43 33 29 33 39 41 37 39 41 38 34 18 17 26
55 55 54 54 54 54 45 38 32 36 38 39 36 35 35 36 41 42 47 47 47 42 40 42 39 41 47 50 50 51 48 41 30 23 30 38 32 38 40 37 25 25 25 33
54 54 54 54 54 54 45 39 35 38 30 34 36 36 37 35 36 44 48 45 45 42 37 39 40 42 42 46 49 47 42 31 34 36 39 39 37 38 37 32 35 31 33 35
54 53 53 53 53 53 43 37 35 38 36 39 38 38 36 34 40 42 43 42 47 47 40 43 39 42 39 37 43 43 42 32 35 33 39 38 34 38 38 38 38 36 37 36
54 53 53 53 53 51 42 43 43 38 38 40 34 39 36 38 43 46 48 47 43 41 43 46 48 48 47 44 39 36 36 33 34 20 36 35 27 36 38 38 40 41 34 42
54 53 53 53 53 51 44 44 41 37 35 37 39 43 44 41 43 42 47 47 43 46 51 50 47 45 43 43 45 44 37 36 36 25 30 20 37 44 44 41 44 46 46 49
53 53 53 53 53 53 42 46 41 38 33 38 41 45 42 43 47 45 45 47 47 49 45 37 35 34 35 39 43 42 44 38 30 24 24 33 37 41 41 38 41 49 46 50
53 53 53 52 53 53 43 45 46 40 35 35 40 43 43 37 41 41 45 49 49 46 39 37 31 30 33 31 36 41 41 39 33 31 26 23 38 46 50 45 36 48 50 49
53 53 52 52 52 52 45 45 47 41 36 41 43 42 39 47 45 38 41 42 42 44 37 33 33 32 41 28 28 30 33 34 30 28 27 31 43 47 49 33 37 47 48 50
53 53 53 52 52 52 47 43 47 42 37 39 42 48 46 44 42 38 41 39 40 40 35 34 34 31 39 34 34 31 33 31 31 32 25 23 46 46 41 46 49 50 48 47
52 53 53 53 52 52 50 40 48 48 39 39 44 47 51 50 49 43 45 42 39 41 36 36 36 35 36 34 31 35 33 35 31 32 32 44 48 49 52 50 48 46 46 45
52 52 53 52 52 52 49 42 45 44 39 42 43 44 50 54 51 52 42 44 47 44 45 41 40 32 36 31 33 35 38 43 36 37 43 45 48 50 46 46 43 43 43 43
52 52 52 52 51 51 50 41 45 43 40 36 44 53 48 50 51 50 49 47 47 47 45 41 39 38 40 37 38 38 42 43 39 38 43 46 47 46 45 44 44 43 43 43
52 51 51 51 50 51 46 42 45 46 40 37 40 46 48 49 48 47 48 48 46 44 41 40 38 43 43 39 38 36 43 41 38 37 46 46 47 48 47 44 43 42 41 41
51 49 49 49 50 50 42 39 46 47 46 39 36 48 44 47 49 48 47 47 46 44 42 41 44 48 45 38 38 45 46 46 48 46 49 51 48 47 45 43 42 43 42 41
50 50 50 50 49 43 39 40 44 49 46 40 37 39 46 47 46 46 45 46 44 44 42 41 42 43 45 41 33 47 46 47 48 49 50 47 46 44 43 43 42 43 41 41
50 50 52 51 50 47 42 46 50 48 42 42 35 37 40 46 42 41 44 42 43 43 42 44 42 43 43 37 40 43 45 45 45 46 48 46 43 41 40 40 40 38 37 39
49 50 50 44 41 38 43 50 50 47 43 37 37 34 33 45 43 43 42 43 38 43 39 41 42 40 36 39 41 42 43 44 46 45 43 42 40 39 38 38 37 35 36 38
49 47 42 38 43 49 48 44 41 39 40 41 38 43 37 41 42 39 39 40 35 32 38 40 38 38 42 41 40 39 41 42 43 41 39 37 36 37 37 37 38 38 39 39
44 40 39 43 48 45 42 38 38 38 36 41 41 41 39 44 37 38 39 34 33 32 33 34 33 35 38 38 37 39 40 40 40 42 44 45 42 39 38 38 39 41 40 38
41 40 42 42 40 38 35 34 35 35 34 39 38 40 41 40 41 38 37 32 33 31 37 33 31 34 37 36 37 38 38 41 40 41 44 45 47 44 43 42 41 40 40 39
43 40 35 37 35 32 32 30 32 33 35 35 35 35 38 40 39 35 34 32 32 36 32 31 33 34 36 36 37 37 39 40 39 39 42 45 43 43 42 40 41 40 39 39
36 33 31 33 32 33 33 32 32 32 34 35 37 35 36 38 35 35 32 33 32 30 28 27 30 31 33 35 36 36 36 37 37 38 40 41 41 41 41 40 40 39 37 36
33 32 30 32 33 33 33 34 35 35 37 36 35 34 35 34 33 34 32 31 29 30 30 28 29 31 31 32 33 33 34 35 36 37 38 38 39 38 37 39 39 39 37 35
33 32 31 33 32 32 33 33 33 36 37 35 34 33 32 32 32 31 31 29 28 27 27 27 27 29 30 31 32 33 34 34 34 36 37 38 38 37 36 37 37 37 35 33
31 31 33 32 32 33 33 34 35 37 35 33 33 31 31 29 30 30 31 26 29 25 24 24 27 28 29 30 31 32 32 32 32 33 33 34 35 35 34 31 29 31 32 33

GFSNW_sfc_temp_060.txt.gz
Temp
56 55 55 55 55 55 50 41 33 48 49 33 34 29 37 42 37 38 36 40 41 36 38 37 36 36 39 46 45 38 40 35 30 33 41 44 39 35 34 20 19 20 21 26
55 55 54 55 55 54 44 37 37 47 42 25 27 37 37 39 36 36 41 41 44 42 40 35 39 38 46 47 45 40 41 32 23 31 36 40 37 37 38 35 31 19 18 27
54 54 54 54 54 54 45 37 30 33 36 37 35 35 35 35 41 39 44 43 45 41 38 40 38 38 44 47 47 50 47 37 30 24 29 34 29 35 38 33 24 23 25 29
55 54 53 53 53 53 45 36 34 37 31 31 34 36 36 34 36 45 46 43 43 40 36 38 36 39 41 45 48 45 41 32 33 35 37 37 36 34 35 31 33 28 30 33
54 54 53 53 53 53 43 36 35 38 36 38 35 36 35 35 40 42 40 39 43 43 39 41 37 40 38 37 43 42 42 30 33 31 37 36 32 35 36 36 36 35 36 35
54 54 53 53 53 50 40 43 43 38 38 37 34 37 37 39 43 45 47 46 42 40 40 45 46 46 45 43 39 37 39 34 31 22 34 32 26 34 36 37 39 40 34 40
54 54 53 53 53 51 42 43 41 36 34 37 38 41 41 40 44 42 46 47 43 45 49 48 48 45 43 43 41 42 34 35 36 23 28 20 35 41 41 39 42 45 45 47
53 53 53 53 53 53 40 45 41 38 33 38 38 39 41 43 45 43 42 44 45 48 44 37 36 36 38 39 42 42 43 38 30 25 24 31 35 40 39 37 40 48 46 49
53 53 53 53 53 52 41 44 45 40 35 35 38 36 40 36 36 38 43 46 47 45 38 35 29 29 33 32 35 41 41 41 33 31 27 22 36 43 47 44 35 47 48 48
53 53 53 53 52 52 43 42 47 41 36 40 42 37 37 41 39 35 38 41 41 43 34 30 33 33 39 27 28 31 33 34 30 30 28 30 40 44 46 34 37 45 47 50
52 52 53 53 53 52 44 40 47 42 37 39 40 46 42 42 41 38 40 38 39 37 33 34 31 30 34 30 32 30 32 29 30 31 27 22 43 43 39 46 46 48 47 47
52 52 52 53 53 52 48 37 47 48 40 39 45 46 48 48 48 45 42 40 39 38 36 32 33 34 32 31 29 33 32 35 31 32 32 42 44 45 52 50 46 44 44 45
52 52 52 53 52 52 49 38 43 43 39 40 41 42 51 50 48 53 44 42 47 43 44 41 39 34 33 31 30 31 36 41 34 35 41 42 46 48 50 47 43 43 42 42
52 52 52 52 51 51 50 39 44 42 39 35 43 52 46 49 49 48 48 46 46 47 45 40 39 37 40 38 39 39 41 40 37 36 41 44 45 46 48 45 44 43 42 41
52 51 51 50 50 51 46 41 44 46 39 36 39 47 47 47 47 46 48 48 46 44 41 40 38 42 41 37 36 34 40 39 36 36 45 44 45 49 49 45 44 43 41 40
51 51 51 50 50 50 41 38 43 46 45 37 35 46 43 47 48 47 46 47 46 45 42 41 43 47 43 37 37 45 42 44 45 44 45 47 47 47 45 42 42 41 41 41
50 50 50 50 50 43 37 39 43 48 46 38 36 38 45 47 46 46 45 46 44 44 42 40 42 43 44 40 32 44 43 44 46 47 48 44 45 45 43 42 41 42 39 39
50 50 52 51 50 47 40 46 49 48 42 41 34 37 38 44 42 41 45 42 43 42 41 43 41 42 41 36 42 44 43 44 43 44 43 42 42 41 39 38 38 37 36 36
49 50 50 43 40 38 42 50 49 47 42 37 37 34 30 45 43 43 42 42 37 43 39 40 41 40 35 36 38 40 41 40 41 44 44 42 41 40 37 37 36 35 35 35
49 46 41 37 40 49 47 44 39 38 40 39 37 43 37 41 40 40 39 39 35 32 38 40 38 37 38 38 39 38 36 37 38 37 40 38 37 38 36 36 37 36 36 36
43 39 38 43 47 44 42 37 36 37 35 40 41 40 39 43 37 38 39 34 33 31 33 34 32 33 33 37 34 36 36 36 37 38 40 42 44 43 38 36 37 37 37 38
41 40 42 41 40 38 35 34 35 36 34 40 38 39 41 41 41 38 36 32 32 30 36 33 31 32 34 34 34 37 39 40 40 40 40 42 45 45 43 41 40 40 39 38
42 39 35 36 35 31 31 30 32 33 35 35 35 35 37 40 39 35 34 32 32 36 32 30 30 33 34 33 34 35 37 38 39 38 40 43 43 43 42 40 40 38 38 37
36 33 31 32 31 32 28 26 29 33 35 35 37 35 36 37 35 35 32 33 32 29 27 27 29 31 32 34 35 34 33 34 36 37 38 40 41 40 39 39 39 38 36 35
33 32 29 32 33 33 33 34 35 35 36 36 35 34 35 33 33 33 32 30 27 30 29 28 29 30 31 32 32 33 33 34 35 36 36 37 39 38 37 37 38 38 37 35
33 32 30 32 32 32 32 33 33 35 37 35 34 33 32 32 32 31 30 29 28 29 28 27 27 29 30 30 31 32 33 33 33 34 35 37 38 37 36 37 35 35 35 33
31 27 33 32 32 32 33 34 35 37 35 33 33 31 31 31 29 29 31 30 30 23 23 25 27 27 28 28 30 31 31 32 31 31 31 31 33 34 33 30 29 30 32 32

GFSNW_sfc_temp_066.txt.gz
Temp
55 55 55 54 54 55 47 37 25 43 44 28 33 30 35 38 38 41 39 39 38 36 35 35 34 33 37 44 44 35 36 34 31 33 40 41 37 33 32 21 19 20 17 24
55 55 54 54 54 54 44 35 33 41 40 24 29 35 37 38 38 39 39 39 42 42 37 34 36 36 43 45 43 39 39 29 27 29 35 37 35 35 35 31 27 17 19 26
54 54 54 54 54 54 41 37 29 33 34 36 34 33 34 35 43 40 41 40 41 38 35 37 35 36 42 44 45 48 45 33 29 22 28 32 29 33 34 31 21 22 22 27
54 54 54 53 53 53 41 38 32 37 30 35 36 36 34 35 38 41 42 40 40 38 34 35 34 38 39 43 46 42 39 29 32 33 35 34 34 33 33 28 29 25 27 28
54 54 53 53 53 52 42 36 34 38 35 38 38 39 38 38 40 38 37 37 40 40 36 37 35 37 36 35 39 37 38 29 31 30 35 34 32 34 34 34 33 32 33 33
54 54 53 53 53 49 39 42 43 38 38 37 34 36 39 40 44 45 44 41 39 37 38 41 42 41 40 40 37 34 35 32 29 21 32 31 26 32 33 32 33 35 28 38
54 53 53 53 53 47 39 42 41 36 33 34 34 37 41 41 43 41 43 43 40 42 47 45 47 44 41 41 40 42 35 34 31 24 27 18 34 39 39 37 39 39 43 46
53 53 53 53 53 52 39 43 41 37 32 36 37 37 39 43 43 41 41 43 44 45 43 37 36 36 36 38 40 40 43 35 28 22 22 29 33 36 36 35 41 45 42 46
53 53 53 52 53 53 39 39 45 40 34 34 38 37 37 34 36 38 41 45 45 43 37 35 29 25 31 31 34 41 38 36 28 23 21 20 36 39 42 41 33 45 45 46
53 53 53 53 52 52 41 38 44 40 35 40 39 38 38 38 36 34 36 39 40 41 32 28 26 27 33 26 27 31 31 33 28 27 22 28 37 41 41 30 35 47 45 46
52 52 53 53 52 52 43 39 40 40 37 39 41 43 40 42 40 35 38 37 37 35 30 29 29 29 30 27 29 29 31 28 28 31 24 20 39 39 35 45 48 46 47 44
52 52 52 53 53 52 47 37 42 46 37 38 43 44 47 46 46 42 41 38 37 36 32 31 31 31 30 28 25 30 28 32 28 30 30 39 40 44 47 47 47 46 43 41
52 52 52 53 53 52 49 40 40 40 33 36 40 38 45 49 47 50 40 42 44 42 40 34 34 31 31 29 33 29 33 37 32 34 37 39 42 43 44 45 46 46 44 41
52 52 52 52 51 52 50 40 41 41 35 33 37 51 45 50 48 47 48 44 44 44 43 38 38 36 37 33 33 32 36 37 36 33 39 42 45 46 45 45 44 44 43 41
52 52 51 51 51 51 46 41 43 43 37 33 35 41 46 48 48 46 47 46 44 42 41 39 37 38 38 33 34 30 36 35 33 33 42 41 42 44 46 45 44 43 41 40
51 51 51 51 51 50 41 37 39 44 43 35 32 45 44 46 48 46 46 46 45 44 42 41 42 42 40 34 34 37 40 43 41 39 39 42 44 44 42 42 41 41 40 39
51 51 50 49 49 45 37 33 42 47 43 35 33 37 44 47 46 45 45 45 44 44 42 40 41 42 43 39 34 37 37 41 41 43 43 43 42 39 40 40 39 40 37 37
50 50 49 49 51 46 41 42 47 46 39 38 32 36 37 46 42 41 44 42 42 42 41 41 40 41 41 34 37 38 36 37 38 38 40 39 40 39 39 37 38 36 37 36
49 49 49 44 41 38 38 48 47 45 39 34 36 34 32 43 42 43 42 42 37 42 38 40 40 39 34 35 36 37 34 35 37 38 39 40 41 41 40 36 36 35 35 35
49 44 39 36 37 48 45 42 37 37 38 38 35 41 36 41 40 37 39 39 36 32 37 41 36 36 36 37 37 37 36 37 37 34 35 35 35 38 39 39 38 37 36 35
41 38 35 41 46 42 39 33 33 35 34 38 39 36 37 42 37 37 39 34 33 30 34 34 33 32 33 36 35 35 35 37 37 38 39 39 38 35 38 40 40 37 36 35
37 38 41 40 39 35 32 31 34 33 32 38 38 39 40 40 42 38 36 33 32 28 36 32 31 31 33 32 31 31 32 36 35 38 38 39 39 38 39 41 41 39 38 37
41 37 33 34 34 29 31 28 31 32 35 35 36 35 38 39 40 35 34 31 31 35 31 29 29 31 33 33 32 31 32 35 35 35 37 38 39 41 40 40 40 38 38 37
35 32 29 30 30 32 32 31 31 34 35 35 37 35 35 37 35 35 32 33 32 26 23 25 30 30 31 32 32 33 32 33 33 33 34 35 37 38 39 38 39 38 36 35
33 32 28 30 33 33 33 34 35 35 37 36 34 34 35 33 33 33 32 31 24 28 27 28 30 30 30 30 31 31 31 31 31 32 32 32 33 35 36 37 37 37 35 34
32 32 30 31 31 32 32 33 33 35 37 35 33 32 30 30 32 31 29 28 23 26 26 25 26 29 30 29 30 31 31 31 31 32 32 33 32 32 33 34 35 35 35 33
30 29 32 31 31 31 32 34 35 37 35 29 33 28 28 31 30 28 31 30 29 29 22 23 26 27 26 27 28 30 30 30 30 30 30 31 31 33 32 30 30 30 32 32

GFSNW_sfc_temp_072.txt.gz
Temp
55 55 55 55 55 54 51 43 39 51 52 40 39 35 35 40 42 44 41 42 45 41 42 42 42 40 42 50 49 44 46 44 34 36 45 48 45 43 42 37 31 32 35 40
55 55 55 54 54 54 46 38 40 51 50 33 34 39 39 41 43 43 43 44 47 47 43 39 43 43 48 50 49 47 48 40 31 34 41 44 41 42 42 41 38 31 35 39
55 55 54 54 54 54 48 41 35 42 44 39 35 35 37 38 46 45 46 45 48 46 44 46 41 43 47 49 49 48 50 41 38 35 37 41 35 40 43 40 34 36 39 42
55 54 54 54 53 53 49 43 36 39 33 37 36 38 39 38 38 47 48 46 45 44 40 42 40 43 45 49 48 49 49 38 40 40 41 40 38 38 39 34 40 38 41 43
55 54 54 53 53 52 47 37 35 38 36 41 39 37 37 39 43 43 43 42 44 47 42 42 40 43 44 45 48 46 47 38 41 36 39 39 36 39 40 40 41 41 42 42
54 54 54 53 53 51 42 43 44 38 40 39 36 34 36 41 46 46 46 45 45 43 42 45 47 49 49 48 46 43 43 41 39 31 37 37 33 39 40 40 43 43 38 47
54 54 53 53 53 49 45 44 40 36 34 37 34 36 37 40 44 43 46 48 46 48 52 51 53 52 49 49 47 48 43 41 41 35 37 28 39 45 45 43 45 46 47 49
53 53 53 53 53 52 47 45 41 37 32 38 37 36 37 42 46 45 45 47 49 51 49 45 41 42 43 43 45 46 49 43 36 33 34 37 39 41 42 42 42 49 47 51
53 53 53 53 53 52 48 45 46 41 34 38 39 36 37 37 41 46 46 51 52 51 46 42 35 33 37 36 38 46 46 46 41 34 29 28 41 47 50 47 36 51 51 51
53 53 52 52 53 52 49 45 46 42 35 43 42 36 35 40 41 41 44 45 46 48 44 38 37 37 40 35 34 35 37 38 34 35 32 38 47 47 48 37 41 51 53 53
52 52 52 52 52 52 49 46 46 43 38 40 44 44 40 40 41 37 43 44 44 44 39 39 39 39 39 38 38 37 36 33 33 35 31 30 49 47 41 50 53 54 54 53
52 52 52 53 53 53 49 42 46 47 39 40 46 47 49 47 45 40 42 42 43 44 41 40 41 40 39 38 36 40 36 42 41 40 42 48 50 49 54 53 52 53 52 52
52 52 53 52 52 52 50 44 46 42 37 39 39 41 49 50 48 52 39 45 46 46 48 43 42 38 42 38 40 40 42 44 42 40 46 48 52 54 53 53 52 53 53 52
52 52 52 52 52 52 51 43 46 44 38 31 39 52 47 53 50 48 49 46 48 47 47 43 41 40 43 41 41 42 46 44 43 43 48 50 50 50 51 52 53 52 52 51
52 51 51 52 52 51 49 48 47 48 38 32 36 44 49 50 48 46 45 45 43 44 43 42 41 43 42 43 42 41 45 46 43 44 48 48 50 49 49 50 49 50 49 49
51 51 51 51 51 50 44 38 44 46 44 35 30 45 44 48 48 45 44 44 44 46 45 45 46 48 46 39 38 48 48 48 48 47 47 48 50 49 48 47 48 48 48 47
51 51 51 51 50 46 37 36 44 46 45 35 31 33 44 48 47 45 45 46 45 46 44 43 45 46 46 42 37 48 47 47 46 46 45 45 45 44 46 46 47 47 47 47
50 51 51 50 50 47 40 45 47 46 39 37 30 33 38 46 42 41 47 43 44 45 43 43 42 43 42 35 42 43 43 43 44 43 43 43 43 44 46 46 46 45 46 46
50 50 49 47 44 40 39 47 47 47 39 32 33 32 33 45 42 43 43 46 38 45 39 40 41 38 34 40 43 43 40 39 39 40 41 43 42 42 43 42 41 42 45 45
48 46 40 35 40 46 47 40 35 34 35 35 32 38 36 41 43 40 41 41 37 33 38 42 36 36 39 39 39 39 38 39 39 36 37 38 37 38 40 41 42 43 44 45
40 36 36 40 45 40 36 32 31 33 31 35 36 38 37 42 37 37 41 35 34 32 35 35 34 34 34 38 37 37 36 36 38 38 38 39 39 39 40 41 43 44 44 44
41 40 42 40 36 33 31 31 33 32 31 37 37 39 41 40 42 38 37 34 33 30 37 33 31 34 35 36 35 35 36 38 37 38 37 38 39 40 40 40 41 43 44 45
42 37 33 33 33 28 28 28 31 32 35 35 37 35 40 40 41 35 34 32 32 36 32 32 35 34 35 35 35 35 36 37 37 36 36 36 36 38 38 37 39 41 42 41
35 32 29 30 30 32 33 33 32 34 33 34 37 36 36 38 34 35 32 35 34 30 28 31 33 34 34 34 34 34 33 33 33 33 33 33 33 34 35 36 37 38 38 37
31 32 28 30 33 33 33 33 33 35 35 36 36 36 37 33 32 33 33 31 30 31 32 34 34 34 34 33 32 32 31 31 31 32 32 32 32 32 32 33 33 34 34 34
32 31 28 33 31 32 33 32 32 34 34 36 35 33 33 32 34 32 31 30 30 33 33 32 32 32 32 32 33 33 33 33 33 33 33 33 32 31 31 33 32 31 32 31
26 27 33 32 32 31 33 33 33 35 34 33 33 31 30 33 31 30 34 32 35 34 30 31 31 31 31 32 32 31 31 31 32 32 32 32 33 34 33 31 31 30 31 30

GFSNW_sfc_temp_078.txt.gz
Temp
56 55 55 55 55 55 53 48 40 55 57 39 41 36 42 44 44 47 44 45 47 44 46 43 41 39 44 52 51 43 44 38 32 34 42 46 45 39 40 32 29 31 29 29
55 55 55 55 55 55 47 44 44 56 54 33 34 42 44 47 46 46 47 47 49 50 46 40 45 44 51 52 48 45 48 37 29 31 36 42 39 41 41 42 36 31 28 29
55 55 54 54 54 54 50 44 33 42 47 42 37 36 40 40 50 48 51 50 52 49 46 48 43 43 48 50 50 49 49 43 36 31 36 39 35 40 41 38 31 34 33 37
55 54 54 54 54 54 51 44 36 38 33 38 37 40 40 38 40 50 51 48 48 46 41 44 42 45 47 50 52 49 47 36 39 40 43 43 39 39 41 31 38 32 38 40
55 54 54 54 53 54 47 37 35 39 36 41 39 37 36 35 41 44 45 43 48 46 40 42 41 45 45 43 48 45 47 35 39 35 41 40 36 41 41 41 41 40 41 40
54 54 53 53 53 53 45 45 45 38 39 40 37 35 35 36 40 46 50 47 47 43 43 47 49 49 49 46 44 42 42 38 35 25 38 36 27 38 40 41 42 42 35 42
54 54 53 53 53 52 48 46 42 36 33 38 35 36 36 37 39 40 49 49 47 48 53 52 51 49 49 48 46 48 41 40 38 27 32 20 35 44 44 43 45 45 47 48
54 53 53 53 53 53 48 48 42 38 30 36 38 38 36 38 42 45 47 49 50 52 48 43 39 38 41 43 46 45 46 41 32 25 27 33 37 41 40 40 42 48 46 48
53 53 53 53 53 53 49 47 47 41 34 37 42 38 37 35 36 40 47 52 53 50 44 40 32 29 35 33 40 44 46 43 33 28 26 25 37 44 48 45 36 48 49 48
53 53 52 53 53 53 49 46 49 41 35 41 41 35 35 38 36 35 43 43 45 48 40 35 32 34 39 32 32 37 36 35 29 31 26 33 43 46 47 33 37 49 51 50
53 52 52 53 53 52 48 45 49 42 37 39 43 45 39 40 37 34 38 40 43 41 36 34 35 34 35 33 35 34 34 30 29 32 27 23 45 43 37 46 51 52 49 49
52 52 52 52 52 52 51 42 50 48 38 38 46 46 47 45 45 39 40 39 41 42 39 37 37 36 36 35 32 37 32 36 33 35 34 45 46 47 49 49 48 47 47 48
52 52 53 52 52 52 50 43 45 43 38 39 41 41 50 52 49 50 38 44 44 45 44 39 39 35 37 33 34 35 39 43 37 39 43 45 48 49 50 50 48 49 49 48
52 52 53 52 52 52 51 43 45 43 38 31 37 52 47 54 52 48 48 45 46 45 45 40 40 38 42 37 38 36 40 40 40 40 44 45 46 47 47 48 49 49 49 47
52 52 51 52 51 51 48 46 46 47 38 31 34 42 47 50 48 47 47 44 41 41 40 39 38 42 40 40 38 35 41 40 36 36 43 44 43 45 47 47 46 47 47 46
51 51 51 51 51 50 43 37 45 48 45 35 29 43 43 47 48 45 45 44 41 41 41 41 42 47 42 34 36 45 46 48 47 42 45 45 46 47 46 44 45 46 44 45
51 51 51 51 51 46 39 36 42 47 44 34 30 31 43 46 47 45 44 44 42 42 42 40 41 44 43 38 32 44 46 47 46 46 45 43 42 40 43 44 45 47 45 45
50 51 50 50 50 48 41 45 48 46 39 37 28 28 36 45 40 39 45 41 42 43 41 42 40 42 42 35 40 42 43 44 44 43 42 41 43 42 45 43 45 43 42 43
50 50 49 46 44 40 41 47 47 45 38 31 32 27 28 39 41 42 42 43 36 42 38 40 40 39 34 39 41 43 41 39 38 41 42 42 42 43 40 40 40 39 40 41
50 45 42 37 39 46 46 41 35 35 36 35 29 36 31 36 39 38 38 40 36 32 37 40 34 35 41 38 37 36 36 37 40 38 38 38 37 38 40 40 40 40 40 41
43 37 34 40 47 39 37 32 31 33 30 33 34 35 32 40 34 35 40 34 34 31 34 34 33 33 37 38 36 38 38 38 39 39 39 39 39 39 39 40 40 40 42 42
41 40 42 40 36 33 30 29 32 30 29 35 33 35 36 37 41 36 36 33 33 29 37 33 29 33 35 36 36 37 37 39 39 40 38 39 39 39 38 38 39 39 39 40
43 37 33 33 32 26 27 26 30 30 33 33 33 32 37 38 39 35 34 32 31 37 31 31 33 32 35 35 35 35 37 38 37 36 37 37 36 37 36 35 36 36 37 39
33 27 19 29 28 30 31 30 30 34 32 33 32 31 33 37 34 34 31 34 33 28 27 26 30 34 35 35 35 35 33 33 33 33 34 33 33 34 34 34 34 33 33 34
27 28 17 26 34 33 33 33 33 35 34 32 31 32 33 32 32 32 32 30 28 30 29 32 33 33 34 33 33 33 32 31 30 32 32 31 30 32 32 33 33 32 32 32
31 30 23 29 25 26 26 31 32 34 33 34 32 31 32 32 32 31 31 28 26 31 32 32 32 32 33 33 35 35 35 34 32 32 31 32 32 32 30 31 30 30 30 30
28 26 33 31 30 29 32 34 34 37 32 30 31 30 29 32 30 29 32 31 32 32 30 32 32 32 32 31 32 33 32 31 30 30 29 30 31 33 31 28 28 29 30 28

GFSNW_sfc_temp_081.txt.gz
Temp
56 55 55 55 55 55 48 38 31 49 48 34 37 34 40 45 43 47 43 41 41 41 42 39 37 38 41 48 46 38 39 38 31 34 42 44 41 35 35 25 24 23 27 27
55 55 55 55 55 55 42 36 35 48 45 31 34 39 42 46 43 44 45 43 46 49 42 36 40 41 48 49 47 43 43 34 27 30 36 42 40 38 39 36 31 20 22 31
55 55 54 54 54 55 43 36 30 35 38 39 37 36 36 38 47 45 49 47 47 45 41 43 39 41 46 49 48 49 48 38 33 25 31 38 34 37 39 35 24 29 28 34
55 54 54 54 54 54 42 34 32 37 31 32 35 38 37 35 37 45 46 44 43 40 36 39 38 42 44 48 50 48 44 34 38 40 41 40 39 37 36 29 35 32 37 40
55 54 54 54 54 53 37 30 30 36 35 38 38 36 34 34 38 39 40 39 43 41 36 37 36 40 40 38 45 43 43 34 36 33 40 39 36 40 38 39 38 39 40 40
54 54 53 53 53 49 36 36 37 36 35 36 35 32 35 34 37 42 45 43 44 39 40 43 43 42 45 42 40 39 39 36 32 23 36 34 27 36 38 39 42 41 34 40
54 53 53 53 53 51 40 38 35 31 26 30 31 36 36 36 37 37 45 46 43 44 49 47 46 43 45 45 43 43 38 37 34 24 29 18 34 41 43 41 43 43 43 45
54 53 53 53 53 53 40 42 35 32 28 31 34 35 36 38 40 40 42 47 47 48 44 38 36 34 37 39 42 42 41 36 30 25 24 30 35 39 39 38 38 45 43 45
53 53 53 53 53 53 42 40 44 34 30 29 36 33 36 33 34 36 42 50 48 46 40 36 29 25 32 31 34 44 43 39 30 25 24 23 37 41 45 44 32 46 46 45
53 53 52 53 53 53 44 40 43 36 30 34 36 29 32 37 35 32 37 38 40 44 35 30 27 30 36 28 30 34 31 32 27 27 24 30 39 42 45 33 33 47 48 48
53 52 52 53 52 52 44 40 43 41 34 34 39 42 35 35 34 31 36 37 40 38 34 31 30 30 32 31 33 30 32 27 26 30 26 22 42 42 37 44 49 51 50 49
52 52 52 53 53 53 50 36 43 44 38 34 41 43 45 43 41 37 37 36 37 41 38 35 32 33 31 31 29 35 31 35 32 34 33 42 44 44 46 47 47 45 45 46
52 52 53 53 53 52 49 37 39 37 36 35 34 36 44 49 45 47 34 40 42 41 43 37 34 31 33 29 31 32 36 40 35 37 39 41 44 45 47 47 46 46 46 46
52 52 52 52 52 52 51 38 39 40 37 30 31 46 41 48 47 46 45 43 43 43 42 40 34 35 39 34 36 34 37 38 37 37 40 41 43 43 44 46 47 46 46 45
52 52 52 52 51 51 48 41 40 43 37 29 32 39 43 44 43 43 44 42 40 37 37 39 35 37 38 37 36 32 38 37 34 34 40 40 39 41 44 44 44 44 44 44
51 51 51 51 51 51 43 33 41 43 43 34 27 36 37 42 43 41 41 42 41 40 40 40 40 43 41 32 30 41 42 43 45 41 42 43 42 42 42 42 43 43 42 42
51 51 51 51 51 44 35 32 40 47 42 34 28 27 38 44 44 39 39 44 41 40 41 39 39 40 44 36 30 41 42 43 43 43 45 40 40 39 40 42 43 44 42 43
51 51 51 50 50 47 41 42 47 46 39 36 28 26 31 41 39 38 44 39 40 41 41 41 39 42 41 33 38 39 41 41 40 39 41 40 40 40 41 42 42 42 42 41
50 50 50 42 41 39 40 47 47 44 38 30 29 22 24 40 36 39 41 42 35 42 38 39 39 35 32 37 38 38 38 37 37 38 40 42 42 41 41 40 37 36 37 38
50 42 36 32 35 47 45 40 35 35 35 35 28 34 29 34 36 36 39 39 36 32 36 41 36 35 39 35 33 34 37 38 38 35 35 37 37 38 39 39 40 37 37 38
37 32 30 36 45 35 37 31 30 30 28 32 32 32 30 38 32 33 38 34 34 30 32 33 32 32 32 33 33 36 38 39 39 39 37 37 38 38 38 38 39 40 40 39
38 37 39 38 35 30 28 22 30 29 28 34 32 34 35 35 39 34 35 32 33 29 37 32 29 31 32 33 35 36 36 38 37 38 36 37 38 37 37 37 37 37 38 38
41 35 33 32 31 24 17 13 21 22 31 33 33 31 35 37 38 34 33 31 30 37 31 30 31 30 31 31 32 33 36 36 36 35 35 35 35 35 35 34 34 34 35 37
29 25 14 21 15 23 26 25 27 30 33 32 32 30 32 35 33 34 31 34 33 28 26 27 29 32 33 32 34 34 33 33 33 33 33 33 33 33 34 33 33 32 32 33
21 23 12 14 25 23 31 33 33 33 32 33 30 31 32 32 31 32 32 29 27 30 29 32 33 33 33 33 33 33 32 31 30 31 30 32 32 32 28 32 31 30 30 31
21 26 23 23 18 17 17 19 30 34 33 31 32 29 30 31 31 30 30 27 24 30 32 32 32 32 32 33 34 34 34 34 32 31 29 29 28 27 26 27 26 26 25 25
27 26 30 22 22 23 20 24 26 36 29 25 28 27 27 31 29 29 32 30 32 30 30 31 32 32 32 31 31 31 33 31 30 29 28 27 28 28 27 25 27 26 26 24

GFSNW_sfc_temp_084.txt.gz
Temp
55 55 55 55 56 56 46 36 30 47 46 33 37 34 39 44 41 44 41 39 38 39 42 37 36 35 37 36 38 31 35 34 30 34 42 44 43 36 36 26 27 20 21 26
55 55 55 55 55 55 40 34 33 45 44 29 33 39 40 44 43 43 43 41 45 47 40 36 40 40 48 46 43 38 40 34 27 30 36 40 37 37 38 34 29 18 21 27
55 54 54 54 54 54 40 33 26 33 37 41 35 35 36 36 46 45 45 45 43 40 39 42 39 40 47 48 46 49 47 35 29 24 31 36 34 35 37 33 21 23 25 30
55 54 54 54 54 53 40 31 33 34 29 32 35 36 36 34 36 43 43 41 40 37 34 36 36 39 42 47 48 46 44 31 34 36 37 38 38 35 35 25 32 28 32 35
54 54 53 53 53 52 36 28 27 31 29 37 37 36 34 33 36 38 38 39 40 39 34 34 33 36 38 37 42 41 43 35 37 32 37 37 33 36 36 35 36 35 36 37
54 53 53 53 53 48 34 35 35 34 32 29 29 31 33 33 36 41 44 43 40 38 39 41 42 41 41 39 38 38 38 35 32 27 35 36 30 35 36 36 38 40 35 42
54 53 53 53 53 48 37 36 33 27 25 27 29 32 35 35 36 36 43 44 40 43 46 45 43 40 41 42 41 41 37 35 33 25 29 20 34 41 43 40 41 43 42 42
53 53 53 53 53 53 39 39 34 29 23 28 30 30 33 36 38 37 39 45 43 44 42 37 35 35 35 38 40 40 40 35 29 24 23 30 34 38 38 37 37 43 42 43
53 53 52 53 53 53 40 38 40 35 29 27 32 30 31 30 32 32 39 44 44 43 38 34 28 23 29 30 34 40 40 36 30 25 24 22 34 39 43 43 30 44 44 43
53 52 52 52 53 52 42 38 42 39 31 31 33 27 27 34 33 30 35 36 36 41 33 29 26 28 33 27 27 31 30 29 25 26 23 29 37 40 43 33 32 42 45 44
52 52 52 52 53 53 42 39 41 36 34 33 37 38 33 33 32 28 35 34 38 37 32 30 29 29 30 30 31 28 30 26 25 29 25 21 40 40 38 40 44 48 46 46
52 52 52 53 53 52 46 35 41 42 34 34 39 42 43 40 39 36 35 35 34 40 36 35 30 30 29 28 27 34 30 34 31 31 32 41 41 41 43 45 48 47 46 45
52 52 53 53 53 52 50 41 41 37 35 33 31 34 42 43 43 47 32 37 40 37 41 38 34 30 31 27 32 29 33 37 34 36 38 38 42 44 45 45 45 44 45 45
52 52 52 52 52 52 51 42 42 40 36 29 31 43 40 45 44 43 43 40 42 39 38 39 34 32 36 32 34 32 36 37 36 36 38 39 40 42 43 44 45 45 45 44
51 51 51 51 51 51 48 43 40 42 36 29 32 37 40 42 40 40 41 39 39 35 34 37 37 35 36 35 35 32 37 37 35 34 40 40 39 41 43 43 42 43 43 42
51 51 51 51 51 50 43 32 42 44 43 34 26 35 36 42 40 38 37 38 37 37 36 38 41 41 40 31 30 40 41 42 44 41 41 42 41 42 42 41 41 42 41 41
51 51 51 51 51 44 38 32 40 46 43 34 27 28 36 42 41 36 36 39 40 38 38 38 37 39 43 36 28 40 41 41 42 43 43 40 39 38 40 41 41 42 40 40
51 51 50 50 50 47 40 43 47 45 39 35 26 26 29 40 36 34 38 37 39 39 40 42 40 41 41 35 36 38 39 39 39 39 40 40 41 40 39 39 40 39 41 40
50 50 49 41 40 37 40 46 47 44 38 29 30 25 22 38 36 37 40 41 35 38 37 38 39 35 33 36 36 37 37 37 37 37 39 40 39 39 40 40 39 37 36 39
48 40 35 30 36 46 44 40 35 35 35 35 28 33 28 34 34 35 35 39 35 32 37 41 36 35 36 33 33 33 35 39 38 36 35 36 36 37 38 38 39 39 38 36
36 31 31 35 43 35 36 31 29 29 26 31 29 31 29 36 31 32 37 33 34 30 31 34 30 29 30 31 32 34 38 39 38 39 38 38 38 37 37 38 38 39 39 38
37 36 37 37 35 32 27 21 29 28 21 34 31 32 34 35 37 33 34 32 33 28 37 32 28 30 30 32 34 35 36 37 36 37 35 36 37 36 36 36 36 35 36 37
37 35 33 31 26 21 16 18 16 16 26 33 32 29 33 35 37 33 32 30 29 37 31 30 31 29 30 30 32 33 35 37 36 35 35 35 35 35 34 33 33 34 34 35
28 21 15 19 16 25 27 24 28 29 30 32 32 29 30 34 32 34 31 34 33 28 25 26 25 29 33 32 32 34 33 33 33 33 33 33 33 33 33 33 32 31 31 32
20 23 14 12 23 26 31 33 28 28 35 32 30 30 31 30 30 32 32 29 27 29 29 32 33 34 32 32 33 32 32 30 29 30 30 30 30 31 27 31 27 27 28 28
20 22 22 21 16 15 16 13 17 25 32 29 30 28 28 29 31 30 29 28 25 30 32 32 32 32 33 33 32 33 33 32 32 30 29 29 27 26 24 23 22 23 23 23
27 26 31 26 24 24 18 20 23 32 28 25 25 24 26 28 28 29 31 29 30 31 30 30 32 32 32 31 31 31 33 31 30 29 29 28 28 27 25 23 24 22 24 21

GFSNW_sfc_temp_090.txt.gz
Temp
55 55 55 55 55 55 45 35 29 44 43 31 37 33 36 43 42 45 42 40 39 37 36 31 29 28 31 39 38 29 31 25 24 30 39 41 39 34 32 21 24 19 18 28
55 54 54 55 55 54 37 32 30 42 41 24 31 38 39 42 39 39 41 40 40 42 37 32 34 36 37 39 38 33 33 22 20 26 32 38 35 35 36 32 29 18 19 29
54 54 54 54 54 53 37 30 24 30 34 35 34 33 35 35 44 40 41 40 42 38 35 38 35 36 36 38 40 44 42 28 26 21 27 34 31 35 34 32 20 23 25 31
54 54 53 54 54 51 37 29 27 30 22 27 29 35 34 33 33 39 41 39 38 36 33 35 33 37 38 36 36 37 35 30 30 34 36 38 37 34 33 24 30 28 32 32
54 53 53 53 53 50 34 28 25 28 26 28 28 30 28 29 32 35 35 36 37 38 35 35 33 35 36 36 37 33 34 33 33 32 36 35 33 36 35 35 33 33 32 33
53 53 53 53 52 46 32 31 32 29 29 26 25 24 27 30 33 37 39 37 35 37 35 37 38 38 39 38 36 35 37 33 31 25 35 34 28 33 35 34 36 38 32 39
53 53 53 53 52 45 35 33 30 27 26 27 27 28 29 29 31 31 38 40 38 41 43 40 37 35 36 37 38 39 35 34 31 27 31 21 33 38 39 37 38 39 39 40
53 52 52 53 52 49 37 35 32 27 23 28 28 28 28 29 32 33 36 40 42 43 36 34 33 36 34 34 36 37 39 34 28 23 23 29 32 35 36 35 35 41 40 42
52 52 52 52 52 49 38 36 36 31 25 26 30 27 25 24 26 27 35 42 43 41 34 32 28 23 26 29 32 36 38 36 32 26 24 22 32 37 40 41 31 41 43 43
52 52 52 52 52 50 39 36 38 32 26 29 30 25 25 29 27 26 29 34 35 40 32 29 26 26 29 25 25 28 28 29 25 27 23 29 36 39 41 30 32 40 43 42
52 52 52 52 52 50 41 37 40 34 27 29 33 35 28 29 28 26 29 32 33 34 31 31 29 27 27 24 26 26 27 25 24 27 24 22 39 39 35 40 42 43 42 43
52 52 52 52 52 50 44 34 42 44 32 32 36 38 40 38 37 30 30 30 31 34 31 33 34 30 27 24 24 30 27 31 28 30 30 37 37 37 41 42 44 45 45 42
52 52 52 51 51 51 46 37 39 39 35 30 32 33 37 39 38 41 30 32 37 35 36 33 34 32 30 24 28 27 30 33 30 32 34 35 37 38 44 43 44 42 44 43
52 52 52 51 51 51 47 41 42 38 32 25 29 40 36 41 39 38 39 39 38 37 37 34 35 33 34 28 30 29 33 33 33 32 33 34 37 37 39 40 41 42 42 41
52 52 51 50 50 48 41 39 37 38 33 26 28 35 37 39 38 37 37 35 33 32 30 32 35 38 36 34 30 28 33 34 32 32 38 38 38 39 40 40 40 40 41 40
51 51 50 50 50 46 37 31 39 40 42 32 26 33 33 39 41 35 33 35 33 32 33 33 38 42 38 34 28 35 37 39 40 37 37 39 39 40 39 39 39 40 40 40
51 50 50 50 50 39 32 32 37 44 42 32 25 25 33 36 40 33 32 34 34 32 32 35 34 35 39 36 32 36 37 38 38 39 40 38 37 37 38 39 40 41 39 38
51 50 50 50 49 44 37 39 45 42 37 33 22 23 27 35 31 33 34 30 35 35 35 39 37 38 39 33 36 35 35 36 37 38 39 38 38 38 38 37 38 37 36 36
50 50 48 40 36 34 34 46 45 41 34 23 27 23 20 33 30 35 36 34 32 38 34 36 36 34 31 35 35 34 35 34 36 36 37 38 37 37 37 36 36 34 35 38
49 41 36 30 33 44 44 39 30 31 32 34 29 27 23 31 29 32 34 36 33 30 34 38 34 32 36 32 31 33 34 35 36 35 36 36 34 35 35 35 37 37 36 37
38 33 31 34 42 34 32 31 28 29 28 31 32 27 28 32 28 27 34 31 33 29 31 33 31 30 29 29 30 32 34 36 36 38 37 37 37 36 36 36 36 35 36 35
38 36 37 35 31 26 21 25 29 28 23 33 30 26 27 33 35 32 32 30 32 24 36 32 29 31 29 29 32 35 35 36 35 35 35 35 36 36 36 35 34 34 34 35
37 34 28 27 27 18 15 13 11 11 24 24 22 23 28 34 33 32 32 28 29 36 31 27 27 29 29 29 33 34 36 36 36 34 35 35 34 35 33 31 31 32 32 32
31 25 18 19 17 21 20 16 15 21 19 19 21 19 22 30 29 30 27 33 33 22 21 22 31 33 34 33 34 35 33 34 33 33 32 33 34 30 30 28 27 27 26 27
25 24 20 17 22 27 26 29 27 23 21 22 20 23 26 25 24 28 30 29 24 26 26 30 31 32 33 32 33 33 32 29 21 21 22 22 22 23 23 25 24 25 26 26
24 21 18 22 17 14 22 28 27 22 22 22 29 24 24 17 25 26 27 27 22 25 27 31 31 31 32 32 33 34 33 31 30 29 27 27 26 25 23 21 21 22 23 23
25 19 26 21 18 15 14 18 21 31 29 18 25 19 22 20 16 25 27 24 26 27 28 31 30 30 31 32 32 31 30 31 31 30 30 28 27 26 25 24 23 21 22 20

GFSNW_sfc_temp_096.txt.gz
Temp
55 55 55 55 55 53 51 49 41 50 52 42 42 37 39 44 43 46 43 40 40 38 39 33 31 30 32 40 42 34 40 34 28 32 41 42 38 40 41 31 30 34 32 38
54 54 54 54 54 51 50 47 46 51 49 35 37 42 41 42 41 41 41 38 41 40 38 33 36 34 36 41 41 39 41 33 26 28 36 41 35 41 43 41 38 30 33 39
54 54 54 54 54 50 50 46 37 45 47 42 39 35 36 36 43 41 41 39 44 38 39 43 35 34 35 41 43 44 45 37 34 29 33 39 33 39 41 40 34 36 41 43
54 54 53 54 53 50 51 44 36 38 35 39 38 37 36 34 35 41 43 40 38 35 34 37 35 35 34 36 38 41 41 31 36 37 38 38 38 39 40 34 41 38 42 43
54 53 53 53 52 48 46 43 38 38 38 36 37 35 35 33 35 35 37 36 38 38 35 34 33 34 35 33 35 33 36 33 35 34 40 40 36 40 41 41 43 42 42 44
54 53 53 53 51 50 45 40 41 42 35 36 37 35 34 34 35 40 41 39 36 37 38 41 42 42 39 37 34 34 32 34 36 29 36 38 32 39 40 42 46 45 40 48
53 53 53 52 50 48 47 43 42 41 37 39 37 34 34 34 35 32 39 41 38 44 47 46 42 40 38 39 38 38 33 33 38 34 35 27 39 45 47 43 45 47 47 49
53 53 52 52 51 49 46 43 44 42 37 39 35 34 34 36 36 34 36 41 44 44 42 42 40 41 39 40 43 39 40 40 37 34 34 36 39 41 40 39 40 48 47 51
53 52 52 52 51 48 46 43 44 43 40 37 37 35 34 33 33 36 37 43 44 44 41 40 33 31 34 36 38 44 43 43 38 35 30 28 39 45 47 46 37 48 51 51
53 52 52 52 51 49 48 43 44 43 39 39 38 36 35 36 35 33 36 36 38 45 40 35 32 34 37 33 33 35 38 39 36 37 34 37 44 46 47 34 39 48 49 52
53 52 52 51 50 49 48 44 45 43 39 39 39 39 37 37 37 33 37 36 38 36 34 33 33 34 36 35 37 35 35 34 36 37 34 29 47 47 41 45 50 50 50 52
52 52 52 52 51 49 47 43 46 47 41 40 42 43 44 42 42 38 38 35 33 34 34 35 33 35 37 34 35 41 36 39 36 38 40 45 47 46 47 49 49 50 52 52
52 52 52 52 52 50 47 44 44 44 40 40 42 40 43 44 44 47 37 39 39 37 40 35 33 32 37 34 38 37 42 42 40 39 42 44 46 48 48 49 49 49 49 52
53 53 52 52 52 50 48 45 45 42 39 39 39 45 42 45 44 43 44 41 42 42 40 37 33 33 41 38 38 36 44 42 41 42 44 46 46 47 48 47 49 48 46 48
53 53 52 51 51 48 45 45 44 44 40 38 38 41 43 44 43 41 41 41 39 37 36 34 34 38 38 41 37 37 44 43 43 42 46 46 46 47 48 47 46 47 48 46
52 52 51 50 48 47 43 38 45 46 44 37 34 41 40 43 43 40 38 39 38 38 35 36 38 43 41 35 37 45 45 45 46 46 47 47 47 47 48 47 46 46 47 48
51 51 51 49 48 43 38 38 42 47 46 37 34 36 39 40 40 40 38 39 39 38 36 33 38 39 41 37 35 45 45 46 46 46 46 44 45 46 45 46 45 45 45 45
51 51 50 49 48 45 40 43 47 46 40 38 30 34 37 39 37 36 39 37 38 37 37 39 37 43 40 35 43 44 44 44 44 44 45 44 45 44 43 44 44 43 42 43
51 50 49 44 40 37 38 46 45 43 40 31 32 30 30 39 36 37 37 36 31 39 33 37 40 37 32 38 38 40 40 40 41 42 43 43 42 42 42 42 41 41 40 42
49 45 40 34 37 45 45 40 37 37 38 37 32 32 31 36 35 33 34 35 32 30 35 41 35 36 37 35 36 37 38 40 41 40 40 40 40 40 39 39 41 40 38 39
41 37 33 36 43 38 36 32 31 32 30 35 34 33 31 37 30 30 34 31 33 29 34 33 33 33 33 35 35 37 38 40 40 40 39 39 40 40 39 37 37 37 37 36
41 39 39 38 35 31 28 27 30 29 29 32 32 33 33 35 37 31 33 29 31 27 36 32 31 31 34 34 34 36 37 37 36 37 36 37 37 38 38 36 36 35 36 36
41 37 32 34 28 26 26 22 21 22 28 31 31 30 33 35 35 32 30 28 28 37 32 31 30 33 35 35 34 35 37 37 37 35 36 36 35 35 35 34 33 34 34 34
36 32 26 29 24 27 28 29 28 29 29 29 31 28 30 32 29 31 25 33 32 29 26 26 33 34 35 36 36 34 35 35 34 33 34 34 35 33 32 32 32 32 32 32
31 33 29 23 28 27 27 27 29 28 31 30 29 28 30 26 26 29 28 26 27 27 27 32 35 35 34 33 34 33 33 33 31 31 29 29 29 30 29 29 29 30 31 30
30 27 24 27 28 26 29 28 28 29 30 32 31 26 24 24 24 23 23 25 24 29 31 34 34 31 31 32 33 33 34 34 32 32 32 31 31 30 29 27 27 27 27 26
29 25 30 28 28 28 29 31 30 32 30 25 26 19 21 26 20 21 27 27 31 33 34 35 33 31 31 30 32 32 33 31 30 29 30 30 28 29 29 29 28 27 27 25

GFSNW_sfc_temp_099.txt.gz
Temp
55 55 55 55 55 53 51 55 45 55 57 44 45 38 43 45 45 48 44 42 42 40 41 34 33 31 33 43 46 37 43 36 31 34 41 44 36 38 41 32 33 39 34 39
55 54 54 54 54 52 57 54 52 56 55 37 41 46 44 45 43 43 42 41 44 44 41 36 36 33 37 44 44 42 43 36 28 30 37 40 37 43 44 43 41 33 32 40
54 54 54 54 53 51 55 52 38 50 54 50 43 41 41 40 46 43 43 41 46 42 41 44 35 33 37 44 46 45 46 40 36 31 34 40 34 40 44 42 33 38 42 45
54 54 53 53 52 51 54 53 43 45 39 45 44 42 41 38 38 45 45 39 41 38 34 38 34 34 35 39 41 43 43 33 39 40 40 41 40 40 42 35 41 35 43 46
54 53 53 52 51 51 54 49 45 46 46 43 43 39 40 37 39 40 40 38 42 41 36 35 32 34 34 34 37 35 40 34 37 36 43 42 37 42 44 44 44 44 44 46
54 53 53 52 51 51 53 49 49 51 41 43 43 41 39 38 40 43 44 42 40 40 41 44 45 45 41 37 36 36 34 36 34 30 37 39 32 41 43 45 47 47 41 50
54 53 53 52 50 51 56 53 53 49 43 45 43 39 39 38 39 36 42 44 41 46 50 50 47 46 44 42 37 41 35 35 37 32 36 26 41 48 48 46 48 51 49 51
54 53 53 52 51 51 53 51 52 51 44 46 41 39 39 41 42 38 40 44 47 49 45 43 42 42 40 41 43 36 38 36 35 31 35 39 41 44 44 41 44 52 50 53
53 53 52 51 51 51 52 49 52 52 47 43 42 40 39 39 40 41 41 48 49 47 43 42 35 32 38 37 39 46 42 43 37 37 31 30 41 47 50 49 36 51 52 53
53 52 52 51 51 50 52 48 50 51 45 44 43 41 40 41 40 40 41 41 42 49 42 36 34 36 41 34 34 36 39 41 36 37 35 39 46 48 51 35 39 50 51 54
53 52 52 51 50 50 52 47 50 50 47 43 43 43 41 42 42 37 41 39 42 42 37 37 37 35 39 37 41 38 37 36 38 39 35 30 49 47 40 46 53 53 53 55
53 52 52 51 51 50 51 46 51 52 47 44 47 47 48 46 45 41 42 37 34 37 38 41 40 36 39 38 33 46 36 41 37 40 40 48 51 49 49 52 52 53 54 56
53 52 52 52 51 50 50 49 49 50 46 44 45 43 47 49 48 50 41 41 40 40 41 38 37 33 42 35 37 41 46 47 42 42 46 48 50 51 52 52 52 52 53 55
53 53 52 52 51 50 51 49 50 48 47 44 42 49 46 49 48 47 47 45 45 45 42 38 35 33 44 39 40 39 46 46 45 45 47 48 49 50 51 49 52 51 51 52
53 53 52 52 51 50 48 49 49 50 44 43 42 46 47 48 47 45 44 44 42 40 39 36 34 40 39 42 40 39 49 45 43 39 47 47 48 49 49 48 47 50 50 49
52 52 52 51 49 49 46 40 48 50 49 43 37 44 44 46 46 43 42 42 41 40 37 40 42 45 40 37 37 48 49 50 49 46 50 49 50 50 50 49 48 49 50 50
51 51 50 49 49 47 40 38 44 49 49 43 36 38 43 44 44 43 42 42 40 38 36 34 40 42 42 37 35 47 49 50 50 50 48 47 48 48 49 49 48 48 48 48
51 50 49 49 48 47 41 44 47 48 45 44 34 36 39 43 41 38 41 37 39 39 38 41 39 43 43 36 44 45 46 47 48 48 48 46 47 47 46 47 47 46 45 46
50 50 49 47 44 39 40 46 46 47 43 37 38 35 32 43 40 41 38 38 32 40 34 38 41 39 33 34 37 38 41 41 41 45 46 46 45 44 44 44 44 43 43 43
49 47 42 36 40 46 45 41 39 39 41 41 37 38 35 39 39 36 35 35 33 31 36 43 37 37 37 37 36 37 39 40 42 40 42 42 43 43 43 41 42 41 40 40
45 40 35 39 44 40 39 33 34 35 33 39 38 38 35 40 34 33 37 32 34 29 35 34 34 33 34 38 38 38 40 39 38 39 41 41 41 40 41 40 39 39 39 38
44 41 42 40 37 34 32 29 31 31 33 35 35 35 38 37 40 34 35 29 31 27 38 32 31 33 38 39 38 35 36 38 38 38 37 38 38 39 39 39 38 38 38 38
44 40 34 35 31 29 29 25 26 26 32 34 34 31 37 36 38 34 32 29 29 40 31 32 33 37 39 39 39 38 37 36 36 37 37 37 36 37 36 36 36 37 37 37
39 33 28 32 28 31 32 33 32 32 34 34 35 31 34 35 31 33 27 35 34 29 28 30 38 38 39 39 38 36 35 35 34 34 34 34 35 35 35 34 35 35 35 34
34 34 32 30 30 29 29 31 32 33 36 34 31 31 34 29 28 31 29 26 25 31 31 35 39 37 37 35 35 35 34 33 33 33 31 32 32 32 32 32 31 32 32 32
33 31 28 31 30 27 30 31 29 34 34 35 34 29 26 26 28 25 24 26 27 32 35 37 37 34 33 33 34 34 35 33 34 34 33 33 32 31 31 31 29 29 29 27
32 28 34 32 33 31 31 34 33 37 34 29 30 24 25 28 24 24 31 29 34 36 38 39 37 33 33 32 31 32 33 33 34 33 31 33 30 29 27 26 31 29 29 25

GFSNW_sfc_temp_105.txt.gz
Temp
57 57 57 56 56 54 49 41 33 47 48 33 36 26 39 45 45 48 44 42 40 37 38 32 30 29 31 39 39 31 36 30 20 29 36 38 34 34 35 26 25 29 26 25
56 56 56 56 56 55 44 39 37 46 44 29 27 39 42 43 43 43 43 40 43 44 36 31 32 34 38 40 38 32 36 26 15 20 30 35 33 37 39 37 32 28 24 27
55 56 56 55 55 55 44 38 29 36 37 37 34 35 36 36 43 44 44 40 45 40 37 40 33 34 37 40 40 45 40 31 27 20 27 33 30 35 39 35 28 29 29 33
54 56 55 55 54 54 45 38 33 37 25 32 35 35 36 35 35 41 44 40 41 39 33 35 33 34 34 37 40 38 34 24 30 33 36 37 36 35 36 28 32 25 31 34
55 55 54 54 54 53 41 36 34 35 34 38 35 34 32 33 36 37 39 38 38 41 35 35 32 33 33 32 35 26 32 24 29 29 36 37 33 38 37 37 35 34 35 37
55 55 54 54 53 51 40 38 40 39 36 33 30 29 33 34 37 39 41 38 36 40 38 38 41 42 41 37 36 28 28 26 30 26 34 35 28 35 37 36 37 40 33 41
55 54 54 54 54 51 43 40 38 35 31 32 33 36 36 36 36 33 38 39 37 39 42 41 39 41 41 37 36 37 32 33 32 29 31 20 35 44 43 40 37 43 44 47
55 54 54 53 54 53 42 40 40 36 30 32 34 35 34 35 36 33 36 40 41 41 38 37 34 34 34 35 39 36 36 34 29 28 27 32 38 39 38 37 36 43 44 48
54 54 53 53 54 54 41 39 40 38 32 29 37 33 32 28 27 30 36 42 42 39 39 34 29 25 29 28 33 38 36 36 31 26 27 25 34 40 44 42 31 43 45 44
54 53 53 53 54 53 43 38 41 38 30 32 34 29 29 32 30 28 32 34 36 40 34 32 29 26 33 26 26 29 31 31 28 24 27 30 38 41 46 28 34 44 44 45
53 53 53 53 53 51 44 39 43 39 30 32 38 38 32 33 31 27 31 32 33 32 35 35 34 33 32 30 31 29 29 25 25 27 24 23 41 40 35 40 46 44 44 44
53 53 53 53 53 52 47 39 45 45 35 33 40 40 41 40 37 32 32 31 34 33 30 34 34 34 34 30 26 34 29 31 28 30 30 40 40 40 42 43 42 42 43 45
53 53 53 53 53 52 48 40 41 40 34 32 33 34 40 44 42 42 31 35 39 38 36 35 35 32 35 31 27 27 36 37 32 35 38 38 40 41 46 44 46 46 47 48
53 53 53 53 53 52 49 41 41 40 36 29 30 43 38 42 43 42 40 38 40 37 35 37 34 33 39 34 34 30 34 36 35 34 36 39 40 39 42 46 47 46 46 46
53 53 52 52 52 50 45 41 41 42 39 29 29 37 39 42 41 40 40 38 35 30 28 34 33 37 37 38 35 33 41 36 30 34 38 37 38 42 43 43 44 46 45 43
52 52 52 51 50 50 44 39 41 44 41 30 25 35 35 38 39 39 39 36 34 31 28 27 31 41 38 33 32 38 38 38 39 36 39 40 41 41 43 43 44 44 44 44
51 51 51 50 48 42 38 38 40 46 41 32 26 27 34 39 42 40 38 40 37 33 30 28 29 32 39 36 27 37 38 37 39 39 39 40 40 39 41 42 44 45 44 43
50 50 50 49 49 46 38 41 45 44 38 36 22 24 27 36 31 32 39 35 36 36 34 33 30 36 33 26 35 34 38 37 38 40 41 40 41 39 39 41 42 40 39 40
50 50 50 43 40 35 36 47 45 41 37 27 27 21 19 34 30 37 35 37 31 37 33 35 37 34 27 32 31 31 31 33 35 38 37 41 42 43 43 42 42 39 38 38
49 45 38 32 38 47 45 40 35 33 33 34 27 28 23 30 29 33 33 34 29 28 31 37 28 29 32 33 32 33 37 37 36 35 34 36 36 37 38 39 40 38 37 38
40 34 33 38 46 38 36 31 31 29 28 31 29 26 23 32 24 28 35 30 31 23 30 31 25 31 28 32 32 33 36 37 37 37 36 35 35 34 33 35 37 37 37 36
41 38 40 38 34 30 30 28 30 28 27 29 26 26 27 29 34 32 31 29 30 24 35 30 27 25 30 32 31 31 33 35 37 37 36 36 35 35 36 35 36 36 36 36
41 36 32 32 28 21 25 24 24 23 28 28 28 24 28 29 31 30 30 24 18 34 27 28 24 27 31 31 32 31 31 33 36 36 37 37 36 37 36 34 36 35 34 35
34 30 25 27 18 24 28 30 29 31 31 30 27 22 25 28 22 29 14 24 25 26 23 19 21 28 30 30 31 30 29 29 30 33 35 34 35 34 35 32 31 30 31 31
31 32 27 21 27 27 28 30 31 31 33 29 25 24 25 22 20 22 24 25 13 20 20 20 23 29 30 27 29 26 25 23 19 24 31 33 33 31 29 27 28 28 29 30
30 24 22 27 26 26 28 29 29 31 31 29 27 20 17 16 18 21 12 12 12 19 20 21 20 22 22 23 26 27 26 26 25 27 32 33 32 30 26 23 22 24 25 26
22 23 29 29 29 28 29 31 30 33 29 22 21 18 18 22 15 13 13 15 19 22 22 22 23 21 20 17 18 22 23 24 24 28 33 32 30 28 27 24 24 24 27 26

GFSNW_sfc_temp_108.txt.gz
Temp
57 56 57 57 56 55 50 41 31 45 47 31 29 25 37 44 44 45 42 42 38 35 34 27 30 26 30 37 37 31 36 27 19 27 35 37 35 34 31 19 19 18 21 24
56 56 57 57 56 55 44 37 35 43 45 27 25 36 40 42 43 43 43 40 42 43 35 30 35 29 36 39 36 33 36 25 16 21 29 34 31 35 36 33 27 21 22 26
55 55 56 56 56 55 45 37 29 32 38 34 32 33 34 34 42 44 44 40 44 38 37 39 31 34 35 39 38 44 39 29 25 17 26 32 29 33 37 34 28 29 29 30
55 55 56 55 55 55 45 38 32 33 24 31 32 34 35 33 33 40 43 40 41 38 33 34 33 35 32 36 38 36 33 24 28 31 34 35 34 35 36 26 33 27 33 32
55 55 55 55 55 55 41 37 32 32 33 35 33 34 32 33 34 37 38 39 37 41 35 35 32 33 34 33 32 23 29 23 28 28 34 35 32 36 36 34 34 32 34 37
54 55 54 54 54 52 40 37 37 36 35 31 29 28 31 34 35 38 40 37 34 39 38 40 41 42 40 38 35 28 26 25 27 26 32 32 27 34 34 34 36 35 31 36
54 54 54 54 54 52 43 39 37 34 30 31 32 34 34 33 34 33 37 38 34 37 40 41 40 41 40 38 37 36 29 33 31 21 27 18 33 41 41 36 36 39 41 42
54 54 54 53 54 53 43 40 38 34 28 30 32 33 32 33 33 31 35 38 40 39 37 37 32 34 34 34 39 36 36 33 28 23 20 30 36 38 36 36 35 42 41 43
53 54 54 53 54 53 42 39 39 37 32 29 33 31 30 27 25 29 35 40 40 38 35 35 28 21 27 27 32 38 37 36 30 25 25 23 34 41 42 41 29 41 41 44
53 53 53 54 54 52 43 38 40 37 30 31 32 29 29 31 28 27 30 32 35 38 31 28 27 25 31 25 24 29 32 32 28 23 24 29 37 42 45 29 31 42 42 42
52 52 53 53 53 51 44 39 41 38 30 31 36 36 31 30 29 27 30 31 33 32 29 29 29 27 28 26 28 27 27 24 23 27 24 21 40 38 34 39 44 45 41 42
52 53 54 53 52 52 46 38 44 43 34 33 38 38 38 37 36 32 31 30 30 30 29 30 36 30 29 26 23 31 27 30 27 29 30 38 38 39 43 43 44 43 41 43
53 52 54 53 53 53 47 39 39 39 34 33 33 33 38 42 40 40 31 32 36 33 33 30 30 32 30 24 26 25 34 34 31 33 36 34 37 44 46 45 45 46 46 48
52 53 54 53 53 52 48 40 40 39 36 29 30 42 36 40 41 41 39 37 37 36 33 36 34 32 35 29 32 29 33 33 35 33 37 36 40 38 44 45 46 46 45 46
52 53 53 53 52 50 44 40 40 41 39 29 29 36 38 39 39 38 39 37 33 29 28 34 32 37 36 37 33 33 37 32 29 34 35 35 36 39 41 44 44 45 45 43
52 52 52 51 51 49 44 38 41 43 41 31 26 33 33 36 38 37 36 35 32 29 28 27 30 38 38 30 29 38 38 40 37 35 35 38 39 39 40 42 44 44 44 44
51 51 51 51 49 42 37 38 40 45 41 32 26 27 34 38 42 39 37 37 32 30 28 28 28 31 37 32 25 38 38 38 35 35 37 38 41 39 39 40 42 44 43 43
51 50 50 50 49 46 39 40 45 43 38 35 21 25 27 36 31 31 38 35 33 31 30 30 29 32 31 26 32 32 33 34 34 35 39 38 38 41 40 41 41 39 38 38
50 50 49 44 40 36 37 47 45 40 37 27 24 20 18 32 31 37 36 36 26 35 32 31 32 30 27 32 31 31 30 30 32 34 35 37 38 40 40 41 41 40 40 40
49 43 38 32 37 46 45 39 33 32 32 32 26 28 23 29 28 33 33 33 26 24 28 34 33 27 32 32 31 31 32 37 36 34 34 36 35 36 36 37 39 38 37 37
40 34 33 38 45 38 36 28 27 27 26 29 27 25 25 31 23 27 32 25 28 22 25 29 27 26 27 30 30 32 33 34 36 37 37 37 36 35 33 32 35 35 35 34
40 39 40 38 35 31 25 23 26 25 26 26 25 25 27 28 31 24 31 24 28 14 34 29 25 25 28 30 30 30 31 31 33 37 37 37 36 37 36 36 36 36 37 36
40 36 32 32 29 19 20 18 19 21 25 25 25 22 28 29 30 25 28 18 18 34 28 27 25 27 29 29 30 30 30 31 31 32 34 34 35 37 37 36 36 35 33 34
35 30 25 27 18 23 24 28 30 31 27 28 27 23 25 28 22 30 14 24 25 22 18 17 20 27 29 29 29 28 28 28 28 29 30 31 33 34 36 34 33 31 29 30
31 31 26 21 25 27 30 31 31 31 33 28 26 23 24 17 18 22 24 24 11 20 19 21 21 28 28 26 28 25 23 21 17 18 19 23 26 31 32 32 31 30 28 28
29 23 21 27 25 27 27 30 29 31 29 28 26 19 15 15 17 15 11 13 11 18 19 20 19 20 20 22 26 26 24 24 23 24 24 27 29 32 30 29 28 25 23 22
23 22 27 25 26 27 28 32 31 33 30 23 21 18 16 21 14 13 14 14 18 21 22 20 22 22 19 18 17 19 20 21 21 23 26 31 32 28 27 27 26 23 24 23

GFSNW_sfc_temp_111.txt.gz
Temp
54 55 56 56 56 55 51 42 34 43 45 34 27 24 35 44 45 44 40 39 35 34 34 31 18 18 25 37 36 31 36 30 23 28 35 37 33 33 32 23 21 25 18 24
55 56 56 56 56 55 45 36 35 46 46 23 24 33 38 40 43 43 41 38 41 42 36 27 29 28 35 37 36 33 35 26 15 21 28 34 31 34 34 32 26 26 15 25
56 56 55 55 56 55 46 37 27 36 41 36 30 32 32 33 40 44 44 40 44 37 34 37 30 30 34 37 36 43 38 27 24 16 25 31 29 34 34 30 21 25 26 31
56 55 54 55 55 54 46 37 29 33 30 30 30 32 33 32 33 38 43 39 40 38 30 33 33 36 30 34 37 34 31 23 25 29 31 32 33 33 34 27 32 22 31 31
55 54 54 55 55 53 43 36 32 31 29 32 31 33 31 32 33 35 35 36 38 41 32 34 32 34 34 33 33 23 28 22 27 28 33 32 32 34 34 32 34 32 33 33
55 54 54 55 55 52 41 38 37 36 32 28 29 28 31 33 35 36 38 37 34 39 37 40 41 41 40 38 34 26 25 24 26 20 30 32 26 32 31 34 36 36 29 35
54 54 54 54 54 49 42 39 37 34 30 30 31 32 33 32 33 32 36 37 34 37 41 42 41 41 39 37 33 34 31 33 32 25 27 18 34 38 38 35 36 36 38 39
54 53 53 54 54 52 42 38 38 34 27 29 31 32 31 31 32 32 34 37 38 39 37 36 32 34 33 35 37 36 36 33 28 21 18 28 32 36 34 32 34 39 39 42
53 53 53 52 53 54 42 37 38 35 31 29 33 30 29 26 24 28 33 38 38 37 36 35 29 21 26 27 32 38 37 35 29 25 22 20 34 41 41 38 31 43 42 41
53 53 52 50 52 53 44 38 39 36 29 30 30 28 29 30 28 26 29 31 33 36 30 27 27 24 28 24 24 30 32 32 28 27 24 26 37 40 44 26 28 39 39 40
53 52 51 52 53 52 46 39 41 37 30 30 34 35 29 30 29 27 30 31 32 31 28 27 27 26 27 24 26 25 26 23 23 25 24 21 37 36 35 37 41 41 40 40
52 52 52 54 53 52 48 39 43 42 33 32 36 36 36 36 35 31 30 30 29 31 29 28 29 28 26 24 21 29 26 29 28 28 27 36 36 40 43 43 43 43 39 41
52 53 53 54 52 52 48 41 40 39 33 32 32 31 37 40 37 39 31 31 35 32 32 29 28 29 28 23 25 23 30 32 29 31 36 32 38 44 45 45 44 45 45 47
53 52 52 53 53 52 48 42 40 39 35 30 30 40 35 40 39 39 37 36 36 34 32 31 29 29 33 27 30 27 31 31 32 31 33 36 41 38 44 45 45 45 46 45
52 52 52 53 52 51 44 41 40 41 39 29 29 35 37 37 38 37 37 36 32 29 29 29 28 32 32 32 30 27 32 31 29 29 34 34 34 36 39 44 44 45 45 44
51 52 51 52 51 50 43 38 41 42 40 31 26 33 35 36 36 36 35 33 30 28 28 27 28 35 34 28 25 34 34 35 35 34 33 36 38 38 38 42 44 44 44 44
51 51 51 51 50 42 39 37 40 45 40 31 25 26 37 40 42 37 33 34 30 29 28 28 27 29 36 29 24 35 35 35 33 33 35 35 41 40 41 42 43 44 43 43
51 51 50 50 49 46 39 40 45 43 37 33 20 25 30 38 33 32 36 30 30 30 28 28 28 31 32 25 31 31 36 33 33 32 34 34 36 39 41 42 42 41 40 40
50 50 50 45 40 37 37 47 45 39 37 27 23 20 18 35 35 34 35 31 24 31 27 28 30 28 24 31 30 31 32 31 30 32 33 34 36 37 39 39 39 38 39 40
49 44 38 33 37 46 45 40 33 32 32 31 25 27 24 31 28 30 27 30 25 20 27 31 27 27 32 31 31 32 32 33 35 34 30 32 32 33 34 36 37 37 37 37
39 33 33 39 45 39 36 30 27 27 26 29 26 24 25 30 23 23 29 21 22 15 24 23 24 24 26 29 29 31 32 33 33 34 34 36 36 35 35 35 35 36 36 36
39 39 40 38 34 31 29 22 25 23 25 25 24 25 27 27 30 24 24 20 20 13 29 23 17 25 27 28 29 29 30 31 31 31 31 32 34 35 36 36 36 37 37 37
40 36 32 32 30 23 19 17 17 16 25 25 25 24 28 28 29 23 20 12 15 29 27 24 24 26 28 28 29 29 29 29 28 29 30 31 31 33 34 34 35 36 35 35
34 30 24 28 23 23 21 24 27 30 26 27 25 23 25 28 22 23 14 23 24 24 17 17 20 26 28 28 28 29 27 27 27 28 28 28 27 28 30 31 33 33 31 32
31 31 28 22 26 26 28 28 30 30 33 28 24 22 24 15 21 22 24 23 12 19 18 21 20 27 27 25 28 24 22 20 16 15 15 20 21 22 24 28 32 31 30 29
29 24 22 27 26 27 27 28 27 31 32 28 24 16 14 17 17 13 12 13 12 18 19 19 19 21 20 21 26 26 25 23 22 23 22 24 24 24 27 28 29 29 27 24
26 24 27 23 23 26 28 31 30 35 33 24 21 17 17 17 11 10 11 14 19 20 24 20 20 23 19 17 17 18 19 19 18 21 24 25 27 28 28 27 28 27 25 22

GFSNW_sfc_temp_114.txt.gz
Temp
54 55 56 56 55 55 52 42 34 46 48 35 28 24 33 45 43 42 39 37 34 31 34 31 15 17 22 36 36 29 32 26 18 27 36 35 34 32 32 20 20 24 18 29
54 56 56 55 55 56 45 37 38 46 46 24 23 32 36 40 43 42 38 37 38 42 36 29 27 27 34 37 34 30 33 23 13 21 28 33 32 34 34 30 25 25 18 26
56 55 55 54 55 55 45 36 30 38 40 38 28 30 32 33 41 44 42 38 41 38 34 36 32 29 33 36 35 42 36 26 23 18 25 30 30 33 33 29 25 20 27 30
56 55 54 54 54 54 46 36 30 35 31 33 29 31 32 32 33 37 43 36 39 38 31 34 32 35 30 33 36 33 30 22 25 28 31 31 32 32 31 31 32 22 27 32
55 54 54 54 55 53 42 36 32 31 28 30 29 32 30 32 32 33 33 34 38 40 30 32 32 33 32 32 32 22 27 21 26 27 32 33 31 34 32 34 34 33 33 33
54 53 53 54 54 52 40 36 36 36 30 28 28 28 30 33 34 35 36 36 33 35 37 40 40 41 39 37 30 25 25 23 25 17 29 32 27 30 31 34 36 34 29 33
54 54 54 54 54 50 43 38 36 33 29 30 31 31 32 32 33 32 34 36 33 35 43 42 42 41 39 35 31 33 32 31 29 21 25 16 33 36 36 35 37 36 36 38
54 54 54 54 53 52 42 38 37 32 27 29 30 31 29 30 31 31 34 36 36 38 36 36 33 33 34 35 37 37 36 32 27 19 25 28 31 37 33 29 32 37 37 39
54 53 53 54 54 53 42 38 37 34 30 28 31 29 28 25 24 28 33 37 37 36 34 36 27 21 27 27 32 38 37 35 29 24 20 18 30 40 38 36 28 42 38 38
53 53 52 51 52 52 44 39 39 35 29 29 28 28 29 29 27 26 29 31 33 35 30 27 24 23 27 23 24 30 32 30 29 28 23 25 36 37 39 26 28 40 38 38
53 52 51 51 51 52 46 39 40 36 29 29 32 34 29 29 28 27 30 31 32 30 28 27 27 25 26 23 25 23 25 22 25 24 22 19 35 36 34 36 42 40 39 39
53 52 51 52 53 52 48 38 42 40 32 31 34 35 35 34 33 30 29 29 28 31 29 28 28 28 25 23 20 27 25 28 26 27 27 35 35 37 41 43 43 43 38 40
52 52 52 53 54 53 49 39 39 37 31 31 31 31 37 39 37 37 31 30 33 31 31 29 28 28 27 23 25 22 27 30 28 30 32 31 39 40 42 43 43 45 45 45
52 52 53 53 53 52 49 42 40 38 34 29 29 40 35 39 38 38 37 35 34 33 31 30 28 29 31 26 28 27 30 30 30 29 30 36 41 39 38 44 45 45 46 45
53 52 53 53 53 51 43 42 40 40 38 29 29 34 36 37 37 36 36 35 31 29 30 28 28 30 30 29 29 26 31 31 28 28 33 33 36 34 39 43 43 44 43 43
51 51 51 52 52 50 42 37 41 43 40 31 26 33 35 35 36 35 34 32 29 28 28 27 28 32 31 26 25 32 32 33 35 33 34 35 36 36 40 42 43 44 44 43
51 51 51 51 51 42 38 37 40 45 40 32 27 29 36 38 37 33 32 32 29 29 27 28 27 29 32 28 23 33 33 34 33 32 33 33 36 36 41 42 43 43 43 43
51 50 50 49 50 46 39 40 46 43 36 33 22 25 31 38 32 29 32 29 29 29 28 28 28 30 29 25 30 30 32 32 32 32 32 33 33 35 37 41 41 40 40 40
50 49 48 44 41 38 38 47 44 38 36 26 26 22 21 34 31 30 30 30 24 30 26 27 29 28 24 30 29 30 31 32 32 32 31 32 33 34 34 35 35 37 37 38
48 43 37 32 37 46 45 39 32 30 30 30 26 28 26 33 30 28 25 27 22 15 26 30 26 26 31 31 31 32 32 33 33 31 29 30 29 31 31 31 34 35 36 37
39 33 33 39 45 39 35 29 25 26 26 29 26 25 26 30 23 22 28 20 20 14 24 22 20 23 25 29 29 30 31 33 32 32 31 31 31 31 31 31 33 35 36 36
39 39 40 38 35 32 29 24 24 23 25 25 24 25 28 28 30 24 23 19 18 13 27 21 16 24 26 27 28 28 30 31 30 30 29 29 31 30 30 30 31 32 34 34
40 35 32 32 30 24 23 18 16 14 24 26 26 25 27 28 29 23 18 13 15 28 26 23 23 25 26 27 28 28 28 30 29 27 28 28 30 30 29 29 30 30 31 32
32 30 26 28 25 24 22 22 25 27 28 28 28 25 25 28 23 23 16 24 23 23 12 16 19 25 27 27 28 28 28 28 27 27 27 27 26 26 26 27 28 28 28 31
31 31 26 25 27 23 22 25 27 28 33 28 25 22 24 16 20 24 24 22 18 19 18 21 20 26 27 25 26 25 24 20 17 15 15 17 18 20 21 24 25 27 30 30
31 27 20 26 23 27 28 25 28 31 32 27 25 19 16 17 19 16 16 15 13 19 20 19 19 24 22 23 26 26 25 24 22 23 21 23 23 23 22 22 29 28 27 26
26 23 26 26 20 24 29 31 31 37 34 23 22 21 21 18 11 12 14 14 18 19 20 20 20 23 21 18 19 20 21 20 18 20 23 22 24 21 21 21 23 23 27 24

GFSNW_sfc_temp_117.txt.gz
Temp
57 56 55 55 56 57 51 42 34 45 48 35 31 23 33 44 42 42 37 37 33 33 34 20 14 16 22 35 34 29 32 27 20 28 36 36 33 32 32 22 23 25 25 27
56 55 55 56 57 54 44 38 38 46 46 27 25 32 35 41 43 40 39 36 38 42 34 24 27 27 34 36 34 30 33 24 16 23 33 35 31 36 33 32 29 25 24 29
56 56 56 56 55 54 45 37 32 38 40 38 28 29 31 33 43 44 41 37 39 39 35 34 28 29 34 36 35 42 36 27 24 20 27 31 30 33 35 31 27 29 28 32
55 55 55 54 54 55 45 36 29 33 32 34 29 30 32 32 33 37 42 36 36 38 31 32 31 32 30 34 37 33 31 24 27 30 31 32 32 31 34 31 31 30 31 32
54 54 54 54 54 54 41 35 31 30 28 30 29 31 29 32 32 33 32 33 36 36 30 31 31 33 30 33 31 22 28 23 27 28 32 33 31 32 32 33 34 33 35 35
54 53 54 54 54 52 40 36 36 35 30 28 27 27 30 33 34 35 35 35 33 32 36 40 40 41 38 34 29 27 26 25 26 20 29 32 26 31 31 35 37 34 30 36
53 54 53 53 52 49 42 37 36 32 28 30 31 31 32 32 32 32 33 36 33 35 43 43 42 41 38 35 33 32 29 29 28 19 25 17 33 36 36 35 38 36 36 37
54 54 54 54 53 52 41 37 36 32 27 30 30 30 29 29 30 31 33 35 35 37 36 37 34 33 34 36 38 37 36 30 26 23 26 29 32 37 35 31 33 38 37 38
54 54 54 54 54 51 42 37 36 34 31 28 30 28 26 26 23 28 32 35 36 36 34 36 27 21 28 27 34 38 38 36 28 25 20 18 33 41 39 37 30 42 38 38
53 53 53 53 53 53 44 38 38 35 29 28 28 27 28 28 27 26 28 31 33 35 30 28 24 23 27 23 24 30 33 30 29 31 23 26 35 38 41 27 30 41 38 38
53 52 52 52 53 52 45 38 39 36 30 29 31 32 29 28 28 27 30 31 32 30 28 27 27 25 25 23 25 24 25 23 25 25 22 19 35 37 35 38 43 42 42 39
52 52 52 52 53 52 47 37 41 40 33 31 34 34 34 33 33 30 29 30 29 31 29 28 27 28 23 23 20 26 24 28 26 28 28 34 36 37 43 43 43 43 41 41
52 52 53 52 54 53 47 39 38 36 32 31 32 30 35 38 36 36 31 30 33 31 31 28 28 28 27 23 24 23 28 30 28 30 32 33 40 40 43 43 44 45 45 45
53 53 53 52 54 52 48 40 39 37 33 29 29 39 33 38 37 37 36 35 33 33 31 30 28 29 30 26 28 27 29 30 29 29 31 35 41 38 38 43 46 45 45 45
53 53 52 53 53 52 44 41 40 40 38 30 28 33 36 36 36 36 36 34 31 29 29 29 28 29 29 28 27 25 30 30 28 28 34 34 35 36 38 40 41 44 44 43
51 52 52 52 52 49 43 36 40 42 39 30 26 33 33 33 34 34 33 32 29 28 29 27 28 31 30 26 24 32 32 33 34 33 34 36 36 36 38 41 43 44 43 43
51 51 51 51 51 42 35 37 40 44 39 31 27 29 36 35 35 33 31 31 29 29 27 28 26 28 31 27 23 32 32 33 33 33 35 33 36 35 37 38 42 44 43 43
52 51 50 50 49 46 37 40 46 42 36 33 21 25 28 35 29 28 31 29 29 29 28 27 27 29 28 25 29 28 31 32 31 33 33 34 34 34 35 37 38 39 39 39
51 50 48 44 41 37 38 46 44 38 36 27 25 21 20 32 30 30 30 30 24 30 26 27 29 27 24 30 29 29 30 31 32 32 32 33 33 33 33 33 33 32 33 35
49 44 38 32 37 47 46 39 31 30 31 30 27 29 24 29 28 26 25 27 22 15 26 29 26 26 31 31 31 32 31 32 32 30 29 30 30 31 31 31 33 33 33 33
39 33 33 39 45 39 35 30 26 26 26 29 26 25 25 30 23 24 28 20 21 17 23 22 19 21 25 29 29 30 31 32 32 33 33 33 32 30 30 30 31 31 32 31
39 39 40 39 34 32 29 25 24 23 25 24 23 25 27 27 30 25 24 20 18 14 27 22 16 24 26 27 27 28 30 30 31 31 31 30 31 29 29 29 29 29 31 31
40 35 32 31 30 26 22 17 14 12 23 24 26 25 28 28 29 24 19 14 17 28 24 22 23 25 26 26 27 27 28 29 29 28 29 28 29 28 28 27 27 28 27 29
33 30 26 28 24 25 22 20 21 25 25 28 31 26 26 28 23 23 17 24 24 23 18 17 19 25 26 26 27 27 27 28 28 28 28 27 25 25 25 26 25 25 25 28
31 31 27 27 27 22 19 21 23 26 33 29 26 23 24 20 18 23 21 20 19 20 19 22 20 25 27 25 26 25 24 20 16 15 15 17 17 18 19 23 24 25 26 26
31 30 26 24 22 26 27 20 22 29 33 28 25 19 16 15 19 17 17 16 15 21 22 21 21 26 25 25 26 25 24 22 21 22 19 22 22 21 20 20 20 20 21 20
29 24 26 25 20 25 27 28 29 35 32 26 21 18 19 18 10 13 17 18 22 21 20 20 23 26 23 21 21 21 21 20 19 21 23 23 26 21 21 18 21 25 25 22

GFSNW_sfc_temp_120.txt.gz
Temp
56 56 56 57 56 56 51 45 36 46 52 39 39 37 39 44 44 47 44 44 40 38 37 30 28 28 30 41 40 34 40 33 30 35 42 40 34 34 36 31 28 30 32 28
56 56 57 57 56 55 47 39 39 48 47 32 35 40 41 43 44 44 43 41 43 45 38 31 34 34 41 41 39 36 40 35 29 34 40 43 35 38 38 35 34 30 29 30
57 57 56 55 56 55 52 45 34 40 43 42 39 39 39 40 46 45 46 43 45 43 39 40 35 36 39 41 40 41 41 38 33 28 29 33 32 37 41 39 32 31 30 33
57 55 55 55 55 55 53 45 37 41 34 38 40 40 40 38 38 44 46 43 42 41 36 37 36 38 39 40 39 40 40 34 37 37 38 37 36 35 37 33 35 31 32 32
56 55 55 55 55 54 47 43 39 41 39 39 39 38 38 38 38 40 40 40 41 42 37 38 36 37 38 36 40 34 38 35 37 36 40 39 36 36 39 38 37 37 38 36
54 55 54 54 54 54 47 44 45 47 36 38 38 39 39 40 41 41 41 43 42 40 40 44 45 46 44 42 38 38 36 37 36 30 38 38 34 33 34 36 37 37 33 37
54 54 54 53 53 51 49 45 47 45 35 40 39 39 40 39 40 39 41 44 43 43 47 47 46 45 43 43 42 41 37 37 38 33 37 26 36 43 39 36 38 40 42 44
54 53 53 54 54 52 47 45 47 45 37 40 38 38 38 40 40 39 40 42 43 46 43 39 36 39 39 40 42 43 43 40 35 32 30 34 38 41 39 37 35 42 43 46
53 53 54 54 53 51 48 44 44 46 42 38 40 39 39 39 39 39 39 44 46 46 41 38 30 31 33 33 37 44 42 43 38 33 28 26 38 43 45 44 34 44 46 45
53 53 53 52 54 53 50 44 44 46 39 38 38 40 39 40 39 40 40 41 42 44 41 36 35 35 36 33 32 34 37 38 34 36 31 36 43 44 45 34 36 43 46 46
53 53 53 52 52 53 50 44 44 45 39 37 38 39 38 38 40 39 40 40 40 40 36 37 38 37 38 35 36 35 35 34 33 34 32 28 43 43 39 44 46 44 44 46
53 53 52 52 51 53 49 45 46 46 41 38 40 41 42 41 42 42 38 39 38 44 42 40 41 38 37 36 35 38 34 39 39 38 39 42 45 45 47 47 46 45 46 47
53 53 52 52 52 52 50 44 45 44 39 38 39 38 42 43 43 44 42 41 42 40 42 43 42 37 41 37 37 37 39 40 39 38 42 43 46 48 49 48 48 49 49 48
53 54 54 52 52 52 49 45 46 44 42 37 36 43 40 44 43 42 43 42 41 42 43 42 41 39 40 40 38 38 43 40 40 39 41 43 46 48 48 48 49 48 49 49
53 53 54 53 52 51 46 45 46 46 42 37 35 39 42 42 42 41 42 42 41 42 40 41 40 41 39 39 38 37 42 42 40 42 48 47 47 47 47 47 47 48 48 47
52 52 52 52 51 48 45 41 47 47 46 37 31 39 39 40 41 40 39 40 40 41 42 41 40 39 40 36 36 44 44 44 47 46 47 46 47 47 47 47 47 48 48 47
52 52 51 51 49 45 41 42 44 46 46 38 30 32 39 41 40 39 39 38 39 40 39 37 39 38 40 37 34 44 43 45 43 45 45 42 44 44 45 45 46 46 47 47
52 52 51 50 49 48 44 46 47 45 42 40 29 30 33 41 35 34 38 36 37 37 38 36 36 37 37 32 41 40 42 42 41 43 43 44 45 44 43 44 44 43 43 43
51 52 49 45 42 38 42 47 46 43 41 34 32 27 26 38 35 36 35 37 32 36 34 35 36 36 31 39 41 39 39 40 40 40 41 41 42 41 40 41 40 40 41 41
50 45 40 33 38 47 46 42 38 38 39 37 33 35 29 35 33 32 32 33 32 28 34 36 32 34 41 41 42 43 41 42 41 37 35 37 38 39 39 39 40 40 39 39
41 35 34 39 46 40 36 32 32 35 32 35 34 34 29 35 30 30 34 29 30 25 31 30 30 31 36 40 39 40 42 42 42 43 43 43 43 40 38 38 38 38 38 37
41 39 41 39 35 33 30 29 31 29 31 31 29 30 34 33 36 31 29 27 26 24 33 27 25 35 36 36 37 37 40 40 39 40 39 39 39 39 38 37 36 36 36 36
40 36 32 32 32 27 26 23 24 23 29 29 29 29 31 31 33 30 27 23 24 32 26 27 34 35 34 35 35 35 38 38 37 36 38 37 36 35 35 34 34 34 34 35
34 31 27 28 27 30 30 31 31 33 31 30 33 29 31 33 29 29 25 29 29 23 22 25 36 34 34 34 35 34 34 35 35 35 35 35 34 33 32 32 32 32 32 33
32 32 28 28 34 30 31 31 31 31 34 33 30 29 31 27 25 28 25 21 21 25 27 33 34 34 32 32 32 33 32 29 27 27 27 27 27 28 28 30 30 31 31 32
33 32 30 29 30 27 27 27 29 34 35 33 31 27 24 26 26 22 22 23 23 30 30 33 31 31 32 32 33 33 32 31 30 29 28 29 28 27 28 28 29 29 28 27
31 29 33 32 31 32 31 31 32 37 34 29 27 25 29 24 22 22 26 25 33 32 30 30 33 31 31 30 29 28 28 28 29 29 29 30 30 29 28 28 30 31 30 26

GFSNW_sfc_temp_126.txt.gz
Temp
57 57 57 57 57 56 54 46 36 52 55 39 42 36 44 46 47 50 47 47 44 41 40 30 27 26 30 44 42 35 40 31 25 33 43 44 36 35 36 27 27 30 28 27
56 56 55 56 56 57 49 43 42 53 51 35 37 44 44 47 47 46 45 44 46 47 41 32 35 35 44 44 41 35 38 30 25 28 36 41 34 35 38 37 34 28 23 27
56 56 56 56 56 56 51 46 35 44 48 47 42 41 41 40 48 47 48 46 48 45 41 43 36 37 41 43 43 44 40 34 31 24 29 34 32 34 37 35 28 29 29 31
56 55 55 55 55 55 51 47 41 44 34 39 42 43 42 40 40 46 48 44 45 42 36 40 38 40 39 42 44 40 38 29 35 36 39 39 36 35 36 32 33 29 32 32
56 55 54 54 55 56 50 41 41 45 42 45 42 38 38 40 42 42 42 41 44 45 38 39 36 39 38 36 39 31 38 30 34 32 40 39 34 36 37 36 36 35 37 35
55 55 54 54 54 55 49 48 50 44 40 41 39 38 40 42 43 44 46 44 43 41 42 45 45 45 44 41 36 35 35 31 32 24 37 36 28 34 35 37 39 37 32 39
55 54 54 54 54 55 51 46 44 41 36 39 40 42 43 42 42 40 45 46 42 43 49 49 46 45 45 44 42 43 36 35 35 25 31 19 34 42 43 40 41 43 43 45
54 54 54 55 54 54 49 48 44 41 37 41 40 41 41 41 41 40 43 44 44 47 43 38 36 37 38 42 44 41 42 37 29 24 22 31 36 40 41 38 37 45 43 44
54 54 54 54 54 54 51 45 46 43 37 36 43 40 40 36 36 36 41 45 46 44 41 38 28 26 31 32 37 44 43 41 31 30 24 23 35 42 44 44 28 42 46 42
54 54 54 53 53 53 50 46 47 44 38 38 40 37 36 42 39 37 38 40 40 43 38 34 29 30 35 27 28 33 35 34 29 30 25 31 41 43 44 28 33 42 43 45
53 53 54 53 53 53 50 45 47 44 40 38 41 43 38 39 39 34 39 37 38 36 34 32 33 31 34 30 35 32 32 28 26 30 26 23 44 41 34 39 42 42 41 44
53 53 53 54 53 53 51 45 49 49 41 39 43 43 43 42 40 36 40 37 38 39 35 36 35 33 34 33 28 35 28 35 31 33 32 41 42 43 46 47 43 42 42 43
53 53 54 54 53 53 51 46 46 45 40 38 37 37 43 46 45 45 34 40 42 40 40 35 36 31 35 29 31 32 37 39 33 35 38 39 43 45 47 48 46 46 46 46
53 53 53 53 53 53 51 46 46 44 42 35 35 45 40 45 45 44 43 40 43 41 39 36 34 33 39 33 35 33 37 37 36 36 39 41 44 45 46 47 48 48 48 47
52 52 52 53 53 53 49 46 48 47 40 34 35 40 42 44 42 42 42 41 39 36 34 33 33 37 35 37 34 32 39 36 34 33 42 40 42 45 48 46 46 47 46 45
52 52 52 53 52 51 46 40 45 48 46 36 31 38 38 39 41 40 40 39 38 36 34 35 37 39 35 30 30 41 43 45 46 42 44 45 46 46 47 46 47 47 46 46
52 52 52 52 51 46 42 41 43 49 45 37 31 31 37 41 40 38 36 38 36 35 34 33 34 34 35 32 28 42 45 45 43 44 44 41 43 41 46 47 46 47 46 45
52 51 52 51 50 48 42 45 48 47 41 39 28 29 31 40 34 32 37 33 34 34 33 33 31 33 33 28 38 41 44 44 42 43 42 43 44 44 44 44 44 42 42 42
51 50 49 46 42 39 41 48 47 45 41 32 30 26 24 38 35 36 33 34 28 35 30 31 33 31 28 34 37 40 41 40 40 42 42 42 41 41 41 41 41 40 40 40
50 47 41 35 39 47 46 40 36 36 36 36 30 34 26 33 33 32 33 32 28 21 31 33 28 29 39 40 41 42 43 42 42 37 35 38 37 38 38 38 39 39 38 37
43 38 36 40 46 40 37 33 32 34 30 33 32 33 26 33 30 31 35 29 26 19 28 24 25 26 32 41 45 42 43 44 44 41 41 41 41 39 38 37 38 37 36 34
43 40 42 40 36 33 31 30 31 31 27 31 29 28 30 30 34 32 31 28 26 18 31 21 20 32 36 39 39 41 43 42 41 41 40 40 40 39 38 36 35 35 34 34
42 37 33 32 32 26 26 24 27 24 30 29 27 24 29 29 31 31 29 25 23 30 23 23 28 36 34 35 36 38 40 41 40 39 39 38 37 37 36 33 33 33 32 32
35 32 27 27 26 28 28 29 28 31 30 31 30 24 26 30 26 29 23 29 27 16 17 20 30 38 34 34 36 36 35 36 35 34 34 33 33 31 32 31 31 30 29 29
32 31 26 28 31 31 32 31 30 30 34 33 27 25 27 26 21 26 25 20 16 21 22 28 30 35 35 32 33 34 32 32 30 30 29 28 28 27 25 27 28 28 28 28
32 32 29 32 30 28 28 26 26 30 34 30 29 22 18 19 22 18 19 16 17 23 27 30 29 31 31 31 32 32 31 30 29 28 28 28 27 26 24 24 22 23 23 22
31 30 35 30 29 30 29 29 29 36 33 25 26 23 22 23 17 16 22 20 28 31 30 29 30 31 32 33 32 30 29 27 27 27 27 27 28 27 25 22 24 23 22 18

GFSNW_sfc_temp_129.txt.gz
Temp
57 57 57 57 58 57 51 42 29 46 49 33 32 27 38 47 44 46 43 42 39 36 34 26 21 22 27 40 38 31 36 27 21 29 41 41 34 34 35 29 27 28 27 27
56 56 57 57 57 56 42 36 35 46 45 25 27 37 42 43 43 42 42 40 42 42 37 28 31 31 40 41 38 32 35 26 20 25 32 39 35 35 37 36 33 28 25 27
56 56 56 56 57 56 44 39 32 35 38 37 31 33 35 36 45 44 45 42 43 40 37 39 33 34 39 41 40 45 39 29 28 22 29 34 32 34 35 34 29 29 29 31
56 55 55 55 56 56 44 37 32 37 27 33 35 36 37 36 36 43 44 40 41 39 32 35 34 37 36 39 43 38 34 26 31 34 37 36 33 35 35 32 33 29 31 32
56 55 54 55 55 55 41 34 33 36 33 37 35 36 35 36 38 39 38 37 41 40 33 33 31 35 34 32 36 28 34 27 32 31 37 35 31 35 34 36 36 35 35 34
55 55 54 54 54 51 39 38 39 38 36 33 31 30 34 38 40 40 43 40 37 36 38 40 40 40 40 39 34 33 32 27 28 20 34 33 26 32 34 37 39 37 32 37
55 54 54 54 54 52 41 38 36 33 31 32 34 38 39 38 38 36 41 41 37 40 45 44 42 40 40 40 39 39 33 31 31 22 27 17 32 40 41 39 41 41 40 42
54 54 54 54 54 54 42 39 36 33 30 33 34 37 36 37 38 36 39 40 41 42 39 34 31 32 34 37 40 38 37 33 26 22 15 29 34 38 37 35 34 43 38 40
54 54 54 54 54 54 44 39 39 35 32 32 37 35 34 30 28 32 38 42 43 41 36 32 26 23 28 29 33 40 39 37 28 27 22 21 33 39 43 40 28 40 41 39
53 53 53 53 53 53 45 41 41 36 32 33 35 33 33 34 31 30 34 36 36 39 31 28 25 26 32 26 25 29 30 29 25 26 22 29 38 42 43 26 30 40 40 40
53 53 53 53 53 53 46 41 42 38 32 34 38 39 34 34 33 29 35 34 35 32 29 28 29 28 30 27 31 29 29 24 23 27 24 21 41 38 33 37 40 41 40 40
53 53 53 54 53 53 50 39 45 43 36 36 39 41 40 39 38 34 34 34 34 35 30 31 30 30 29 28 24 33 28 33 30 31 31 39 40 39 42 43 41 41 41 41
53 53 53 54 54 53 51 44 42 39 35 34 33 35 40 43 41 41 34 34 38 37 37 32 31 28 30 26 27 29 33 36 32 34 35 37 41 41 44 44 43 44 44 45
53 53 53 53 53 53 51 45 45 39 36 29 32 42 37 43 42 41 40 39 39 38 35 32 30 30 35 30 32 30 35 35 33 32 36 36 41 42 44 45 45 45 45 45
53 53 52 52 52 53 48 46 46 46 39 30 31 37 38 40 40 39 39 38 36 33 31 30 30 33 33 32 31 27 35 34 33 32 38 38 38 42 44 43 43 44 43 42
52 52 52 52 53 52 46 39 42 46 42 30 26 35 33 36 38 39 37 36 35 33 31 31 32 37 34 27 26 36 37 39 41 41 40 42 43 43 44 44 44 44 44 43
52 51 51 52 51 45 40 37 42 47 41 33 27 28 34 37 37 36 36 36 33 32 32 31 31 32 35 28 27 37 40 41 41 42 43 38 40 40 43 45 44 46 43 42
52 51 51 51 50 48 43 45 48 47 40 37 21 26 27 36 30 29 36 33 32 32 31 31 30 32 31 27 34 38 41 40 39 40 39 42 42 41 41 42 42 40 39 39
51 51 50 46 43 39 41 48 47 44 41 32 27 21 20 33 30 31 31 33 29 33 29 29 31 29 26 34 35 35 37 38 38 39 40 39 40 40 39 40 39 38 37 37
50 45 41 34 39 47 46 39 35 35 36 35 28 29 23 29 28 27 27 30 27 19 30 32 27 28 37 39 41 43 39 40 39 35 35 36 37 38 38 38 38 38 37 35
40 37 35 40 46 40 35 33 32 33 30 33 30 28 24 30 24 24 30 22 24 16 26 27 21 25 32 37 39 43 40 40 42 43 43 40 41 39 37 36 36 36 35 33
41 40 42 40 36 33 31 30 31 30 28 27 24 25 28 28 31 25 26 21 23 17 28 22 17 30 37 35 37 39 39 40 40 39 39 38 40 39 38 36 34 34 33 32
41 37 33 32 31 26 26 21 24 24 26 25 24 22 27 28 29 25 20 22 21 27 21 21 23 35 37 35 35 37 37 40 39 37 38 38 37 37 37 34 33 32 30 30
34 31 26 27 25 27 28 25 25 28 25 25 24 19 24 28 27 23 21 23 23 20 17 18 30 36 38 34 34 35 34 36 36 36 35 35 35 32 33 33 32 30 28 28
32 31 26 27 29 25 27 28 27 27 30 28 23 21 24 21 17 26 20 21 17 18 18 25 27 34 35 34 32 31 29 31 31 31 32 30 30 30 28 28 28 28 28 27
32 31 28 29 28 23 23 23 24 25 30 25 24 17 21 17 19 20 17 11 12 20 23 25 26 30 30 30 33 31 30 29 30 30 29 29 28 28 26 24 24 25 25 24
31 29 34 29 25 28 28 25 26 32 30 21 20 18 19 19 16 19 16 15 21 24 25 24 26 29 31 31 31 30 29 26 27 28 29 27 27 26 25 23 22 23 23 21